<?xml version="1.0" encoding="UTF-8" standalone="no" ?>
<gpx xmlns="http://www.topografix.com/GPX/1/1" xmlns:xsi="http://www.w3.org/2001/XMLSchema-instance" xsi:schemaLocation="http://www.topografix.com/GPX/1/1 http://www.topografix.com/GPX/1/1/gpx.xsd" version="1.1" creator="VisuGPX - https://www.visugpx.com">
  <metadata>
    <name>VTT tour du Lac du Salagou</name>
    <desc><![CDATA[Le tour du lac du Salagou "classique". départ base de loisir de Clermont.
tracé ludique et assez roulant offrant de trés beau paysages.]]></desc>
  </metadata>
  <trk>
    <name><![CDATA[VTT tour du Lac du Salagou_1]]></name>
    <trkseg>
      <trkpt lat="43.64506" lon="3.39009">
        <ele>194.9</ele>
        <time>2016-05-16T06:34:00Z</time>
      </trkpt>
      <trkpt lat="43.64497" lon="3.39002">
        <ele>196.4</ele>
        <time>2016-05-16T06:33:46Z</time>
      </trkpt>
      <trkpt lat="43.64489" lon="3.39009">
        <ele>196.4</ele>
        <time>2016-05-16T06:34:55Z</time>
      </trkpt>
      <trkpt lat="43.64483" lon="3.39014">
        <ele>196.6</ele>
        <time>2016-05-16T06:34:58Z</time>
      </trkpt>
      <trkpt lat="43.64477" lon="3.39008">
        <ele>196.7</ele>
        <time>2016-05-16T06:35:01Z</time>
      </trkpt>
      <trkpt lat="43.64477" lon="3.38994">
        <ele>196.7</ele>
        <time>2016-05-16T06:35:04Z</time>
      </trkpt>
      <trkpt lat="43.6448" lon="3.38981">
        <ele>196.9</ele>
        <time>2016-05-16T06:35:07Z</time>
      </trkpt>
      <trkpt lat="43.64484" lon="3.38971">
        <ele>198.4</ele>
        <time>2016-05-16T06:35:09Z</time>
      </trkpt>
      <trkpt lat="43.64488" lon="3.3896">
        <ele>199.8</ele>
        <time>2016-05-16T06:35:11Z</time>
      </trkpt>
      <trkpt lat="43.64492" lon="3.38948">
        <ele>200.7</ele>
        <time>2016-05-16T06:35:13Z</time>
      </trkpt>
      <trkpt lat="43.64495" lon="3.38938">
        <ele>200.5</ele>
        <time>2016-05-16T06:35:15Z</time>
      </trkpt>
      <trkpt lat="43.64499" lon="3.38927">
        <ele>200.8</ele>
        <time>2016-05-16T06:35:17Z</time>
      </trkpt>
      <trkpt lat="43.64503" lon="3.38914">
        <ele>200.9</ele>
        <time>2016-05-16T06:35:19Z</time>
      </trkpt>
      <trkpt lat="43.64506" lon="3.38902">
        <ele>200.4</ele>
        <time>2016-05-16T06:35:21Z</time>
      </trkpt>
      <trkpt lat="43.64511" lon="3.38889">
        <ele>200.7</ele>
        <time>2016-05-16T06:35:23Z</time>
      </trkpt>
      <trkpt lat="43.64516" lon="3.38878">
        <ele>201.4</ele>
        <time>2016-05-16T06:35:25Z</time>
      </trkpt>
      <trkpt lat="43.6452" lon="3.38865">
        <ele>200.6</ele>
        <time>2016-05-16T06:35:27Z</time>
      </trkpt>
      <trkpt lat="43.64526" lon="3.38852">
        <ele>199.7</ele>
        <time>2016-05-16T06:35:29Z</time>
      </trkpt>
      <trkpt lat="43.64531" lon="3.38841">
        <ele>198.9</ele>
        <time>2016-05-16T06:35:31Z</time>
      </trkpt>
      <trkpt lat="43.64535" lon="3.3883">
        <ele>198.7</ele>
        <time>2016-05-16T06:35:33Z</time>
      </trkpt>
      <trkpt lat="43.64538" lon="3.38818">
        <ele>199.3</ele>
        <time>2016-05-16T06:35:35Z</time>
      </trkpt>
      <trkpt lat="43.64538" lon="3.38808">
        <ele>199.2</ele>
        <time>2016-05-16T06:35:38Z</time>
      </trkpt>
      <trkpt lat="43.64529" lon="3.38803">
        <ele>198.3</ele>
        <time>2016-05-16T06:35:45Z</time>
      </trkpt>
      <trkpt lat="43.64521" lon="3.38798">
        <ele>197.9</ele>
        <time>2016-05-16T06:35:47Z</time>
      </trkpt>
      <trkpt lat="43.64513" lon="3.38792">
        <ele>197.4</ele>
        <time>2016-05-16T06:35:49Z</time>
      </trkpt>
      <trkpt lat="43.64505" lon="3.38787">
        <ele>196.5</ele>
        <time>2016-05-16T06:35:51Z</time>
      </trkpt>
      <trkpt lat="43.64498" lon="3.38786">
        <ele>194.7</ele>
        <time>2016-05-16T06:35:53Z</time>
      </trkpt>
      <trkpt lat="43.64489" lon="3.38784">
        <ele>194.6</ele>
        <time>2016-05-16T06:35:55Z</time>
      </trkpt>
      <trkpt lat="43.6448" lon="3.3878">
        <ele>195.1</ele>
        <time>2016-05-16T06:35:57Z</time>
      </trkpt>
      <trkpt lat="43.64474" lon="3.38774">
        <ele>195</ele>
        <time>2016-05-16T06:35:59Z</time>
      </trkpt>
      <trkpt lat="43.64463" lon="3.38772">
        <ele>193.9</ele>
        <time>2016-05-16T06:36:02Z</time>
      </trkpt>
      <trkpt lat="43.64453" lon="3.38768">
        <ele>193.8</ele>
        <time>2016-05-16T06:36:04Z</time>
      </trkpt>
      <trkpt lat="43.64448" lon="3.3876">
        <ele>194.3</ele>
        <time>2016-05-16T06:36:06Z</time>
      </trkpt>
      <trkpt lat="43.64451" lon="3.38745">
        <ele>194.6</ele>
        <time>2016-05-16T06:36:09Z</time>
      </trkpt>
      <trkpt lat="43.64455" lon="3.38735">
        <ele>194.6</ele>
        <time>2016-05-16T06:36:11Z</time>
      </trkpt>
      <trkpt lat="43.64459" lon="3.38724">
        <ele>194.6</ele>
        <time>2016-05-16T06:36:13Z</time>
      </trkpt>
      <trkpt lat="43.64465" lon="3.38712">
        <ele>194.1</ele>
        <time>2016-05-16T06:36:15Z</time>
      </trkpt>
      <trkpt lat="43.64469" lon="3.38699">
        <ele>194.1</ele>
        <time>2016-05-16T06:36:17Z</time>
      </trkpt>
      <trkpt lat="43.6447" lon="3.38687">
        <ele>193.7</ele>
        <time>2016-05-16T06:36:19Z</time>
      </trkpt>
      <trkpt lat="43.6447" lon="3.38675">
        <ele>193.2</ele>
        <time>2016-05-16T06:36:21Z</time>
      </trkpt>
      <trkpt lat="43.64471" lon="3.38664">
        <ele>193.1</ele>
        <time>2016-05-16T06:36:24Z</time>
      </trkpt>
      <trkpt lat="43.64477" lon="3.38671">
        <ele>193.1</ele>
        <time>2016-05-16T06:36:31Z</time>
      </trkpt>
      <trkpt lat="43.64484" lon="3.38671">
        <ele>193.4</ele>
        <time>2016-05-16T06:36:36Z</time>
      </trkpt>
      <trkpt lat="43.64481" lon="3.38673">
        <ele>193.5</ele>
        <time>2016-05-16T06:36:43Z</time>
      </trkpt>
      <trkpt lat="43.64477" lon="3.38683">
        <ele>193.2</ele>
        <time>2016-05-16T06:36:46Z</time>
      </trkpt>
      <trkpt lat="43.64474" lon="3.38695">
        <ele>192.9</ele>
        <time>2016-05-16T06:36:49Z</time>
      </trkpt>
      <trkpt lat="43.64471" lon="3.38706">
        <ele>192.8</ele>
        <time>2016-05-16T06:36:52Z</time>
      </trkpt>
      <trkpt lat="43.64465" lon="3.38717">
        <ele>192.7</ele>
        <time>2016-05-16T06:36:55Z</time>
      </trkpt>
      <trkpt lat="43.6446" lon="3.38727">
        <ele>192.7</ele>
        <time>2016-05-16T06:36:58Z</time>
      </trkpt>
      <trkpt lat="43.64456" lon="3.38738">
        <ele>192.4</ele>
        <time>2016-05-16T06:37:00Z</time>
      </trkpt>
      <trkpt lat="43.64451" lon="3.38747">
        <ele>192.6</ele>
        <time>2016-05-16T06:37:02Z</time>
      </trkpt>
      <trkpt lat="43.64444" lon="3.38759">
        <ele>192.6</ele>
        <time>2016-05-16T06:37:05Z</time>
      </trkpt>
      <trkpt lat="43.64438" lon="3.38765">
        <ele>193</ele>
        <time>2016-05-16T06:37:07Z</time>
      </trkpt>
      <trkpt lat="43.64428" lon="3.38773">
        <ele>194</ele>
        <time>2016-05-16T06:37:10Z</time>
      </trkpt>
      <trkpt lat="43.6442" lon="3.38776">
        <ele>193.5</ele>
        <time>2016-05-16T06:37:12Z</time>
      </trkpt>
      <trkpt lat="43.6441" lon="3.38778">
        <ele>192.7</ele>
        <time>2016-05-16T06:37:15Z</time>
      </trkpt>
      <trkpt lat="43.64403" lon="3.3878">
        <ele>193.6</ele>
        <time>2016-05-16T06:37:17Z</time>
      </trkpt>
      <trkpt lat="43.64394" lon="3.38784">
        <ele>193.9</ele>
        <time>2016-05-16T06:37:19Z</time>
      </trkpt>
      <trkpt lat="43.64385" lon="3.38787">
        <ele>194</ele>
        <time>2016-05-16T06:37:21Z</time>
      </trkpt>
      <trkpt lat="43.64376" lon="3.38789">
        <ele>193.4</ele>
        <time>2016-05-16T06:37:23Z</time>
      </trkpt>
      <trkpt lat="43.64367" lon="3.38791">
        <ele>193</ele>
        <time>2016-05-16T06:37:25Z</time>
      </trkpt>
      <trkpt lat="43.64359" lon="3.38795">
        <ele>191.9</ele>
        <time>2016-05-16T06:37:27Z</time>
      </trkpt>
      <trkpt lat="43.6435" lon="3.38794">
        <ele>191.1</ele>
        <time>2016-05-16T06:37:29Z</time>
      </trkpt>
      <trkpt lat="43.64345" lon="3.38785">
        <ele>190.9</ele>
        <time>2016-05-16T06:37:32Z</time>
      </trkpt>
      <trkpt lat="43.64344" lon="3.3877">
        <ele>191</ele>
        <time>2016-05-16T06:37:35Z</time>
      </trkpt>
      <trkpt lat="43.6434" lon="3.3876">
        <ele>191.1</ele>
        <time>2016-05-16T06:37:37Z</time>
      </trkpt>
      <trkpt lat="43.64336" lon="3.38751">
        <ele>191.1</ele>
        <time>2016-05-16T06:37:39Z</time>
      </trkpt>
      <trkpt lat="43.64332" lon="3.38743">
        <ele>191</ele>
        <time>2016-05-16T06:37:41Z</time>
      </trkpt>
      <trkpt lat="43.64325" lon="3.38735">
        <ele>192</ele>
        <time>2016-05-16T06:37:43Z</time>
      </trkpt>
      <trkpt lat="43.64317" lon="3.38729">
        <ele>193.1</ele>
        <time>2016-05-16T06:37:45Z</time>
      </trkpt>
      <trkpt lat="43.64311" lon="3.38723">
        <ele>193</ele>
        <time>2016-05-16T06:37:47Z</time>
      </trkpt>
      <trkpt lat="43.64304" lon="3.38714">
        <ele>193.9</ele>
        <time>2016-05-16T06:37:49Z</time>
      </trkpt>
      <trkpt lat="43.64299" lon="3.38705">
        <ele>194</ele>
        <time>2016-05-16T06:37:51Z</time>
      </trkpt>
      <trkpt lat="43.64293" lon="3.38696">
        <ele>192.5</ele>
        <time>2016-05-16T06:37:53Z</time>
      </trkpt>
      <trkpt lat="43.64289" lon="3.38686">
        <ele>191.7</ele>
        <time>2016-05-16T06:37:55Z</time>
      </trkpt>
      <trkpt lat="43.64285" lon="3.38676">
        <ele>191.3</ele>
        <time>2016-05-16T06:37:57Z</time>
      </trkpt>
      <trkpt lat="43.6428" lon="3.38667">
        <ele>191.3</ele>
        <time>2016-05-16T06:37:59Z</time>
      </trkpt>
      <trkpt lat="43.64277" lon="3.38657">
        <ele>191</ele>
        <time>2016-05-16T06:38:01Z</time>
      </trkpt>
      <trkpt lat="43.64272" lon="3.38646">
        <ele>191</ele>
        <time>2016-05-16T06:38:03Z</time>
      </trkpt>
      <trkpt lat="43.64267" lon="3.38637">
        <ele>190.8</ele>
        <time>2016-05-16T06:38:06Z</time>
      </trkpt>
      <trkpt lat="43.64266" lon="3.38637">
        <ele>190.9</ele>
        <time>2016-05-16T06:38:13Z</time>
      </trkpt>
      <trkpt lat="43.64262" lon="3.38628">
        <ele>191.4</ele>
        <time>2016-05-16T06:38:17Z</time>
      </trkpt>
      <trkpt lat="43.64257" lon="3.3862">
        <ele>191.6</ele>
        <time>2016-05-16T06:38:18Z</time>
      </trkpt>
      <trkpt lat="43.64252" lon="3.38609">
        <ele>191.6</ele>
        <time>2016-05-16T06:38:21Z</time>
      </trkpt>
      <trkpt lat="43.64247" lon="3.38595">
        <ele>191.5</ele>
        <time>2016-05-16T06:38:24Z</time>
      </trkpt>
      <trkpt lat="43.64244" lon="3.38586">
        <ele>191.6</ele>
        <time>2016-05-16T06:38:26Z</time>
      </trkpt>
      <trkpt lat="43.6424" lon="3.38572">
        <ele>191.5</ele>
        <time>2016-05-16T06:38:29Z</time>
      </trkpt>
      <trkpt lat="43.64237" lon="3.38561">
        <ele>192.1</ele>
        <time>2016-05-16T06:38:31Z</time>
      </trkpt>
      <trkpt lat="43.64236" lon="3.3855">
        <ele>192.3</ele>
        <time>2016-05-16T06:38:33Z</time>
      </trkpt>
      <trkpt lat="43.64235" lon="3.3854">
        <ele>194.1</ele>
        <time>2016-05-16T06:38:35Z</time>
      </trkpt>
      <trkpt lat="43.64234" lon="3.38528">
        <ele>195.4</ele>
        <time>2016-05-16T06:38:37Z</time>
      </trkpt>
      <trkpt lat="43.64235" lon="3.38517">
        <ele>196.3</ele>
        <time>2016-05-16T06:38:40Z</time>
      </trkpt>
      <trkpt lat="43.64236" lon="3.38505">
        <ele>196.7</ele>
        <time>2016-05-16T06:38:42Z</time>
      </trkpt>
      <trkpt lat="43.64237" lon="3.38492">
        <ele>197.2</ele>
        <time>2016-05-16T06:38:44Z</time>
      </trkpt>
      <trkpt lat="43.64238" lon="3.38476">
        <ele>196.8</ele>
        <time>2016-05-16T06:38:46Z</time>
      </trkpt>
      <trkpt lat="43.64239" lon="3.38462">
        <ele>196.3</ele>
        <time>2016-05-16T06:38:48Z</time>
      </trkpt>
      <trkpt lat="43.6424" lon="3.38448">
        <ele>194.6</ele>
        <time>2016-05-16T06:38:50Z</time>
      </trkpt>
      <trkpt lat="43.6424" lon="3.38433">
        <ele>194.1</ele>
        <time>2016-05-16T06:38:52Z</time>
      </trkpt>
      <trkpt lat="43.64242" lon="3.38419">
        <ele>193.8</ele>
        <time>2016-05-16T06:38:55Z</time>
      </trkpt>
      <trkpt lat="43.64244" lon="3.38405">
        <ele>192</ele>
        <time>2016-05-16T06:38:58Z</time>
      </trkpt>
      <trkpt lat="43.64245" lon="3.38394">
        <ele>191.5</ele>
        <time>2016-05-16T06:39:00Z</time>
      </trkpt>
      <trkpt lat="43.64246" lon="3.38381">
        <ele>191.4</ele>
        <time>2016-05-16T06:39:02Z</time>
      </trkpt>
      <trkpt lat="43.64247" lon="3.3837">
        <ele>191.9</ele>
        <time>2016-05-16T06:39:04Z</time>
      </trkpt>
      <trkpt lat="43.64249" lon="3.38377">
        <ele>191.9</ele>
        <time>2016-05-16T06:39:11Z</time>
      </trkpt>
      <trkpt lat="43.64256" lon="3.38373">
        <ele>191.9</ele>
        <time>2016-05-16T06:39:13Z</time>
      </trkpt>
      <trkpt lat="43.64265" lon="3.38367">
        <ele>191.4</ele>
        <time>2016-05-16T06:39:15Z</time>
      </trkpt>
      <trkpt lat="43.64275" lon="3.3836">
        <ele>192.8</ele>
        <time>2016-05-16T06:39:17Z</time>
      </trkpt>
      <trkpt lat="43.64284" lon="3.38357">
        <ele>193.9</ele>
        <time>2016-05-16T06:39:19Z</time>
      </trkpt>
      <trkpt lat="43.6429" lon="3.3835">
        <ele>194.1</ele>
        <time>2016-05-16T06:39:21Z</time>
      </trkpt>
      <trkpt lat="43.643" lon="3.38357">
        <ele>195.2</ele>
        <time>2016-05-16T06:39:24Z</time>
      </trkpt>
      <trkpt lat="43.64305" lon="3.38367">
        <ele>195.2</ele>
        <time>2016-05-16T06:39:26Z</time>
      </trkpt>
      <trkpt lat="43.64312" lon="3.38378">
        <ele>194.8</ele>
        <time>2016-05-16T06:39:28Z</time>
      </trkpt>
      <trkpt lat="43.64319" lon="3.38387">
        <ele>194.8</ele>
        <time>2016-05-16T06:39:30Z</time>
      </trkpt>
      <trkpt lat="43.64327" lon="3.38392">
        <ele>194.2</ele>
        <time>2016-05-16T06:39:32Z</time>
      </trkpt>
      <trkpt lat="43.64337" lon="3.38393">
        <ele>193.1</ele>
        <time>2016-05-16T06:39:34Z</time>
      </trkpt>
      <trkpt lat="43.64347" lon="3.38391">
        <ele>191.9</ele>
        <time>2016-05-16T06:39:36Z</time>
      </trkpt>
      <trkpt lat="43.64356" lon="3.38387">
        <ele>190.8</ele>
        <time>2016-05-16T06:39:38Z</time>
      </trkpt>
      <trkpt lat="43.64362" lon="3.38377">
        <ele>191.3</ele>
        <time>2016-05-16T06:39:40Z</time>
      </trkpt>
      <trkpt lat="43.64367" lon="3.38364">
        <ele>192.6</ele>
        <time>2016-05-16T06:39:42Z</time>
      </trkpt>
      <trkpt lat="43.64372" lon="3.38352">
        <ele>193.8</ele>
        <time>2016-05-16T06:39:44Z</time>
      </trkpt>
      <trkpt lat="43.64374" lon="3.38341">
        <ele>193.8</ele>
        <time>2016-05-16T06:39:46Z</time>
      </trkpt>
      <trkpt lat="43.64376" lon="3.3833">
        <ele>193.5</ele>
        <time>2016-05-16T06:39:48Z</time>
      </trkpt>
      <trkpt lat="43.64376" lon="3.38315">
        <ele>192.8</ele>
        <time>2016-05-16T06:39:50Z</time>
      </trkpt>
      <trkpt lat="43.64377" lon="3.38301">
        <ele>192.9</ele>
        <time>2016-05-16T06:39:52Z</time>
      </trkpt>
      <trkpt lat="43.64378" lon="3.38288">
        <ele>193.7</ele>
        <time>2016-05-16T06:39:54Z</time>
      </trkpt>
      <trkpt lat="43.64377" lon="3.38275">
        <ele>193.7</ele>
        <time>2016-05-16T06:39:56Z</time>
      </trkpt>
      <trkpt lat="43.64377" lon="3.38261">
        <ele>193.4</ele>
        <time>2016-05-16T06:39:58Z</time>
      </trkpt>
      <trkpt lat="43.64376" lon="3.38249">
        <ele>192.8</ele>
        <time>2016-05-16T06:40:00Z</time>
      </trkpt>
      <trkpt lat="43.64376" lon="3.38235">
        <ele>191.6</ele>
        <time>2016-05-16T06:40:02Z</time>
      </trkpt>
      <trkpt lat="43.64376" lon="3.38221">
        <ele>191.4</ele>
        <time>2016-05-16T06:40:04Z</time>
      </trkpt>
      <trkpt lat="43.64377" lon="3.38208">
        <ele>191.5</ele>
        <time>2016-05-16T06:40:06Z</time>
      </trkpt>
      <trkpt lat="43.64377" lon="3.38194">
        <ele>191.4</ele>
        <time>2016-05-16T06:40:08Z</time>
      </trkpt>
      <trkpt lat="43.64377" lon="3.38179">
        <ele>190.8</ele>
        <time>2016-05-16T06:40:10Z</time>
      </trkpt>
      <trkpt lat="43.64378" lon="3.38165">
        <ele>190.7</ele>
        <time>2016-05-16T06:40:12Z</time>
      </trkpt>
      <trkpt lat="43.64379" lon="3.38148">
        <ele>190.7</ele>
        <time>2016-05-16T06:40:14Z</time>
      </trkpt>
      <trkpt lat="43.6438" lon="3.38133">
        <ele>190.6</ele>
        <time>2016-05-16T06:40:16Z</time>
      </trkpt>
      <trkpt lat="43.6438" lon="3.38119">
        <ele>190.4</ele>
        <time>2016-05-16T06:40:18Z</time>
      </trkpt>
      <trkpt lat="43.6438" lon="3.38106">
        <ele>190.6</ele>
        <time>2016-05-16T06:40:20Z</time>
      </trkpt>
      <trkpt lat="43.64383" lon="3.38094">
        <ele>190.5</ele>
        <time>2016-05-16T06:40:22Z</time>
      </trkpt>
      <trkpt lat="43.64383" lon="3.38082">
        <ele>190.3</ele>
        <time>2016-05-16T06:40:24Z</time>
      </trkpt>
      <trkpt lat="43.64385" lon="3.3807">
        <ele>190.9</ele>
        <time>2016-05-16T06:40:26Z</time>
      </trkpt>
      <trkpt lat="43.64387" lon="3.38058">
        <ele>191.7</ele>
        <time>2016-05-16T06:40:28Z</time>
      </trkpt>
      <trkpt lat="43.64389" lon="3.38046">
        <ele>193.5</ele>
        <time>2016-05-16T06:40:30Z</time>
      </trkpt>
      <trkpt lat="43.64392" lon="3.38035">
        <ele>194.9</ele>
        <time>2016-05-16T06:40:32Z</time>
      </trkpt>
      <trkpt lat="43.64395" lon="3.38023">
        <ele>195</ele>
        <time>2016-05-16T06:40:35Z</time>
      </trkpt>
      <trkpt lat="43.64398" lon="3.3801">
        <ele>195</ele>
        <time>2016-05-16T06:40:38Z</time>
      </trkpt>
      <trkpt lat="43.64394" lon="3.37999">
        <ele>194.3</ele>
        <time>2016-05-16T06:40:42Z</time>
      </trkpt>
      <trkpt lat="43.64385" lon="3.37991">
        <ele>192.2</ele>
        <time>2016-05-16T06:40:45Z</time>
      </trkpt>
      <trkpt lat="43.64379" lon="3.37985">
        <ele>191.9</ele>
        <time>2016-05-16T06:40:50Z</time>
      </trkpt>
      <trkpt lat="43.64376" lon="3.37979">
        <ele>191.4</ele>
        <time>2016-05-16T06:40:57Z</time>
      </trkpt>
      <trkpt lat="43.64371" lon="3.37978">
        <ele>191.3</ele>
        <time>2016-05-16T06:41:04Z</time>
      </trkpt>
      <trkpt lat="43.64368" lon="3.37968">
        <ele>191.5</ele>
        <time>2016-05-16T06:41:09Z</time>
      </trkpt>
      <trkpt lat="43.64367" lon="3.37958">
        <ele>191.5</ele>
        <time>2016-05-16T06:41:11Z</time>
      </trkpt>
      <trkpt lat="43.64369" lon="3.37948">
        <ele>191.6</ele>
        <time>2016-05-16T06:41:14Z</time>
      </trkpt>
      <trkpt lat="43.64374" lon="3.37937">
        <ele>191.8</ele>
        <time>2016-05-16T06:41:17Z</time>
      </trkpt>
      <trkpt lat="43.64378" lon="3.37928">
        <ele>192</ele>
        <time>2016-05-16T06:41:19Z</time>
      </trkpt>
      <trkpt lat="43.6438" lon="3.37915">
        <ele>192.2</ele>
        <time>2016-05-16T06:41:23Z</time>
      </trkpt>
      <trkpt lat="43.64382" lon="3.37905">
        <ele>192.4</ele>
        <time>2016-05-16T06:41:26Z</time>
      </trkpt>
      <trkpt lat="43.64383" lon="3.37899">
        <ele>192.8</ele>
        <time>2016-05-16T06:41:33Z</time>
      </trkpt>
      <trkpt lat="43.64384" lon="3.3789">
        <ele>192.9</ele>
        <time>2016-05-16T06:41:40Z</time>
      </trkpt>
      <trkpt lat="43.64386" lon="3.37876">
        <ele>192.9</ele>
        <time>2016-05-16T06:41:44Z</time>
      </trkpt>
      <trkpt lat="43.64389" lon="3.37865">
        <ele>193</ele>
        <time>2016-05-16T06:41:46Z</time>
      </trkpt>
      <trkpt lat="43.64392" lon="3.37854">
        <ele>193</ele>
        <time>2016-05-16T06:41:48Z</time>
      </trkpt>
      <trkpt lat="43.64392" lon="3.37843">
        <ele>193</ele>
        <time>2016-05-16T06:41:51Z</time>
      </trkpt>
      <trkpt lat="43.64389" lon="3.37832">
        <ele>191.7</ele>
        <time>2016-05-16T06:41:54Z</time>
      </trkpt>
      <trkpt lat="43.64389" lon="3.3782">
        <ele>190.1</ele>
        <time>2016-05-16T06:41:56Z</time>
      </trkpt>
      <trkpt lat="43.6439" lon="3.3781">
        <ele>188.6</ele>
        <time>2016-05-16T06:41:58Z</time>
      </trkpt>
      <trkpt lat="43.64392" lon="3.378">
        <ele>188</ele>
        <time>2016-05-16T06:42:00Z</time>
      </trkpt>
      <trkpt lat="43.64395" lon="3.37788">
        <ele>186.4</ele>
        <time>2016-05-16T06:42:02Z</time>
      </trkpt>
      <trkpt lat="43.64397" lon="3.37776">
        <ele>186.4</ele>
        <time>2016-05-16T06:42:04Z</time>
      </trkpt>
      <trkpt lat="43.64398" lon="3.37766">
        <ele>187.7</ele>
        <time>2016-05-16T06:42:06Z</time>
      </trkpt>
      <trkpt lat="43.64399" lon="3.37753">
        <ele>188.5</ele>
        <time>2016-05-16T06:42:08Z</time>
      </trkpt>
      <trkpt lat="43.64402" lon="3.37743">
        <ele>188.3</ele>
        <time>2016-05-16T06:42:10Z</time>
      </trkpt>
      <trkpt lat="43.64399" lon="3.37729">
        <ele>188.4</ele>
        <time>2016-05-16T06:42:13Z</time>
      </trkpt>
      <trkpt lat="43.64398" lon="3.37714">
        <ele>188.6</ele>
        <time>2016-05-16T06:42:16Z</time>
      </trkpt>
      <trkpt lat="43.64398" lon="3.37704">
        <ele>188.9</ele>
        <time>2016-05-16T06:42:18Z</time>
      </trkpt>
      <trkpt lat="43.64398" lon="3.3769">
        <ele>189.3</ele>
        <time>2016-05-16T06:42:21Z</time>
      </trkpt>
      <trkpt lat="43.64402" lon="3.37681">
        <ele>189.6</ele>
        <time>2016-05-16T06:42:24Z</time>
      </trkpt>
      <trkpt lat="43.64407" lon="3.37671">
        <ele>190.8</ele>
        <time>2016-05-16T06:42:26Z</time>
      </trkpt>
      <trkpt lat="43.64413" lon="3.37662">
        <ele>192.4</ele>
        <time>2016-05-16T06:42:28Z</time>
      </trkpt>
      <trkpt lat="43.64414" lon="3.37652">
        <ele>192.5</ele>
        <time>2016-05-16T06:42:31Z</time>
      </trkpt>
      <trkpt lat="43.64414" lon="3.3764">
        <ele>192.6</ele>
        <time>2016-05-16T06:42:34Z</time>
      </trkpt>
      <trkpt lat="43.64416" lon="3.3763">
        <ele>193.1</ele>
        <time>2016-05-16T06:42:36Z</time>
      </trkpt>
      <trkpt lat="43.64418" lon="3.37625">
        <ele>193.1</ele>
        <time>2016-05-16T06:42:43Z</time>
      </trkpt>
      <trkpt lat="43.64419" lon="3.37617">
        <ele>193.1</ele>
        <time>2016-05-16T06:42:50Z</time>
      </trkpt>
      <trkpt lat="43.64423" lon="3.37605">
        <ele>193</ele>
        <time>2016-05-16T06:42:55Z</time>
      </trkpt>
      <trkpt lat="43.64426" lon="3.37595">
        <ele>192.9</ele>
        <time>2016-05-16T06:42:58Z</time>
      </trkpt>
      <trkpt lat="43.64431" lon="3.37587">
        <ele>192.8</ele>
        <time>2016-05-16T06:43:02Z</time>
      </trkpt>
      <trkpt lat="43.64437" lon="3.37579">
        <ele>192.4</ele>
        <time>2016-05-16T06:43:07Z</time>
      </trkpt>
      <trkpt lat="43.64439" lon="3.37567">
        <ele>192.2</ele>
        <time>2016-05-16T06:43:12Z</time>
      </trkpt>
      <trkpt lat="43.64442" lon="3.37556">
        <ele>192.4</ele>
        <time>2016-05-16T06:43:15Z</time>
      </trkpt>
      <trkpt lat="43.64444" lon="3.37546">
        <ele>192.4</ele>
        <time>2016-05-16T06:43:17Z</time>
      </trkpt>
      <trkpt lat="43.64447" lon="3.37535">
        <ele>193.1</ele>
        <time>2016-05-16T06:43:19Z</time>
      </trkpt>
      <trkpt lat="43.64449" lon="3.37526">
        <ele>193.2</ele>
        <time>2016-05-16T06:43:21Z</time>
      </trkpt>
      <trkpt lat="43.64452" lon="3.37513">
        <ele>192.4</ele>
        <time>2016-05-16T06:43:23Z</time>
      </trkpt>
      <trkpt lat="43.64455" lon="3.37501">
        <ele>191.5</ele>
        <time>2016-05-16T06:43:25Z</time>
      </trkpt>
      <trkpt lat="43.64458" lon="3.37488">
        <ele>191.4</ele>
        <time>2016-05-16T06:43:27Z</time>
      </trkpt>
      <trkpt lat="43.64461" lon="3.37477">
        <ele>190.8</ele>
        <time>2016-05-16T06:43:29Z</time>
      </trkpt>
      <trkpt lat="43.64465" lon="3.37465">
        <ele>190.7</ele>
        <time>2016-05-16T06:43:31Z</time>
      </trkpt>
      <trkpt lat="43.64468" lon="3.37454">
        <ele>191.1</ele>
        <time>2016-05-16T06:43:33Z</time>
      </trkpt>
      <trkpt lat="43.64471" lon="3.37443">
        <ele>191.8</ele>
        <time>2016-05-16T06:43:35Z</time>
      </trkpt>
      <trkpt lat="43.64471" lon="3.37431">
        <ele>193</ele>
        <time>2016-05-16T06:43:37Z</time>
      </trkpt>
      <trkpt lat="43.6447" lon="3.37415">
        <ele>193.9</ele>
        <time>2016-05-16T06:43:39Z</time>
      </trkpt>
      <trkpt lat="43.64468" lon="3.37403">
        <ele>193.8</ele>
        <time>2016-05-16T06:43:41Z</time>
      </trkpt>
      <trkpt lat="43.64468" lon="3.3739">
        <ele>193.4</ele>
        <time>2016-05-16T06:43:43Z</time>
      </trkpt>
      <trkpt lat="43.64465" lon="3.37378">
        <ele>191.9</ele>
        <time>2016-05-16T06:43:45Z</time>
      </trkpt>
      <trkpt lat="43.64461" lon="3.37364">
        <ele>191.4</ele>
        <time>2016-05-16T06:43:47Z</time>
      </trkpt>
      <trkpt lat="43.64457" lon="3.37353">
        <ele>190.5</ele>
        <time>2016-05-16T06:43:49Z</time>
      </trkpt>
      <trkpt lat="43.64451" lon="3.37343">
        <ele>190.9</ele>
        <time>2016-05-16T06:43:51Z</time>
      </trkpt>
      <trkpt lat="43.64445" lon="3.37332">
        <ele>191</ele>
        <time>2016-05-16T06:43:53Z</time>
      </trkpt>
      <trkpt lat="43.64438" lon="3.37323">
        <ele>190</ele>
        <time>2016-05-16T06:43:55Z</time>
      </trkpt>
      <trkpt lat="43.64431" lon="3.37315">
        <ele>188.8</ele>
        <time>2016-05-16T06:43:57Z</time>
      </trkpt>
      <trkpt lat="43.64425" lon="3.37306">
        <ele>186.8</ele>
        <time>2016-05-16T06:43:59Z</time>
      </trkpt>
      <trkpt lat="43.64421" lon="3.37296">
        <ele>186</ele>
        <time>2016-05-16T06:44:01Z</time>
      </trkpt>
      <trkpt lat="43.64415" lon="3.37288">
        <ele>185.5</ele>
        <time>2016-05-16T06:44:08Z</time>
      </trkpt>
      <trkpt lat="43.64415" lon="3.37294">
        <ele>185</ele>
        <time>2016-05-16T06:44:15Z</time>
      </trkpt>
      <trkpt lat="43.6442" lon="3.3729">
        <ele>186.1</ele>
        <time>2016-05-16T06:44:22Z</time>
      </trkpt>
      <trkpt lat="43.64421" lon="3.37283">
        <ele>187</ele>
        <time>2016-05-16T06:44:29Z</time>
      </trkpt>
      <trkpt lat="43.6442" lon="3.37273">
        <ele>187.2</ele>
        <time>2016-05-16T06:44:34Z</time>
      </trkpt>
      <trkpt lat="43.6442" lon="3.37261">
        <ele>187.5</ele>
        <time>2016-05-16T06:44:37Z</time>
      </trkpt>
      <trkpt lat="43.6442" lon="3.37251">
        <ele>187.6</ele>
        <time>2016-05-16T06:44:39Z</time>
      </trkpt>
      <trkpt lat="43.64419" lon="3.3724">
        <ele>187.7</ele>
        <time>2016-05-16T06:44:41Z</time>
      </trkpt>
      <trkpt lat="43.64416" lon="3.37228">
        <ele>187.8</ele>
        <time>2016-05-16T06:44:43Z</time>
      </trkpt>
      <trkpt lat="43.6441" lon="3.37218">
        <ele>188.2</ele>
        <time>2016-05-16T06:44:46Z</time>
      </trkpt>
      <trkpt lat="43.64401" lon="3.37209">
        <ele>187.8</ele>
        <time>2016-05-16T06:44:49Z</time>
      </trkpt>
      <trkpt lat="43.64395" lon="3.37205">
        <ele>187.9</ele>
        <time>2016-05-16T06:44:51Z</time>
      </trkpt>
      <trkpt lat="43.64388" lon="3.372">
        <ele>187.8</ele>
        <time>2016-05-16T06:44:53Z</time>
      </trkpt>
      <trkpt lat="43.64379" lon="3.37194">
        <ele>187.8</ele>
        <time>2016-05-16T06:44:57Z</time>
      </trkpt>
      <trkpt lat="43.64374" lon="3.37186">
        <ele>188.9</ele>
        <time>2016-05-16T06:44:59Z</time>
      </trkpt>
      <trkpt lat="43.64367" lon="3.37182">
        <ele>189.1</ele>
        <time>2016-05-16T06:45:03Z</time>
      </trkpt>
      <trkpt lat="43.64361" lon="3.37175">
        <ele>189.1</ele>
        <time>2016-05-16T06:45:06Z</time>
      </trkpt>
      <trkpt lat="43.64355" lon="3.37167">
        <ele>189.1</ele>
        <time>2016-05-16T06:45:10Z</time>
      </trkpt>
      <trkpt lat="43.64354" lon="3.37156">
        <ele>189.2</ele>
        <time>2016-05-16T06:45:14Z</time>
      </trkpt>
      <trkpt lat="43.64351" lon="3.37147">
        <ele>189.4</ele>
        <time>2016-05-16T06:45:17Z</time>
      </trkpt>
      <trkpt lat="43.64344" lon="3.37142">
        <ele>189.4</ele>
        <time>2016-05-16T06:45:21Z</time>
      </trkpt>
      <trkpt lat="43.64336" lon="3.37139">
        <ele>189.5</ele>
        <time>2016-05-16T06:45:24Z</time>
      </trkpt>
      <trkpt lat="43.64328" lon="3.37136">
        <ele>189.6</ele>
        <time>2016-05-16T06:45:27Z</time>
      </trkpt>
      <trkpt lat="43.64321" lon="3.3713">
        <ele>189.7</ele>
        <time>2016-05-16T06:45:30Z</time>
      </trkpt>
      <trkpt lat="43.64316" lon="3.37123">
        <ele>189.8</ele>
        <time>2016-05-16T06:45:32Z</time>
      </trkpt>
      <trkpt lat="43.64311" lon="3.37112">
        <ele>190</ele>
        <time>2016-05-16T06:45:35Z</time>
      </trkpt>
      <trkpt lat="43.64307" lon="3.37103">
        <ele>190.1</ele>
        <time>2016-05-16T06:45:37Z</time>
      </trkpt>
      <trkpt lat="43.64307" lon="3.37092">
        <ele>190.3</ele>
        <time>2016-05-16T06:45:39Z</time>
      </trkpt>
      <trkpt lat="43.64304" lon="3.37081">
        <ele>191</ele>
        <time>2016-05-16T06:45:41Z</time>
      </trkpt>
      <trkpt lat="43.64302" lon="3.37067">
        <ele>190.4</ele>
        <time>2016-05-16T06:45:43Z</time>
      </trkpt>
      <trkpt lat="43.64301" lon="3.37053">
        <ele>189.9</ele>
        <time>2016-05-16T06:45:45Z</time>
      </trkpt>
      <trkpt lat="43.64299" lon="3.37037">
        <ele>188.9</ele>
        <time>2016-05-16T06:45:47Z</time>
      </trkpt>
      <trkpt lat="43.64298" lon="3.37026">
        <ele>189</ele>
        <time>2016-05-16T06:45:48Z</time>
      </trkpt>
      <trkpt lat="43.64301" lon="3.37011">
        <ele>187.9</ele>
        <time>2016-05-16T06:45:50Z</time>
      </trkpt>
      <trkpt lat="43.64303" lon="3.36999">
        <ele>187.9</ele>
        <time>2016-05-16T06:45:52Z</time>
      </trkpt>
      <trkpt lat="43.64304" lon="3.36986">
        <ele>187.1</ele>
        <time>2016-05-16T06:45:54Z</time>
      </trkpt>
      <trkpt lat="43.64305" lon="3.36973">
        <ele>187.5</ele>
        <time>2016-05-16T06:45:56Z</time>
      </trkpt>
      <trkpt lat="43.64305" lon="3.36961">
        <ele>188.1</ele>
        <time>2016-05-16T06:45:58Z</time>
      </trkpt>
      <trkpt lat="43.64306" lon="3.36947">
        <ele>188.5</ele>
        <time>2016-05-16T06:46:00Z</time>
      </trkpt>
      <trkpt lat="43.64306" lon="3.36932">
        <ele>189.9</ele>
        <time>2016-05-16T06:46:02Z</time>
      </trkpt>
      <trkpt lat="43.64307" lon="3.3692">
        <ele>189.6</ele>
        <time>2016-05-16T06:46:04Z</time>
      </trkpt>
      <trkpt lat="43.64305" lon="3.36906">
        <ele>189.9</ele>
        <time>2016-05-16T06:46:06Z</time>
      </trkpt>
      <trkpt lat="43.64305" lon="3.36891">
        <ele>190.2</ele>
        <time>2016-05-16T06:46:08Z</time>
      </trkpt>
      <trkpt lat="43.64306" lon="3.36876">
        <ele>189.9</ele>
        <time>2016-05-16T06:46:10Z</time>
      </trkpt>
      <trkpt lat="43.64307" lon="3.36864">
        <ele>190.2</ele>
        <time>2016-05-16T06:46:12Z</time>
      </trkpt>
      <trkpt lat="43.64308" lon="3.36852">
        <ele>190.6</ele>
        <time>2016-05-16T06:46:14Z</time>
      </trkpt>
      <trkpt lat="43.6431" lon="3.3684">
        <ele>190.1</ele>
        <time>2016-05-16T06:46:16Z</time>
      </trkpt>
      <trkpt lat="43.64311" lon="3.36829">
        <ele>190.3</ele>
        <time>2016-05-16T06:46:18Z</time>
      </trkpt>
      <trkpt lat="43.64308" lon="3.36816">
        <ele>190.3</ele>
        <time>2016-05-16T06:46:20Z</time>
      </trkpt>
      <trkpt lat="43.64303" lon="3.36804">
        <ele>189.7</ele>
        <time>2016-05-16T06:46:22Z</time>
      </trkpt>
      <trkpt lat="43.643" lon="3.3679">
        <ele>189.7</ele>
        <time>2016-05-16T06:46:24Z</time>
      </trkpt>
      <trkpt lat="43.64296" lon="3.36781">
        <ele>189.7</ele>
        <time>2016-05-16T06:46:26Z</time>
      </trkpt>
      <trkpt lat="43.6429" lon="3.36774">
        <ele>189.7</ele>
        <time>2016-05-16T06:46:33Z</time>
      </trkpt>
      <trkpt lat="43.64288" lon="3.36762">
        <ele>189.7</ele>
        <time>2016-05-16T06:46:36Z</time>
      </trkpt>
      <trkpt lat="43.64289" lon="3.36751">
        <ele>189.7</ele>
        <time>2016-05-16T06:46:38Z</time>
      </trkpt>
      <trkpt lat="43.64292" lon="3.36741">
        <ele>189.8</ele>
        <time>2016-05-16T06:46:40Z</time>
      </trkpt>
      <trkpt lat="43.64295" lon="3.36728">
        <ele>189.7</ele>
        <time>2016-05-16T06:46:43Z</time>
      </trkpt>
      <trkpt lat="43.64298" lon="3.36718">
        <ele>189.8</ele>
        <time>2016-05-16T06:46:45Z</time>
      </trkpt>
      <trkpt lat="43.64301" lon="3.36706">
        <ele>190.5</ele>
        <time>2016-05-16T06:46:47Z</time>
      </trkpt>
      <trkpt lat="43.64305" lon="3.36692">
        <ele>190.5</ele>
        <time>2016-05-16T06:46:49Z</time>
      </trkpt>
      <trkpt lat="43.64307" lon="3.36678">
        <ele>190.9</ele>
        <time>2016-05-16T06:46:51Z</time>
      </trkpt>
      <trkpt lat="43.64303" lon="3.36665">
        <ele>191.2</ele>
        <time>2016-05-16T06:46:53Z</time>
      </trkpt>
      <trkpt lat="43.64295" lon="3.36657">
        <ele>191.2</ele>
        <time>2016-05-16T06:46:55Z</time>
      </trkpt>
      <trkpt lat="43.64288" lon="3.36648">
        <ele>191</ele>
        <time>2016-05-16T06:46:57Z</time>
      </trkpt>
      <trkpt lat="43.64288" lon="3.36633">
        <ele>190.1</ele>
        <time>2016-05-16T06:46:59Z</time>
      </trkpt>
      <trkpt lat="43.64288" lon="3.36618">
        <ele>188.9</ele>
        <time>2016-05-16T06:47:01Z</time>
      </trkpt>
      <trkpt lat="43.64287" lon="3.36606">
        <ele>188</ele>
        <time>2016-05-16T06:47:03Z</time>
      </trkpt>
      <trkpt lat="43.64286" lon="3.36593">
        <ele>188.6</ele>
        <time>2016-05-16T06:47:05Z</time>
      </trkpt>
      <trkpt lat="43.64285" lon="3.36581">
        <ele>188.8</ele>
        <time>2016-05-16T06:47:07Z</time>
      </trkpt>
      <trkpt lat="43.64284" lon="3.36571">
        <ele>189</ele>
        <time>2016-05-16T06:47:09Z</time>
      </trkpt>
      <trkpt lat="43.64282" lon="3.36561">
        <ele>189.3</ele>
        <time>2016-05-16T06:47:11Z</time>
      </trkpt>
      <trkpt lat="43.64282" lon="3.3655">
        <ele>189.1</ele>
        <time>2016-05-16T06:47:13Z</time>
      </trkpt>
      <trkpt lat="43.64281" lon="3.36535">
        <ele>188.2</ele>
        <time>2016-05-16T06:47:16Z</time>
      </trkpt>
      <trkpt lat="43.6428" lon="3.36523">
        <ele>187.3</ele>
        <time>2016-05-16T06:47:18Z</time>
      </trkpt>
      <trkpt lat="43.64283" lon="3.36513">
        <ele>185.5</ele>
        <time>2016-05-16T06:47:20Z</time>
      </trkpt>
      <trkpt lat="43.64283" lon="3.36502">
        <ele>185</ele>
        <time>2016-05-16T06:47:22Z</time>
      </trkpt>
      <trkpt lat="43.64284" lon="3.36489">
        <ele>185.1</ele>
        <time>2016-05-16T06:47:24Z</time>
      </trkpt>
      <trkpt lat="43.64286" lon="3.36475">
        <ele>186</ele>
        <time>2016-05-16T06:47:26Z</time>
      </trkpt>
      <trkpt lat="43.64288" lon="3.36463">
        <ele>186.5</ele>
        <time>2016-05-16T06:47:28Z</time>
      </trkpt>
      <trkpt lat="43.6429" lon="3.3645">
        <ele>186.9</ele>
        <time>2016-05-16T06:47:30Z</time>
      </trkpt>
      <trkpt lat="43.64291" lon="3.36439">
        <ele>187.6</ele>
        <time>2016-05-16T06:47:32Z</time>
      </trkpt>
      <trkpt lat="43.64292" lon="3.36428">
        <ele>187.7</ele>
        <time>2016-05-16T06:47:34Z</time>
      </trkpt>
      <trkpt lat="43.64297" lon="3.36414">
        <ele>188.2</ele>
        <time>2016-05-16T06:47:38Z</time>
      </trkpt>
      <trkpt lat="43.64298" lon="3.36403">
        <ele>188.5</ele>
        <time>2016-05-16T06:47:41Z</time>
      </trkpt>
      <trkpt lat="43.643" lon="3.36391">
        <ele>188.8</ele>
        <time>2016-05-16T06:47:45Z</time>
      </trkpt>
      <trkpt lat="43.64303" lon="3.36381">
        <ele>189.3</ele>
        <time>2016-05-16T06:47:48Z</time>
      </trkpt>
      <trkpt lat="43.64305" lon="3.3637">
        <ele>189.7</ele>
        <time>2016-05-16T06:47:50Z</time>
      </trkpt>
      <trkpt lat="43.64303" lon="3.3636">
        <ele>190</ele>
        <time>2016-05-16T06:47:53Z</time>
      </trkpt>
      <trkpt lat="43.64299" lon="3.3635">
        <ele>190.3</ele>
        <time>2016-05-16T06:47:57Z</time>
      </trkpt>
      <trkpt lat="43.64297" lon="3.3634">
        <ele>190.4</ele>
        <time>2016-05-16T06:48:00Z</time>
      </trkpt>
      <trkpt lat="43.64294" lon="3.36327">
        <ele>190.5</ele>
        <time>2016-05-16T06:48:04Z</time>
      </trkpt>
      <trkpt lat="43.64295" lon="3.36316">
        <ele>190.8</ele>
        <time>2016-05-16T06:48:07Z</time>
      </trkpt>
      <trkpt lat="43.64294" lon="3.36305">
        <ele>191.1</ele>
        <time>2016-05-16T06:48:10Z</time>
      </trkpt>
      <trkpt lat="43.64295" lon="3.36292">
        <ele>191.5</ele>
        <time>2016-05-16T06:48:13Z</time>
      </trkpt>
      <trkpt lat="43.64294" lon="3.3628">
        <ele>191.8</ele>
        <time>2016-05-16T06:48:16Z</time>
      </trkpt>
      <trkpt lat="43.64292" lon="3.36269">
        <ele>192.1</ele>
        <time>2016-05-16T06:48:19Z</time>
      </trkpt>
      <trkpt lat="43.64292" lon="3.36258">
        <ele>192.5</ele>
        <time>2016-05-16T06:48:22Z</time>
      </trkpt>
      <trkpt lat="43.64293" lon="3.36246">
        <ele>193.1</ele>
        <time>2016-05-16T06:48:26Z</time>
      </trkpt>
      <trkpt lat="43.64295" lon="3.36235">
        <ele>193.7</ele>
        <time>2016-05-16T06:48:30Z</time>
      </trkpt>
      <trkpt lat="43.64296" lon="3.36222">
        <ele>194.3</ele>
        <time>2016-05-16T06:48:34Z</time>
      </trkpt>
      <trkpt lat="43.64294" lon="3.36211">
        <ele>194.8</ele>
        <time>2016-05-16T06:48:37Z</time>
      </trkpt>
      <trkpt lat="43.64292" lon="3.36201">
        <ele>195.3</ele>
        <time>2016-05-16T06:48:40Z</time>
      </trkpt>
      <trkpt lat="43.64295" lon="3.3619">
        <ele>196.1</ele>
        <time>2016-05-16T06:48:44Z</time>
      </trkpt>
      <trkpt lat="43.643" lon="3.36183">
        <ele>196.9</ele>
        <time>2016-05-16T06:48:47Z</time>
      </trkpt>
      <trkpt lat="43.64309" lon="3.36171">
        <ele>200.9</ele>
        <time>2016-05-16T06:48:50Z</time>
      </trkpt>
      <trkpt lat="43.64315" lon="3.36164">
        <ele>201.5</ele>
        <time>2016-05-16T06:48:53Z</time>
      </trkpt>
      <trkpt lat="43.64321" lon="3.36158">
        <ele>202.2</ele>
        <time>2016-05-16T06:48:56Z</time>
      </trkpt>
      <trkpt lat="43.64328" lon="3.36157">
        <ele>202.5</ele>
        <time>2016-05-16T06:48:59Z</time>
      </trkpt>
      <trkpt lat="43.64338" lon="3.36156">
        <ele>202.7</ele>
        <time>2016-05-16T06:49:02Z</time>
      </trkpt>
      <trkpt lat="43.64346" lon="3.36152">
        <ele>203.1</ele>
        <time>2016-05-16T06:49:05Z</time>
      </trkpt>
      <trkpt lat="43.64352" lon="3.36145">
        <ele>204.1</ele>
        <time>2016-05-16T06:49:11Z</time>
      </trkpt>
      <trkpt lat="43.64361" lon="3.36138">
        <ele>204.5</ele>
        <time>2016-05-16T06:49:14Z</time>
      </trkpt>
      <trkpt lat="43.64367" lon="3.36132">
        <ele>205.3</ele>
        <time>2016-05-16T06:49:16Z</time>
      </trkpt>
      <trkpt lat="43.64376" lon="3.36125">
        <ele>205.4</ele>
        <time>2016-05-16T06:49:19Z</time>
      </trkpt>
      <trkpt lat="43.64387" lon="3.36122">
        <ele>205.4</ele>
        <time>2016-05-16T06:49:21Z</time>
      </trkpt>
      <trkpt lat="43.64399" lon="3.3612">
        <ele>206.4</ele>
        <time>2016-05-16T06:49:23Z</time>
      </trkpt>
      <trkpt lat="43.64409" lon="3.36109">
        <ele>206</ele>
        <time>2016-05-16T06:49:25Z</time>
      </trkpt>
      <trkpt lat="43.64417" lon="3.36097">
        <ele>206.8</ele>
        <time>2016-05-16T06:49:27Z</time>
      </trkpt>
      <trkpt lat="43.64424" lon="3.36086">
        <ele>207.4</ele>
        <time>2016-05-16T06:49:29Z</time>
      </trkpt>
      <trkpt lat="43.64432" lon="3.36079">
        <ele>207.3</ele>
        <time>2016-05-16T06:49:31Z</time>
      </trkpt>
      <trkpt lat="43.64441" lon="3.36073">
        <ele>207.8</ele>
        <time>2016-05-16T06:49:33Z</time>
      </trkpt>
      <trkpt lat="43.64452" lon="3.36071">
        <ele>207.7</ele>
        <time>2016-05-16T06:49:35Z</time>
      </trkpt>
      <trkpt lat="43.64463" lon="3.36067">
        <ele>206.8</ele>
        <time>2016-05-16T06:49:37Z</time>
      </trkpt>
      <trkpt lat="43.64472" lon="3.36061">
        <ele>206.3</ele>
        <time>2016-05-16T06:49:40Z</time>
      </trkpt>
      <trkpt lat="43.64482" lon="3.36056">
        <ele>205.8</ele>
        <time>2016-05-16T06:49:42Z</time>
      </trkpt>
      <trkpt lat="43.64492" lon="3.36047">
        <ele>204.9</ele>
        <time>2016-05-16T06:49:44Z</time>
      </trkpt>
      <trkpt lat="43.64504" lon="3.36038">
        <ele>205.1</ele>
        <time>2016-05-16T06:49:46Z</time>
      </trkpt>
      <trkpt lat="43.64516" lon="3.36033">
        <ele>204.6</ele>
        <time>2016-05-16T06:49:48Z</time>
      </trkpt>
      <trkpt lat="43.64529" lon="3.36027">
        <ele>204.2</ele>
        <time>2016-05-16T06:49:50Z</time>
      </trkpt>
      <trkpt lat="43.64542" lon="3.36021">
        <ele>202.8</ele>
        <time>2016-05-16T06:49:52Z</time>
      </trkpt>
      <trkpt lat="43.64554" lon="3.36017">
        <ele>201.9</ele>
        <time>2016-05-16T06:49:54Z</time>
      </trkpt>
      <trkpt lat="43.64567" lon="3.36014">
        <ele>200.9</ele>
        <time>2016-05-16T06:49:56Z</time>
      </trkpt>
      <trkpt lat="43.64574" lon="3.36015">
        <ele>200.3</ele>
        <time>2016-05-16T06:49:57Z</time>
      </trkpt>
      <trkpt lat="43.64587" lon="3.36018">
        <ele>200.2</ele>
        <time>2016-05-16T06:49:59Z</time>
      </trkpt>
      <trkpt lat="43.64596" lon="3.3603">
        <ele>199.4</ele>
        <time>2016-05-16T06:50:02Z</time>
      </trkpt>
      <trkpt lat="43.64604" lon="3.36041">
        <ele>198.3</ele>
        <time>2016-05-16T06:50:04Z</time>
      </trkpt>
      <trkpt lat="43.64613" lon="3.36034">
        <ele>197.2</ele>
        <time>2016-05-16T06:50:08Z</time>
      </trkpt>
      <trkpt lat="43.64619" lon="3.36027">
        <ele>197</ele>
        <time>2016-05-16T06:50:11Z</time>
      </trkpt>
      <trkpt lat="43.64624" lon="3.36019">
        <ele>196.8</ele>
        <time>2016-05-16T06:50:15Z</time>
      </trkpt>
      <trkpt lat="43.64629" lon="3.36011">
        <ele>196.3</ele>
        <time>2016-05-16T06:50:19Z</time>
      </trkpt>
      <trkpt lat="43.64632" lon="3.36006">
        <ele>195.8</ele>
        <time>2016-05-16T06:50:26Z</time>
      </trkpt>
      <trkpt lat="43.64638" lon="3.36002">
        <ele>194.7</ele>
        <time>2016-05-16T06:50:44Z</time>
      </trkpt>
      <trkpt lat="43.64645" lon="3.35997">
        <ele>194.5</ele>
        <time>2016-05-16T06:50:47Z</time>
      </trkpt>
      <trkpt lat="43.64653" lon="3.35993">
        <ele>194.6</ele>
        <time>2016-05-16T06:50:52Z</time>
      </trkpt>
      <trkpt lat="43.64659" lon="3.35999">
        <ele>194.6</ele>
        <time>2016-05-16T06:50:56Z</time>
      </trkpt>
      <trkpt lat="43.64663" lon="3.36009">
        <ele>195.1</ele>
        <time>2016-05-16T06:50:58Z</time>
      </trkpt>
      <trkpt lat="43.6467" lon="3.36018">
        <ele>196.1</ele>
        <time>2016-05-16T06:51:00Z</time>
      </trkpt>
      <trkpt lat="43.64676" lon="3.36027">
        <ele>194.6</ele>
        <time>2016-05-16T06:51:02Z</time>
      </trkpt>
      <trkpt lat="43.64683" lon="3.36036">
        <ele>193.6</ele>
        <time>2016-05-16T06:51:04Z</time>
      </trkpt>
      <trkpt lat="43.64688" lon="3.3605">
        <ele>193.5</ele>
        <time>2016-05-16T06:51:06Z</time>
      </trkpt>
      <trkpt lat="43.64694" lon="3.36058">
        <ele>192.5</ele>
        <time>2016-05-16T06:51:08Z</time>
      </trkpt>
      <trkpt lat="43.647" lon="3.36066">
        <ele>192.4</ele>
        <time>2016-05-16T06:51:10Z</time>
      </trkpt>
      <trkpt lat="43.64707" lon="3.36074">
        <ele>191.2</ele>
        <time>2016-05-16T06:51:12Z</time>
      </trkpt>
      <trkpt lat="43.64712" lon="3.36082">
        <ele>190.4</ele>
        <time>2016-05-16T06:51:14Z</time>
      </trkpt>
      <trkpt lat="43.64718" lon="3.36088">
        <ele>190</ele>
        <time>2016-05-16T06:51:16Z</time>
      </trkpt>
      <trkpt lat="43.64726" lon="3.36098">
        <ele>189.5</ele>
        <time>2016-05-16T06:51:18Z</time>
      </trkpt>
      <trkpt lat="43.64734" lon="3.36092">
        <ele>188.7</ele>
        <time>2016-05-16T06:51:20Z</time>
      </trkpt>
      <trkpt lat="43.64739" lon="3.36082">
        <ele>189.1</ele>
        <time>2016-05-16T06:51:22Z</time>
      </trkpt>
      <trkpt lat="43.64741" lon="3.36073">
        <ele>189.8</ele>
        <time>2016-05-16T06:51:24Z</time>
      </trkpt>
      <trkpt lat="43.64747" lon="3.36063">
        <ele>191</ele>
        <time>2016-05-16T06:51:26Z</time>
      </trkpt>
      <trkpt lat="43.64754" lon="3.36055">
        <ele>191.9</ele>
        <time>2016-05-16T06:51:28Z</time>
      </trkpt>
      <trkpt lat="43.64762" lon="3.36047">
        <ele>191.9</ele>
        <time>2016-05-16T06:51:31Z</time>
      </trkpt>
      <trkpt lat="43.64767" lon="3.36038">
        <ele>191.9</ele>
        <time>2016-05-16T06:51:33Z</time>
      </trkpt>
      <trkpt lat="43.6477" lon="3.36027">
        <ele>191.8</ele>
        <time>2016-05-16T06:51:35Z</time>
      </trkpt>
      <trkpt lat="43.64773" lon="3.36018">
        <ele>191.7</ele>
        <time>2016-05-16T06:51:37Z</time>
      </trkpt>
      <trkpt lat="43.64779" lon="3.36003">
        <ele>190.9</ele>
        <time>2016-05-16T06:51:40Z</time>
      </trkpt>
      <trkpt lat="43.64782" lon="3.35993">
        <ele>190.7</ele>
        <time>2016-05-16T06:51:42Z</time>
      </trkpt>
      <trkpt lat="43.64788" lon="3.3598">
        <ele>189.4</ele>
        <time>2016-05-16T06:51:45Z</time>
      </trkpt>
      <trkpt lat="43.64793" lon="3.35968">
        <ele>190.1</ele>
        <time>2016-05-16T06:51:48Z</time>
      </trkpt>
      <trkpt lat="43.64796" lon="3.35959">
        <ele>190.2</ele>
        <time>2016-05-16T06:51:50Z</time>
      </trkpt>
      <trkpt lat="43.648" lon="3.3595">
        <ele>191.6</ele>
        <time>2016-05-16T06:51:52Z</time>
      </trkpt>
      <trkpt lat="43.64808" lon="3.35937">
        <ele>192</ele>
        <time>2016-05-16T06:51:55Z</time>
      </trkpt>
      <trkpt lat="43.64813" lon="3.35928">
        <ele>192.4</ele>
        <time>2016-05-16T06:51:57Z</time>
      </trkpt>
      <trkpt lat="43.64817" lon="3.35918">
        <ele>192.9</ele>
        <time>2016-05-16T06:51:59Z</time>
      </trkpt>
      <trkpt lat="43.64821" lon="3.35908">
        <ele>194.9</ele>
        <time>2016-05-16T06:52:01Z</time>
      </trkpt>
      <trkpt lat="43.64824" lon="3.35897">
        <ele>195.4</ele>
        <time>2016-05-16T06:52:03Z</time>
      </trkpt>
      <trkpt lat="43.64829" lon="3.35884">
        <ele>194.8</ele>
        <time>2016-05-16T06:52:05Z</time>
      </trkpt>
      <trkpt lat="43.64833" lon="3.35872">
        <ele>193.7</ele>
        <time>2016-05-16T06:52:07Z</time>
      </trkpt>
      <trkpt lat="43.64836" lon="3.35858">
        <ele>192.9</ele>
        <time>2016-05-16T06:52:09Z</time>
      </trkpt>
      <trkpt lat="43.6484" lon="3.35844">
        <ele>192.1</ele>
        <time>2016-05-16T06:52:11Z</time>
      </trkpt>
      <trkpt lat="43.64843" lon="3.35831">
        <ele>191.8</ele>
        <time>2016-05-16T06:52:13Z</time>
      </trkpt>
      <trkpt lat="43.64846" lon="3.35815">
        <ele>191.8</ele>
        <time>2016-05-16T06:52:15Z</time>
      </trkpt>
      <trkpt lat="43.64849" lon="3.35805">
        <ele>191.7</ele>
        <time>2016-05-16T06:52:17Z</time>
      </trkpt>
      <trkpt lat="43.64852" lon="3.35795">
        <ele>191.5</ele>
        <time>2016-05-16T06:52:20Z</time>
      </trkpt>
      <trkpt lat="43.64853" lon="3.35792">
        <ele>191.5</ele>
        <time>2016-05-16T06:52:27Z</time>
      </trkpt>
      <trkpt lat="43.64859" lon="3.35786">
        <ele>191.2</ele>
        <time>2016-05-16T06:52:32Z</time>
      </trkpt>
      <trkpt lat="43.64867" lon="3.35782">
        <ele>191.3</ele>
        <time>2016-05-16T06:52:36Z</time>
      </trkpt>
      <trkpt lat="43.64871" lon="3.35774">
        <ele>191</ele>
        <time>2016-05-16T06:52:42Z</time>
      </trkpt>
      <trkpt lat="43.64875" lon="3.35762">
        <ele>191</ele>
        <time>2016-05-16T06:52:46Z</time>
      </trkpt>
      <trkpt lat="43.64875" lon="3.35747">
        <ele>191.1</ele>
        <time>2016-05-16T06:52:50Z</time>
      </trkpt>
      <trkpt lat="43.64882" lon="3.35738">
        <ele>191.3</ele>
        <time>2016-05-16T06:52:53Z</time>
      </trkpt>
      <trkpt lat="43.6489" lon="3.35728">
        <ele>191.6</ele>
        <time>2016-05-16T06:52:56Z</time>
      </trkpt>
      <trkpt lat="43.64895" lon="3.35721">
        <ele>192.2</ele>
        <time>2016-05-16T06:52:58Z</time>
      </trkpt>
      <trkpt lat="43.64902" lon="3.35711">
        <ele>192.3</ele>
        <time>2016-05-16T06:53:00Z</time>
      </trkpt>
      <trkpt lat="43.64908" lon="3.35702">
        <ele>193.9</ele>
        <time>2016-05-16T06:53:02Z</time>
      </trkpt>
      <trkpt lat="43.64913" lon="3.35691">
        <ele>193.2</ele>
        <time>2016-05-16T06:53:04Z</time>
      </trkpt>
      <trkpt lat="43.64918" lon="3.35682">
        <ele>191.8</ele>
        <time>2016-05-16T06:53:06Z</time>
      </trkpt>
      <trkpt lat="43.64925" lon="3.35675">
        <ele>190.8</ele>
        <time>2016-05-16T06:53:08Z</time>
      </trkpt>
      <trkpt lat="43.64935" lon="3.35672">
        <ele>190.2</ele>
        <time>2016-05-16T06:53:10Z</time>
      </trkpt>
      <trkpt lat="43.64944" lon="3.3567">
        <ele>189.7</ele>
        <time>2016-05-16T06:53:12Z</time>
      </trkpt>
      <trkpt lat="43.64953" lon="3.35665">
        <ele>189.2</ele>
        <time>2016-05-16T06:53:14Z</time>
      </trkpt>
      <trkpt lat="43.64962" lon="3.35655">
        <ele>188.8</ele>
        <time>2016-05-16T06:53:16Z</time>
      </trkpt>
      <trkpt lat="43.64966" lon="3.35642">
        <ele>189.4</ele>
        <time>2016-05-16T06:53:18Z</time>
      </trkpt>
      <trkpt lat="43.6497" lon="3.3563">
        <ele>189.8</ele>
        <time>2016-05-16T06:53:20Z</time>
      </trkpt>
      <trkpt lat="43.64973" lon="3.35618">
        <ele>190.7</ele>
        <time>2016-05-16T06:53:22Z</time>
      </trkpt>
      <trkpt lat="43.64976" lon="3.35606">
        <ele>192.7</ele>
        <time>2016-05-16T06:53:24Z</time>
      </trkpt>
      <trkpt lat="43.64978" lon="3.35594">
        <ele>194.1</ele>
        <time>2016-05-16T06:53:26Z</time>
      </trkpt>
      <trkpt lat="43.64981" lon="3.35584">
        <ele>194</ele>
        <time>2016-05-16T06:53:28Z</time>
      </trkpt>
      <trkpt lat="43.64984" lon="3.3557">
        <ele>194</ele>
        <time>2016-05-16T06:53:30Z</time>
      </trkpt>
      <trkpt lat="43.64987" lon="3.35556">
        <ele>193.5</ele>
        <time>2016-05-16T06:53:32Z</time>
      </trkpt>
      <trkpt lat="43.6499" lon="3.35542">
        <ele>192.5</ele>
        <time>2016-05-16T06:53:34Z</time>
      </trkpt>
      <trkpt lat="43.64994" lon="3.35528">
        <ele>192.2</ele>
        <time>2016-05-16T06:53:36Z</time>
      </trkpt>
      <trkpt lat="43.64993" lon="3.35513">
        <ele>191.9</ele>
        <time>2016-05-16T06:53:38Z</time>
      </trkpt>
      <trkpt lat="43.64987" lon="3.35502">
        <ele>191.3</ele>
        <time>2016-05-16T06:53:40Z</time>
      </trkpt>
      <trkpt lat="43.64979" lon="3.35497">
        <ele>190.6</ele>
        <time>2016-05-16T06:53:42Z</time>
      </trkpt>
      <trkpt lat="43.6497" lon="3.35492">
        <ele>189.1</ele>
        <time>2016-05-16T06:53:44Z</time>
      </trkpt>
      <trkpt lat="43.64958" lon="3.35487">
        <ele>188.7</ele>
        <time>2016-05-16T06:53:46Z</time>
      </trkpt>
      <trkpt lat="43.64947" lon="3.35482">
        <ele>188.3</ele>
        <time>2016-05-16T06:53:48Z</time>
      </trkpt>
      <trkpt lat="43.64936" lon="3.35476">
        <ele>188.4</ele>
        <time>2016-05-16T06:53:50Z</time>
      </trkpt>
      <trkpt lat="43.64929" lon="3.35468">
        <ele>188.1</ele>
        <time>2016-05-16T06:53:52Z</time>
      </trkpt>
      <trkpt lat="43.64923" lon="3.35457">
        <ele>187</ele>
        <time>2016-05-16T06:53:54Z</time>
      </trkpt>
      <trkpt lat="43.64916" lon="3.35447">
        <ele>186.7</ele>
        <time>2016-05-16T06:53:56Z</time>
      </trkpt>
      <trkpt lat="43.64912" lon="3.35435">
        <ele>187.1</ele>
        <time>2016-05-16T06:53:58Z</time>
      </trkpt>
      <trkpt lat="43.64912" lon="3.35418">
        <ele>187.3</ele>
        <time>2016-05-16T06:54:00Z</time>
      </trkpt>
      <trkpt lat="43.64919" lon="3.35408">
        <ele>189</ele>
        <time>2016-05-16T06:54:02Z</time>
      </trkpt>
      <trkpt lat="43.64927" lon="3.35398">
        <ele>190.7</ele>
        <time>2016-05-16T06:54:04Z</time>
      </trkpt>
      <trkpt lat="43.64934" lon="3.35387">
        <ele>191.5</ele>
        <time>2016-05-16T06:54:06Z</time>
      </trkpt>
      <trkpt lat="43.6494" lon="3.35372">
        <ele>192.5</ele>
        <time>2016-05-16T06:54:08Z</time>
      </trkpt>
      <trkpt lat="43.64943" lon="3.35358">
        <ele>193.1</ele>
        <time>2016-05-16T06:54:10Z</time>
      </trkpt>
      <trkpt lat="43.64943" lon="3.35344">
        <ele>191.5</ele>
        <time>2016-05-16T06:54:12Z</time>
      </trkpt>
      <trkpt lat="43.64938" lon="3.35331">
        <ele>189.4</ele>
        <time>2016-05-16T06:54:14Z</time>
      </trkpt>
      <trkpt lat="43.64933" lon="3.3532">
        <ele>188.7</ele>
        <time>2016-05-16T06:54:16Z</time>
      </trkpt>
      <trkpt lat="43.64925" lon="3.35309">
        <ele>188.2</ele>
        <time>2016-05-16T06:54:18Z</time>
      </trkpt>
      <trkpt lat="43.64919" lon="3.35296">
        <ele>187.7</ele>
        <time>2016-05-16T06:54:20Z</time>
      </trkpt>
      <trkpt lat="43.64917" lon="3.35282">
        <ele>188.1</ele>
        <time>2016-05-16T06:54:22Z</time>
      </trkpt>
      <trkpt lat="43.64918" lon="3.35267">
        <ele>187.2</ele>
        <time>2016-05-16T06:54:24Z</time>
      </trkpt>
      <trkpt lat="43.64921" lon="3.35252">
        <ele>186.7</ele>
        <time>2016-05-16T06:54:26Z</time>
      </trkpt>
      <trkpt lat="43.64924" lon="3.35239">
        <ele>186.2</ele>
        <time>2016-05-16T06:54:28Z</time>
      </trkpt>
      <trkpt lat="43.64927" lon="3.35225">
        <ele>184.7</ele>
        <time>2016-05-16T06:54:30Z</time>
      </trkpt>
      <trkpt lat="43.64927" lon="3.35212">
        <ele>183.9</ele>
        <time>2016-05-16T06:54:32Z</time>
      </trkpt>
      <trkpt lat="43.64926" lon="3.35199">
        <ele>183.2</ele>
        <time>2016-05-16T06:54:34Z</time>
      </trkpt>
      <trkpt lat="43.64918" lon="3.35188">
        <ele>183.4</ele>
        <time>2016-05-16T06:54:36Z</time>
      </trkpt>
      <trkpt lat="43.64907" lon="3.35181">
        <ele>183.7</ele>
        <time>2016-05-16T06:54:38Z</time>
      </trkpt>
      <trkpt lat="43.64897" lon="3.35175">
        <ele>185.2</ele>
        <time>2016-05-16T06:54:40Z</time>
      </trkpt>
      <trkpt lat="43.64888" lon="3.35171">
        <ele>185.7</ele>
        <time>2016-05-16T06:54:42Z</time>
      </trkpt>
      <trkpt lat="43.64879" lon="3.35163">
        <ele>185.3</ele>
        <time>2016-05-16T06:54:44Z</time>
      </trkpt>
      <trkpt lat="43.64874" lon="3.35153">
        <ele>185.1</ele>
        <time>2016-05-16T06:54:46Z</time>
      </trkpt>
      <trkpt lat="43.64871" lon="3.35142">
        <ele>184.6</ele>
        <time>2016-05-16T06:54:48Z</time>
      </trkpt>
      <trkpt lat="43.64866" lon="3.35129">
        <ele>184.3</ele>
        <time>2016-05-16T06:54:50Z</time>
      </trkpt>
      <trkpt lat="43.64864" lon="3.35117">
        <ele>183</ele>
        <time>2016-05-16T06:54:52Z</time>
      </trkpt>
      <trkpt lat="43.64863" lon="3.35105">
        <ele>181.7</ele>
        <time>2016-05-16T06:54:54Z</time>
      </trkpt>
      <trkpt lat="43.64864" lon="3.35094">
        <ele>181.6</ele>
        <time>2016-05-16T06:54:56Z</time>
      </trkpt>
      <trkpt lat="43.64867" lon="3.35085">
        <ele>182.2</ele>
        <time>2016-05-16T06:55:01Z</time>
      </trkpt>
      <trkpt lat="43.64869" lon="3.35072">
        <ele>182.7</ele>
        <time>2016-05-16T06:55:05Z</time>
      </trkpt>
      <trkpt lat="43.64868" lon="3.3506">
        <ele>183.1</ele>
        <time>2016-05-16T06:55:08Z</time>
      </trkpt>
      <trkpt lat="43.64862" lon="3.35053">
        <ele>183.5</ele>
        <time>2016-05-16T06:55:11Z</time>
      </trkpt>
      <trkpt lat="43.64855" lon="3.35046">
        <ele>183.9</ele>
        <time>2016-05-16T06:55:14Z</time>
      </trkpt>
      <trkpt lat="43.6485" lon="3.35033">
        <ele>185.5</ele>
        <time>2016-05-16T06:55:17Z</time>
      </trkpt>
      <trkpt lat="43.6485" lon="3.35022">
        <ele>185.8</ele>
        <time>2016-05-16T06:55:20Z</time>
      </trkpt>
      <trkpt lat="43.64849" lon="3.35009">
        <ele>186.2</ele>
        <time>2016-05-16T06:55:23Z</time>
      </trkpt>
      <trkpt lat="43.6485" lon="3.34999">
        <ele>186.6</ele>
        <time>2016-05-16T06:55:25Z</time>
      </trkpt>
      <trkpt lat="43.64855" lon="3.34989">
        <ele>187.6</ele>
        <time>2016-05-16T06:55:27Z</time>
      </trkpt>
      <trkpt lat="43.64855" lon="3.34978">
        <ele>187.8</ele>
        <time>2016-05-16T06:55:29Z</time>
      </trkpt>
      <trkpt lat="43.64855" lon="3.34968">
        <ele>189.4</ele>
        <time>2016-05-16T06:55:31Z</time>
      </trkpt>
      <trkpt lat="43.64852" lon="3.34958">
        <ele>190.4</ele>
        <time>2016-05-16T06:55:33Z</time>
      </trkpt>
      <trkpt lat="43.64845" lon="3.34948">
        <ele>190.8</ele>
        <time>2016-05-16T06:55:39Z</time>
      </trkpt>
      <trkpt lat="43.64836" lon="3.34945">
        <ele>191</ele>
        <time>2016-05-16T06:55:42Z</time>
      </trkpt>
      <trkpt lat="43.64826" lon="3.34945">
        <ele>191.2</ele>
        <time>2016-05-16T06:55:46Z</time>
      </trkpt>
      <trkpt lat="43.64818" lon="3.34947">
        <ele>191.3</ele>
        <time>2016-05-16T06:55:49Z</time>
      </trkpt>
      <trkpt lat="43.64811" lon="3.34952">
        <ele>193.5</ele>
        <time>2016-05-16T06:55:52Z</time>
      </trkpt>
      <trkpt lat="43.64803" lon="3.34954">
        <ele>193.9</ele>
        <time>2016-05-16T06:55:54Z</time>
      </trkpt>
      <trkpt lat="43.64793" lon="3.34955">
        <ele>193.7</ele>
        <time>2016-05-16T06:55:56Z</time>
      </trkpt>
      <trkpt lat="43.64783" lon="3.34951">
        <ele>194.5</ele>
        <time>2016-05-16T06:55:58Z</time>
      </trkpt>
      <trkpt lat="43.64774" lon="3.34948">
        <ele>193.8</ele>
        <time>2016-05-16T06:56:00Z</time>
      </trkpt>
      <trkpt lat="43.64764" lon="3.34943">
        <ele>194</ele>
        <time>2016-05-16T06:56:03Z</time>
      </trkpt>
      <trkpt lat="43.64754" lon="3.34943">
        <ele>194</ele>
        <time>2016-05-16T06:56:06Z</time>
      </trkpt>
      <trkpt lat="43.64746" lon="3.34943">
        <ele>194</ele>
        <time>2016-05-16T06:56:08Z</time>
      </trkpt>
      <trkpt lat="43.64737" lon="3.34941">
        <ele>193.9</ele>
        <time>2016-05-16T06:56:11Z</time>
      </trkpt>
      <trkpt lat="43.64729" lon="3.34942">
        <ele>193.9</ele>
        <time>2016-05-16T06:56:14Z</time>
      </trkpt>
      <trkpt lat="43.6472" lon="3.34935">
        <ele>193.9</ele>
        <time>2016-05-16T06:56:17Z</time>
      </trkpt>
      <trkpt lat="43.64717" lon="3.34924">
        <ele>193.5</ele>
        <time>2016-05-16T06:56:19Z</time>
      </trkpt>
      <trkpt lat="43.64717" lon="3.3491">
        <ele>193.4</ele>
        <time>2016-05-16T06:56:21Z</time>
      </trkpt>
      <trkpt lat="43.6472" lon="3.34898">
        <ele>193.2</ele>
        <time>2016-05-16T06:56:23Z</time>
      </trkpt>
      <trkpt lat="43.64723" lon="3.34887">
        <ele>193.9</ele>
        <time>2016-05-16T06:56:25Z</time>
      </trkpt>
      <trkpt lat="43.64724" lon="3.34874">
        <ele>194.1</ele>
        <time>2016-05-16T06:56:27Z</time>
      </trkpt>
      <trkpt lat="43.64726" lon="3.34863">
        <ele>193.6</ele>
        <time>2016-05-16T06:56:29Z</time>
      </trkpt>
      <trkpt lat="43.64729" lon="3.34849">
        <ele>192</ele>
        <time>2016-05-16T06:56:32Z</time>
      </trkpt>
      <trkpt lat="43.6473" lon="3.34838">
        <ele>190.9</ele>
        <time>2016-05-16T06:56:34Z</time>
      </trkpt>
      <trkpt lat="43.64731" lon="3.34826">
        <ele>189.6</ele>
        <time>2016-05-16T06:56:36Z</time>
      </trkpt>
      <trkpt lat="43.64732" lon="3.34813">
        <ele>189.6</ele>
        <time>2016-05-16T06:56:38Z</time>
      </trkpt>
      <trkpt lat="43.64732" lon="3.34798">
        <ele>190</ele>
        <time>2016-05-16T06:56:40Z</time>
      </trkpt>
      <trkpt lat="43.64733" lon="3.34784">
        <ele>190.4</ele>
        <time>2016-05-16T06:56:42Z</time>
      </trkpt>
      <trkpt lat="43.64735" lon="3.34769">
        <ele>190.2</ele>
        <time>2016-05-16T06:56:44Z</time>
      </trkpt>
      <trkpt lat="43.64737" lon="3.34757">
        <ele>190.9</ele>
        <time>2016-05-16T06:56:46Z</time>
      </trkpt>
      <trkpt lat="43.64737" lon="3.34746">
        <ele>191</ele>
        <time>2016-05-16T06:56:48Z</time>
      </trkpt>
      <trkpt lat="43.64735" lon="3.34736">
        <ele>191.3</ele>
        <time>2016-05-16T06:56:50Z</time>
      </trkpt>
      <trkpt lat="43.64735" lon="3.34724">
        <ele>192.4</ele>
        <time>2016-05-16T06:56:52Z</time>
      </trkpt>
      <trkpt lat="43.64734" lon="3.34714">
        <ele>193.1</ele>
        <time>2016-05-16T06:56:54Z</time>
      </trkpt>
      <trkpt lat="43.64731" lon="3.34705">
        <ele>193.8</ele>
        <time>2016-05-16T06:56:56Z</time>
      </trkpt>
      <trkpt lat="43.6473" lon="3.34693">
        <ele>194.7</ele>
        <time>2016-05-16T06:56:58Z</time>
      </trkpt>
      <trkpt lat="43.64728" lon="3.34683">
        <ele>194.5</ele>
        <time>2016-05-16T06:57:00Z</time>
      </trkpt>
      <trkpt lat="43.64726" lon="3.34673">
        <ele>194.5</ele>
        <time>2016-05-16T06:57:02Z</time>
      </trkpt>
      <trkpt lat="43.64727" lon="3.34659">
        <ele>194.7</ele>
        <time>2016-05-16T06:57:05Z</time>
      </trkpt>
      <trkpt lat="43.64728" lon="3.34647">
        <ele>194.9</ele>
        <time>2016-05-16T06:57:08Z</time>
      </trkpt>
      <trkpt lat="43.64722" lon="3.34633">
        <ele>194.6</ele>
        <time>2016-05-16T06:57:12Z</time>
      </trkpt>
      <trkpt lat="43.64722" lon="3.34623">
        <ele>194.5</ele>
        <time>2016-05-16T06:57:14Z</time>
      </trkpt>
      <trkpt lat="43.64724" lon="3.34608">
        <ele>194.9</ele>
        <time>2016-05-16T06:57:17Z</time>
      </trkpt>
      <trkpt lat="43.64727" lon="3.34598">
        <ele>195</ele>
        <time>2016-05-16T06:57:19Z</time>
      </trkpt>
      <trkpt lat="43.64726" lon="3.34586">
        <ele>194.9</ele>
        <time>2016-05-16T06:57:23Z</time>
      </trkpt>
      <trkpt lat="43.6473" lon="3.34576">
        <ele>195</ele>
        <time>2016-05-16T06:57:26Z</time>
      </trkpt>
      <trkpt lat="43.64734" lon="3.34567">
        <ele>194.9</ele>
        <time>2016-05-16T06:57:30Z</time>
      </trkpt>
      <trkpt lat="43.64735" lon="3.34554">
        <ele>195.1</ele>
        <time>2016-05-16T06:57:33Z</time>
      </trkpt>
      <trkpt lat="43.64734" lon="3.34544">
        <ele>195.1</ele>
        <time>2016-05-16T06:57:35Z</time>
      </trkpt>
      <trkpt lat="43.64734" lon="3.3453">
        <ele>195</ele>
        <time>2016-05-16T06:57:38Z</time>
      </trkpt>
      <trkpt lat="43.64734" lon="3.34519">
        <ele>195.3</ele>
        <time>2016-05-16T06:57:40Z</time>
      </trkpt>
      <trkpt lat="43.64733" lon="3.34506">
        <ele>194.9</ele>
        <time>2016-05-16T06:57:42Z</time>
      </trkpt>
      <trkpt lat="43.64735" lon="3.34494">
        <ele>194.8</ele>
        <time>2016-05-16T06:57:44Z</time>
      </trkpt>
      <trkpt lat="43.64736" lon="3.34483">
        <ele>194.7</ele>
        <time>2016-05-16T06:57:46Z</time>
      </trkpt>
      <trkpt lat="43.64737" lon="3.34469">
        <ele>194.7</ele>
        <time>2016-05-16T06:57:49Z</time>
      </trkpt>
      <trkpt lat="43.64737" lon="3.34459">
        <ele>195</ele>
        <time>2016-05-16T06:57:51Z</time>
      </trkpt>
      <trkpt lat="43.64739" lon="3.34448">
        <ele>194.7</ele>
        <time>2016-05-16T06:57:53Z</time>
      </trkpt>
      <trkpt lat="43.64739" lon="3.34435">
        <ele>194</ele>
        <time>2016-05-16T06:57:56Z</time>
      </trkpt>
      <trkpt lat="43.64739" lon="3.34425">
        <ele>193.9</ele>
        <time>2016-05-16T06:57:59Z</time>
      </trkpt>
      <trkpt lat="43.6474" lon="3.3441">
        <ele>193.6</ele>
        <time>2016-05-16T06:58:01Z</time>
      </trkpt>
      <trkpt lat="43.64743" lon="3.34398">
        <ele>194.6</ele>
        <time>2016-05-16T06:58:03Z</time>
      </trkpt>
      <trkpt lat="43.6474" lon="3.34388">
        <ele>195</ele>
        <time>2016-05-16T06:58:05Z</time>
      </trkpt>
      <trkpt lat="43.64741" lon="3.34376">
        <ele>195.1</ele>
        <time>2016-05-16T06:58:08Z</time>
      </trkpt>
      <trkpt lat="43.64742" lon="3.34365">
        <ele>195.3</ele>
        <time>2016-05-16T06:58:11Z</time>
      </trkpt>
      <trkpt lat="43.64744" lon="3.34354">
        <ele>195.5</ele>
        <time>2016-05-16T06:58:14Z</time>
      </trkpt>
      <trkpt lat="43.64748" lon="3.34343">
        <ele>195.8</ele>
        <time>2016-05-16T06:58:17Z</time>
      </trkpt>
      <trkpt lat="43.64751" lon="3.34329">
        <ele>196.3</ele>
        <time>2016-05-16T06:58:21Z</time>
      </trkpt>
      <trkpt lat="43.64753" lon="3.34318">
        <ele>196.7</ele>
        <time>2016-05-16T06:58:24Z</time>
      </trkpt>
      <trkpt lat="43.64752" lon="3.34308">
        <ele>197.9</ele>
        <time>2016-05-16T06:58:27Z</time>
      </trkpt>
      <trkpt lat="43.64749" lon="3.34298">
        <ele>198.6</ele>
        <time>2016-05-16T06:58:29Z</time>
      </trkpt>
      <trkpt lat="43.64747" lon="3.34285">
        <ele>198.7</ele>
        <time>2016-05-16T06:58:32Z</time>
      </trkpt>
      <trkpt lat="43.64744" lon="3.34273">
        <ele>199.1</ele>
        <time>2016-05-16T06:58:34Z</time>
      </trkpt>
      <trkpt lat="43.64741" lon="3.3426">
        <ele>199</ele>
        <time>2016-05-16T06:58:37Z</time>
      </trkpt>
      <trkpt lat="43.64742" lon="3.34248">
        <ele>199</ele>
        <time>2016-05-16T06:58:40Z</time>
      </trkpt>
      <trkpt lat="43.64743" lon="3.34235">
        <ele>199</ele>
        <time>2016-05-16T06:58:43Z</time>
      </trkpt>
      <trkpt lat="43.64745" lon="3.34224">
        <ele>199.4</ele>
        <time>2016-05-16T06:58:46Z</time>
      </trkpt>
      <trkpt lat="43.64744" lon="3.34213">
        <ele>200</ele>
        <time>2016-05-16T06:58:50Z</time>
      </trkpt>
      <trkpt lat="43.64743" lon="3.34202">
        <ele>200.6</ele>
        <time>2016-05-16T06:58:55Z</time>
      </trkpt>
      <trkpt lat="43.64744" lon="3.34192">
        <ele>201.5</ele>
        <time>2016-05-16T06:59:01Z</time>
      </trkpt>
      <trkpt lat="43.64748" lon="3.34182">
        <ele>202.4</ele>
        <time>2016-05-16T06:59:05Z</time>
      </trkpt>
      <trkpt lat="43.64751" lon="3.34173">
        <ele>203.2</ele>
        <time>2016-05-16T06:59:08Z</time>
      </trkpt>
      <trkpt lat="43.64753" lon="3.3417">
        <ele>204.1</ele>
        <time>2016-05-16T06:59:15Z</time>
      </trkpt>
      <trkpt lat="43.64748" lon="3.34174">
        <ele>207.3</ele>
        <time>2016-05-16T06:59:37Z</time>
      </trkpt>
      <trkpt lat="43.64749" lon="3.34171">
        <ele>207</ele>
        <time>2016-05-16T06:59:44Z</time>
      </trkpt>
      <trkpt lat="43.64752" lon="3.3417">
        <ele>206.6</ele>
        <time>2016-05-16T06:59:56Z</time>
      </trkpt>
      <trkpt lat="43.64751" lon="3.34175">
        <ele>207.3</ele>
        <time>2016-05-16T07:00:29Z</time>
      </trkpt>
      <trkpt lat="43.64753" lon="3.34164">
        <ele>207.5</ele>
        <time>2016-05-16T07:00:32Z</time>
      </trkpt>
      <trkpt lat="43.64754" lon="3.34153">
        <ele>208.5</ele>
        <time>2016-05-16T07:00:34Z</time>
      </trkpt>
      <trkpt lat="43.64758" lon="3.34143">
        <ele>209</ele>
        <time>2016-05-16T07:00:36Z</time>
      </trkpt>
      <trkpt lat="43.64761" lon="3.34132">
        <ele>210</ele>
        <time>2016-05-16T07:00:38Z</time>
      </trkpt>
      <trkpt lat="43.64762" lon="3.34121">
        <ele>209.9</ele>
        <time>2016-05-16T07:00:40Z</time>
      </trkpt>
      <trkpt lat="43.64763" lon="3.34108">
        <ele>209.8</ele>
        <time>2016-05-16T07:00:43Z</time>
      </trkpt>
      <trkpt lat="43.64766" lon="3.34097">
        <ele>209.7</ele>
        <time>2016-05-16T07:00:45Z</time>
      </trkpt>
      <trkpt lat="43.64769" lon="3.34085">
        <ele>209.7</ele>
        <time>2016-05-16T07:00:47Z</time>
      </trkpt>
      <trkpt lat="43.64771" lon="3.34074">
        <ele>209.7</ele>
        <time>2016-05-16T07:00:50Z</time>
      </trkpt>
      <trkpt lat="43.64776" lon="3.34063">
        <ele>209.8</ele>
        <time>2016-05-16T07:00:52Z</time>
      </trkpt>
      <trkpt lat="43.64779" lon="3.34051">
        <ele>210.8</ele>
        <time>2016-05-16T07:00:55Z</time>
      </trkpt>
      <trkpt lat="43.64783" lon="3.3404">
        <ele>211.5</ele>
        <time>2016-05-16T07:00:57Z</time>
      </trkpt>
      <trkpt lat="43.64787" lon="3.34025">
        <ele>211.5</ele>
        <time>2016-05-16T07:00:59Z</time>
      </trkpt>
      <trkpt lat="43.64792" lon="3.34012">
        <ele>210.7</ele>
        <time>2016-05-16T07:01:01Z</time>
      </trkpt>
      <trkpt lat="43.64796" lon="3.34">
        <ele>210.5</ele>
        <time>2016-05-16T07:01:03Z</time>
      </trkpt>
      <trkpt lat="43.648" lon="3.33986">
        <ele>209.5</ele>
        <time>2016-05-16T07:01:05Z</time>
      </trkpt>
      <trkpt lat="43.64804" lon="3.33969">
        <ele>209.7</ele>
        <time>2016-05-16T07:01:07Z</time>
      </trkpt>
      <trkpt lat="43.64808" lon="3.33953">
        <ele>209.9</ele>
        <time>2016-05-16T07:01:09Z</time>
      </trkpt>
      <trkpt lat="43.64811" lon="3.33942">
        <ele>209.9</ele>
        <time>2016-05-16T07:01:11Z</time>
      </trkpt>
      <trkpt lat="43.64814" lon="3.33931">
        <ele>210.5</ele>
        <time>2016-05-16T07:01:13Z</time>
      </trkpt>
      <trkpt lat="43.64816" lon="3.33921">
        <ele>211</ele>
        <time>2016-05-16T07:01:15Z</time>
      </trkpt>
      <trkpt lat="43.64817" lon="3.33908">
        <ele>210.1</ele>
        <time>2016-05-16T07:01:17Z</time>
      </trkpt>
      <trkpt lat="43.64823" lon="3.33899">
        <ele>210.3</ele>
        <time>2016-05-16T07:01:19Z</time>
      </trkpt>
      <trkpt lat="43.64828" lon="3.33891">
        <ele>210.3</ele>
        <time>2016-05-16T07:01:21Z</time>
      </trkpt>
      <trkpt lat="43.6483" lon="3.3388">
        <ele>210.4</ele>
        <time>2016-05-16T07:01:24Z</time>
      </trkpt>
      <trkpt lat="43.64834" lon="3.33869">
        <ele>210.3</ele>
        <time>2016-05-16T07:01:27Z</time>
      </trkpt>
      <trkpt lat="43.64839" lon="3.33856">
        <ele>209.8</ele>
        <time>2016-05-16T07:01:30Z</time>
      </trkpt>
      <trkpt lat="43.64841" lon="3.33846">
        <ele>209.4</ele>
        <time>2016-05-16T07:01:32Z</time>
      </trkpt>
      <trkpt lat="43.64842" lon="3.33835">
        <ele>208.1</ele>
        <time>2016-05-16T07:01:34Z</time>
      </trkpt>
      <trkpt lat="43.64844" lon="3.33824">
        <ele>207</ele>
        <time>2016-05-16T07:01:36Z</time>
      </trkpt>
      <trkpt lat="43.64846" lon="3.3381">
        <ele>206.3</ele>
        <time>2016-05-16T07:01:38Z</time>
      </trkpt>
      <trkpt lat="43.64848" lon="3.33796">
        <ele>204.8</ele>
        <time>2016-05-16T07:01:40Z</time>
      </trkpt>
      <trkpt lat="43.6485" lon="3.33776">
        <ele>203.6</ele>
        <time>2016-05-16T07:01:42Z</time>
      </trkpt>
      <trkpt lat="43.64849" lon="3.33766">
        <ele>203.3</ele>
        <time>2016-05-16T07:01:43Z</time>
      </trkpt>
      <trkpt lat="43.64848" lon="3.33754">
        <ele>203.3</ele>
        <time>2016-05-16T07:01:44Z</time>
      </trkpt>
      <trkpt lat="43.64848" lon="3.33741">
        <ele>203.2</ele>
        <time>2016-05-16T07:01:45Z</time>
      </trkpt>
      <trkpt lat="43.6485" lon="3.3373">
        <ele>203.1</ele>
        <time>2016-05-16T07:01:46Z</time>
      </trkpt>
      <trkpt lat="43.64852" lon="3.3372">
        <ele>203.1</ele>
        <time>2016-05-16T07:01:47Z</time>
      </trkpt>
      <trkpt lat="43.64852" lon="3.337">
        <ele>201.8</ele>
        <time>2016-05-16T07:01:49Z</time>
      </trkpt>
      <trkpt lat="43.64852" lon="3.33681">
        <ele>200.5</ele>
        <time>2016-05-16T07:01:51Z</time>
      </trkpt>
      <trkpt lat="43.64853" lon="3.33666">
        <ele>199.6</ele>
        <time>2016-05-16T07:01:53Z</time>
      </trkpt>
      <trkpt lat="43.64853" lon="3.33653">
        <ele>198.9</ele>
        <time>2016-05-16T07:01:55Z</time>
      </trkpt>
      <trkpt lat="43.64853" lon="3.33641">
        <ele>198.8</ele>
        <time>2016-05-16T07:01:57Z</time>
      </trkpt>
      <trkpt lat="43.64851" lon="3.33628">
        <ele>198.9</ele>
        <time>2016-05-16T07:01:59Z</time>
      </trkpt>
      <trkpt lat="43.6485" lon="3.33615">
        <ele>198.4</ele>
        <time>2016-05-16T07:02:01Z</time>
      </trkpt>
      <trkpt lat="43.64851" lon="3.33603">
        <ele>198</ele>
        <time>2016-05-16T07:02:03Z</time>
      </trkpt>
      <trkpt lat="43.6485" lon="3.33593">
        <ele>197.9</ele>
        <time>2016-05-16T07:02:07Z</time>
      </trkpt>
      <trkpt lat="43.64852" lon="3.33581">
        <ele>197.6</ele>
        <time>2016-05-16T07:02:11Z</time>
      </trkpt>
      <trkpt lat="43.64852" lon="3.33567">
        <ele>197.4</ele>
        <time>2016-05-16T07:02:13Z</time>
      </trkpt>
      <trkpt lat="43.64851" lon="3.3355">
        <ele>196.8</ele>
        <time>2016-05-16T07:02:15Z</time>
      </trkpt>
      <trkpt lat="43.64852" lon="3.33534">
        <ele>195.9</ele>
        <time>2016-05-16T07:02:17Z</time>
      </trkpt>
      <trkpt lat="43.64851" lon="3.33522">
        <ele>195.8</ele>
        <time>2016-05-16T07:02:20Z</time>
      </trkpt>
      <trkpt lat="43.6485" lon="3.33509">
        <ele>196.1</ele>
        <time>2016-05-16T07:02:23Z</time>
      </trkpt>
      <trkpt lat="43.64848" lon="3.33498">
        <ele>195.1</ele>
        <time>2016-05-16T07:02:25Z</time>
      </trkpt>
      <trkpt lat="43.64845" lon="3.33482">
        <ele>193.7</ele>
        <time>2016-05-16T07:02:27Z</time>
      </trkpt>
      <trkpt lat="43.64843" lon="3.33469">
        <ele>193</ele>
        <time>2016-05-16T07:02:29Z</time>
      </trkpt>
      <trkpt lat="43.64842" lon="3.33456">
        <ele>193</ele>
        <time>2016-05-16T07:02:31Z</time>
      </trkpt>
      <trkpt lat="43.64841" lon="3.33446">
        <ele>192.7</ele>
        <time>2016-05-16T07:02:33Z</time>
      </trkpt>
      <trkpt lat="43.64841" lon="3.33434">
        <ele>192.7</ele>
        <time>2016-05-16T07:02:36Z</time>
      </trkpt>
      <trkpt lat="43.64842" lon="3.33421">
        <ele>192.6</ele>
        <time>2016-05-16T07:02:39Z</time>
      </trkpt>
      <trkpt lat="43.64842" lon="3.33408">
        <ele>192.5</ele>
        <time>2016-05-16T07:02:42Z</time>
      </trkpt>
      <trkpt lat="43.64841" lon="3.33393">
        <ele>192.5</ele>
        <time>2016-05-16T07:02:45Z</time>
      </trkpt>
      <trkpt lat="43.64841" lon="3.33382">
        <ele>192.1</ele>
        <time>2016-05-16T07:02:47Z</time>
      </trkpt>
      <trkpt lat="43.64841" lon="3.33367">
        <ele>191.5</ele>
        <time>2016-05-16T07:02:49Z</time>
      </trkpt>
      <trkpt lat="43.64841" lon="3.33355">
        <ele>191.2</ele>
        <time>2016-05-16T07:02:51Z</time>
      </trkpt>
      <trkpt lat="43.6484" lon="3.33344">
        <ele>191.2</ele>
        <time>2016-05-16T07:02:53Z</time>
      </trkpt>
      <trkpt lat="43.64839" lon="3.33333">
        <ele>190.6</ele>
        <time>2016-05-16T07:02:55Z</time>
      </trkpt>
      <trkpt lat="43.64838" lon="3.3332">
        <ele>191.3</ele>
        <time>2016-05-16T07:02:57Z</time>
      </trkpt>
      <trkpt lat="43.64837" lon="3.33306">
        <ele>191.3</ele>
        <time>2016-05-16T07:02:59Z</time>
      </trkpt>
      <trkpt lat="43.64836" lon="3.33292">
        <ele>191.7</ele>
        <time>2016-05-16T07:03:01Z</time>
      </trkpt>
      <trkpt lat="43.64836" lon="3.33281">
        <ele>192.4</ele>
        <time>2016-05-16T07:03:03Z</time>
      </trkpt>
      <trkpt lat="43.64835" lon="3.3327">
        <ele>192.8</ele>
        <time>2016-05-16T07:03:05Z</time>
      </trkpt>
      <trkpt lat="43.64833" lon="3.33259">
        <ele>192.8</ele>
        <time>2016-05-16T07:03:09Z</time>
      </trkpt>
      <trkpt lat="43.64832" lon="3.33246">
        <ele>193</ele>
        <time>2016-05-16T07:03:12Z</time>
      </trkpt>
      <trkpt lat="43.64834" lon="3.33233">
        <ele>193.1</ele>
        <time>2016-05-16T07:03:15Z</time>
      </trkpt>
      <trkpt lat="43.64834" lon="3.3322">
        <ele>193.2</ele>
        <time>2016-05-16T07:03:18Z</time>
      </trkpt>
      <trkpt lat="43.64832" lon="3.33209">
        <ele>193.2</ele>
        <time>2016-05-16T07:03:20Z</time>
      </trkpt>
      <trkpt lat="43.64831" lon="3.33194">
        <ele>193.6</ele>
        <time>2016-05-16T07:03:23Z</time>
      </trkpt>
      <trkpt lat="43.6483" lon="3.33181">
        <ele>194.2</ele>
        <time>2016-05-16T07:03:25Z</time>
      </trkpt>
      <trkpt lat="43.64827" lon="3.33166">
        <ele>192.8</ele>
        <time>2016-05-16T07:03:27Z</time>
      </trkpt>
      <trkpt lat="43.64823" lon="3.3315">
        <ele>192.4</ele>
        <time>2016-05-16T07:03:29Z</time>
      </trkpt>
      <trkpt lat="43.64821" lon="3.33134">
        <ele>191.2</ele>
        <time>2016-05-16T07:03:31Z</time>
      </trkpt>
      <trkpt lat="43.64819" lon="3.3312">
        <ele>190.7</ele>
        <time>2016-05-16T07:03:33Z</time>
      </trkpt>
      <trkpt lat="43.64813" lon="3.33109">
        <ele>188.6</ele>
        <time>2016-05-16T07:03:35Z</time>
      </trkpt>
      <trkpt lat="43.64804" lon="3.33099">
        <ele>187.3</ele>
        <time>2016-05-16T07:03:37Z</time>
      </trkpt>
      <trkpt lat="43.64798" lon="3.33092">
        <ele>186.2</ele>
        <time>2016-05-16T07:03:39Z</time>
      </trkpt>
      <trkpt lat="43.6479" lon="3.3309">
        <ele>185.7</ele>
        <time>2016-05-16T07:03:41Z</time>
      </trkpt>
      <trkpt lat="43.64784" lon="3.33081">
        <ele>185.8</ele>
        <time>2016-05-16T07:03:47Z</time>
      </trkpt>
      <trkpt lat="43.64781" lon="3.33071">
        <ele>185.8</ele>
        <time>2016-05-16T07:03:49Z</time>
      </trkpt>
      <trkpt lat="43.64774" lon="3.33063">
        <ele>185.5</ele>
        <time>2016-05-16T07:03:51Z</time>
      </trkpt>
      <trkpt lat="43.64768" lon="3.33055">
        <ele>185</ele>
        <time>2016-05-16T07:03:53Z</time>
      </trkpt>
      <trkpt lat="43.64762" lon="3.33048">
        <ele>185.2</ele>
        <time>2016-05-16T07:03:55Z</time>
      </trkpt>
      <trkpt lat="43.64758" lon="3.33038">
        <ele>185.1</ele>
        <time>2016-05-16T07:03:58Z</time>
      </trkpt>
      <trkpt lat="43.64752" lon="3.33032">
        <ele>185.3</ele>
        <time>2016-05-16T07:04:00Z</time>
      </trkpt>
      <trkpt lat="43.64746" lon="3.33027">
        <ele>185.2</ele>
        <time>2016-05-16T07:04:02Z</time>
      </trkpt>
      <trkpt lat="43.64739" lon="3.3302">
        <ele>185.6</ele>
        <time>2016-05-16T07:04:04Z</time>
      </trkpt>
      <trkpt lat="43.64734" lon="3.3301">
        <ele>186.4</ele>
        <time>2016-05-16T07:04:06Z</time>
      </trkpt>
      <trkpt lat="43.64726" lon="3.33">
        <ele>186.2</ele>
        <time>2016-05-16T07:04:08Z</time>
      </trkpt>
      <trkpt lat="43.64716" lon="3.32993">
        <ele>185.8</ele>
        <time>2016-05-16T07:04:10Z</time>
      </trkpt>
      <trkpt lat="43.64705" lon="3.32988">
        <ele>185.4</ele>
        <time>2016-05-16T07:04:12Z</time>
      </trkpt>
      <trkpt lat="43.64693" lon="3.32991">
        <ele>186</ele>
        <time>2016-05-16T07:04:14Z</time>
      </trkpt>
      <trkpt lat="43.64682" lon="3.32996">
        <ele>186</ele>
        <time>2016-05-16T07:04:16Z</time>
      </trkpt>
      <trkpt lat="43.6467" lon="3.33002">
        <ele>185.2</ele>
        <time>2016-05-16T07:04:18Z</time>
      </trkpt>
      <trkpt lat="43.64658" lon="3.33005">
        <ele>184.9</ele>
        <time>2016-05-16T07:04:20Z</time>
      </trkpt>
      <trkpt lat="43.64648" lon="3.3301">
        <ele>185.5</ele>
        <time>2016-05-16T07:04:22Z</time>
      </trkpt>
      <trkpt lat="43.6464" lon="3.33012">
        <ele>185.9</ele>
        <time>2016-05-16T07:04:24Z</time>
      </trkpt>
      <trkpt lat="43.64632" lon="3.33005">
        <ele>186.1</ele>
        <time>2016-05-16T07:04:28Z</time>
      </trkpt>
      <trkpt lat="43.64625" lon="3.33014">
        <ele>186.2</ele>
        <time>2016-05-16T07:04:30Z</time>
      </trkpt>
      <trkpt lat="43.64617" lon="3.33011">
        <ele>186.5</ele>
        <time>2016-05-16T07:04:34Z</time>
      </trkpt>
      <trkpt lat="43.6461" lon="3.33005">
        <ele>187.3</ele>
        <time>2016-05-16T07:04:36Z</time>
      </trkpt>
      <trkpt lat="43.64601" lon="3.33002">
        <ele>187.4</ele>
        <time>2016-05-16T07:04:39Z</time>
      </trkpt>
      <trkpt lat="43.64591" lon="3.32993">
        <ele>187.5</ele>
        <time>2016-05-16T07:04:42Z</time>
      </trkpt>
      <trkpt lat="43.64584" lon="3.32992">
        <ele>187.7</ele>
        <time>2016-05-16T07:04:44Z</time>
      </trkpt>
      <trkpt lat="43.64576" lon="3.32985">
        <ele>187.9</ele>
        <time>2016-05-16T07:04:47Z</time>
      </trkpt>
      <trkpt lat="43.6457" lon="3.32977">
        <ele>188.2</ele>
        <time>2016-05-16T07:04:50Z</time>
      </trkpt>
      <trkpt lat="43.64565" lon="3.32966">
        <ele>188.4</ele>
        <time>2016-05-16T07:04:53Z</time>
      </trkpt>
      <trkpt lat="43.64561" lon="3.32957">
        <ele>188.1</ele>
        <time>2016-05-16T07:04:55Z</time>
      </trkpt>
      <trkpt lat="43.64555" lon="3.3295">
        <ele>188</ele>
        <time>2016-05-16T07:04:57Z</time>
      </trkpt>
      <trkpt lat="43.64553" lon="3.32937">
        <ele>188.6</ele>
        <time>2016-05-16T07:05:00Z</time>
      </trkpt>
      <trkpt lat="43.64548" lon="3.32926">
        <ele>189.3</ele>
        <time>2016-05-16T07:05:02Z</time>
      </trkpt>
      <trkpt lat="43.64541" lon="3.32921">
        <ele>189.4</ele>
        <time>2016-05-16T07:05:06Z</time>
      </trkpt>
      <trkpt lat="43.64535" lon="3.32915">
        <ele>190.2</ele>
        <time>2016-05-16T07:05:09Z</time>
      </trkpt>
      <trkpt lat="43.64527" lon="3.32907">
        <ele>190.2</ele>
        <time>2016-05-16T07:05:10Z</time>
      </trkpt>
      <trkpt lat="43.6452" lon="3.329">
        <ele>189.7</ele>
        <time>2016-05-16T07:05:12Z</time>
      </trkpt>
      <trkpt lat="43.64513" lon="3.32888">
        <ele>189</ele>
        <time>2016-05-16T07:05:14Z</time>
      </trkpt>
      <trkpt lat="43.64506" lon="3.32876">
        <ele>189.7</ele>
        <time>2016-05-16T07:05:16Z</time>
      </trkpt>
      <trkpt lat="43.64497" lon="3.32861">
        <ele>189.8</ele>
        <time>2016-05-16T07:05:18Z</time>
      </trkpt>
      <trkpt lat="43.64488" lon="3.32846">
        <ele>189.6</ele>
        <time>2016-05-16T07:05:20Z</time>
      </trkpt>
      <trkpt lat="43.64479" lon="3.32837">
        <ele>189</ele>
        <time>2016-05-16T07:05:22Z</time>
      </trkpt>
      <trkpt lat="43.64468" lon="3.32832">
        <ele>188.2</ele>
        <time>2016-05-16T07:05:24Z</time>
      </trkpt>
      <trkpt lat="43.64465" lon="3.32822">
        <ele>187.2</ele>
        <time>2016-05-16T07:05:26Z</time>
      </trkpt>
      <trkpt lat="43.64459" lon="3.32812">
        <ele>187.1</ele>
        <time>2016-05-16T07:05:28Z</time>
      </trkpt>
      <trkpt lat="43.64458" lon="3.32802">
        <ele>187</ele>
        <time>2016-05-16T07:05:30Z</time>
      </trkpt>
      <trkpt lat="43.6445" lon="3.32797">
        <ele>185.7</ele>
        <time>2016-05-16T07:05:34Z</time>
      </trkpt>
      <trkpt lat="43.64444" lon="3.32789">
        <ele>185.6</ele>
        <time>2016-05-16T07:05:37Z</time>
      </trkpt>
      <trkpt lat="43.64435" lon="3.32788">
        <ele>185.5</ele>
        <time>2016-05-16T07:05:41Z</time>
      </trkpt>
      <trkpt lat="43.64425" lon="3.32787">
        <ele>185.6</ele>
        <time>2016-05-16T07:05:44Z</time>
      </trkpt>
      <trkpt lat="43.64416" lon="3.32787">
        <ele>185.7</ele>
        <time>2016-05-16T07:05:47Z</time>
      </trkpt>
      <trkpt lat="43.64409" lon="3.32785">
        <ele>185.8</ele>
        <time>2016-05-16T07:05:50Z</time>
      </trkpt>
      <trkpt lat="43.644" lon="3.32777">
        <ele>185.8</ele>
        <time>2016-05-16T07:05:53Z</time>
      </trkpt>
      <trkpt lat="43.64394" lon="3.32771">
        <ele>185.9</ele>
        <time>2016-05-16T07:05:55Z</time>
      </trkpt>
      <trkpt lat="43.64384" lon="3.32762">
        <ele>186</ele>
        <time>2016-05-16T07:05:58Z</time>
      </trkpt>
      <trkpt lat="43.64375" lon="3.32759">
        <ele>186</ele>
        <time>2016-05-16T07:06:01Z</time>
      </trkpt>
      <trkpt lat="43.64365" lon="3.32759">
        <ele>185.7</ele>
        <time>2016-05-16T07:06:04Z</time>
      </trkpt>
      <trkpt lat="43.64357" lon="3.32756">
        <ele>185.4</ele>
        <time>2016-05-16T07:06:06Z</time>
      </trkpt>
      <trkpt lat="43.64349" lon="3.32752">
        <ele>184.7</ele>
        <time>2016-05-16T07:06:08Z</time>
      </trkpt>
      <trkpt lat="43.6434" lon="3.3275">
        <ele>184.3</ele>
        <time>2016-05-16T07:06:10Z</time>
      </trkpt>
      <trkpt lat="43.64331" lon="3.32758">
        <ele>183.5</ele>
        <time>2016-05-16T07:06:12Z</time>
      </trkpt>
      <trkpt lat="43.64327" lon="3.32766">
        <ele>183.8</ele>
        <time>2016-05-16T07:06:13Z</time>
      </trkpt>
      <trkpt lat="43.64317" lon="3.32777">
        <ele>185.5</ele>
        <time>2016-05-16T07:06:15Z</time>
      </trkpt>
      <trkpt lat="43.6431" lon="3.32776">
        <ele>186.1</ele>
        <time>2016-05-16T07:06:17Z</time>
      </trkpt>
      <trkpt lat="43.64301" lon="3.32769">
        <ele>187.6</ele>
        <time>2016-05-16T07:06:20Z</time>
      </trkpt>
      <trkpt lat="43.64292" lon="3.32762">
        <ele>188.4</ele>
        <time>2016-05-16T07:06:22Z</time>
      </trkpt>
      <trkpt lat="43.64284" lon="3.32754">
        <ele>188.5</ele>
        <time>2016-05-16T07:06:24Z</time>
      </trkpt>
      <trkpt lat="43.64275" lon="3.32746">
        <ele>188.8</ele>
        <time>2016-05-16T07:06:26Z</time>
      </trkpt>
      <trkpt lat="43.64265" lon="3.32745">
        <ele>189</ele>
        <time>2016-05-16T07:06:28Z</time>
      </trkpt>
      <trkpt lat="43.64256" lon="3.32749">
        <ele>189.4</ele>
        <time>2016-05-16T07:06:31Z</time>
      </trkpt>
      <trkpt lat="43.64249" lon="3.32752">
        <ele>189.5</ele>
        <time>2016-05-16T07:06:34Z</time>
      </trkpt>
      <trkpt lat="43.64242" lon="3.32754">
        <ele>189.6</ele>
        <time>2016-05-16T07:06:36Z</time>
      </trkpt>
      <trkpt lat="43.64233" lon="3.32749">
        <ele>189.8</ele>
        <time>2016-05-16T07:06:40Z</time>
      </trkpt>
      <trkpt lat="43.64227" lon="3.32739">
        <ele>189.9</ele>
        <time>2016-05-16T07:06:43Z</time>
      </trkpt>
      <trkpt lat="43.64217" lon="3.3273">
        <ele>189.8</ele>
        <time>2016-05-16T07:06:46Z</time>
      </trkpt>
      <trkpt lat="43.64209" lon="3.32726">
        <ele>190.5</ele>
        <time>2016-05-16T07:06:48Z</time>
      </trkpt>
      <trkpt lat="43.64202" lon="3.32716">
        <ele>190.5</ele>
        <time>2016-05-16T07:06:50Z</time>
      </trkpt>
      <trkpt lat="43.64193" lon="3.32708">
        <ele>188.5</ele>
        <time>2016-05-16T07:06:52Z</time>
      </trkpt>
      <trkpt lat="43.64188" lon="3.32696">
        <ele>188</ele>
        <time>2016-05-16T07:06:54Z</time>
      </trkpt>
      <trkpt lat="43.64188" lon="3.32685">
        <ele>188</ele>
        <time>2016-05-16T07:06:57Z</time>
      </trkpt>
      <trkpt lat="43.6419" lon="3.32679">
        <ele>187.5</ele>
        <time>2016-05-16T07:07:04Z</time>
      </trkpt>
      <trkpt lat="43.64185" lon="3.32688">
        <ele>186.7</ele>
        <time>2016-05-16T07:07:18Z</time>
      </trkpt>
      <trkpt lat="43.64177" lon="3.32687">
        <ele>186.5</ele>
        <time>2016-05-16T07:07:22Z</time>
      </trkpt>
      <trkpt lat="43.6417" lon="3.32677">
        <ele>186.2</ele>
        <time>2016-05-16T07:07:25Z</time>
      </trkpt>
      <trkpt lat="43.64162" lon="3.32667">
        <ele>185.1</ele>
        <time>2016-05-16T07:07:28Z</time>
      </trkpt>
      <trkpt lat="43.64156" lon="3.32659">
        <ele>185.7</ele>
        <time>2016-05-16T07:07:30Z</time>
      </trkpt>
      <trkpt lat="43.64151" lon="3.32651">
        <ele>186.2</ele>
        <time>2016-05-16T07:07:32Z</time>
      </trkpt>
      <trkpt lat="43.64146" lon="3.32643">
        <ele>187.4</ele>
        <time>2016-05-16T07:07:34Z</time>
      </trkpt>
      <trkpt lat="43.64141" lon="3.32635">
        <ele>188.5</ele>
        <time>2016-05-16T07:07:36Z</time>
      </trkpt>
      <trkpt lat="43.64136" lon="3.32623">
        <ele>188.6</ele>
        <time>2016-05-16T07:07:39Z</time>
      </trkpt>
      <trkpt lat="43.64131" lon="3.32613">
        <ele>188.5</ele>
        <time>2016-05-16T07:07:41Z</time>
      </trkpt>
      <trkpt lat="43.64126" lon="3.32604">
        <ele>188.2</ele>
        <time>2016-05-16T07:07:43Z</time>
      </trkpt>
      <trkpt lat="43.64121" lon="3.32597">
        <ele>188.1</ele>
        <time>2016-05-16T07:07:45Z</time>
      </trkpt>
      <trkpt lat="43.64116" lon="3.32588">
        <ele>187.4</ele>
        <time>2016-05-16T07:07:47Z</time>
      </trkpt>
      <trkpt lat="43.6411" lon="3.32576">
        <ele>187.1</ele>
        <time>2016-05-16T07:07:49Z</time>
      </trkpt>
      <trkpt lat="43.64104" lon="3.32568">
        <ele>186.8</ele>
        <time>2016-05-16T07:07:51Z</time>
      </trkpt>
      <trkpt lat="43.641" lon="3.32559">
        <ele>186.5</ele>
        <time>2016-05-16T07:07:53Z</time>
      </trkpt>
      <trkpt lat="43.64094" lon="3.3255">
        <ele>185.8</ele>
        <time>2016-05-16T07:07:55Z</time>
      </trkpt>
      <trkpt lat="43.6409" lon="3.32541">
        <ele>185.8</ele>
        <time>2016-05-16T07:07:57Z</time>
      </trkpt>
      <trkpt lat="43.64087" lon="3.32531">
        <ele>185.6</ele>
        <time>2016-05-16T07:07:59Z</time>
      </trkpt>
      <trkpt lat="43.64083" lon="3.32521">
        <ele>186</ele>
        <time>2016-05-16T07:08:01Z</time>
      </trkpt>
      <trkpt lat="43.64077" lon="3.3251">
        <ele>186</ele>
        <time>2016-05-16T07:08:03Z</time>
      </trkpt>
      <trkpt lat="43.64072" lon="3.32501">
        <ele>185.8</ele>
        <time>2016-05-16T07:08:05Z</time>
      </trkpt>
      <trkpt lat="43.64066" lon="3.32491">
        <ele>185.6</ele>
        <time>2016-05-16T07:08:07Z</time>
      </trkpt>
      <trkpt lat="43.6406" lon="3.32482">
        <ele>185.2</ele>
        <time>2016-05-16T07:08:09Z</time>
      </trkpt>
      <trkpt lat="43.64055" lon="3.32474">
        <ele>186.4</ele>
        <time>2016-05-16T07:08:11Z</time>
      </trkpt>
      <trkpt lat="43.64048" lon="3.32468">
        <ele>187.8</ele>
        <time>2016-05-16T07:08:13Z</time>
      </trkpt>
      <trkpt lat="43.64041" lon="3.32464">
        <ele>189</ele>
        <time>2016-05-16T07:08:15Z</time>
      </trkpt>
      <trkpt lat="43.64033" lon="3.32465">
        <ele>189.3</ele>
        <time>2016-05-16T07:08:17Z</time>
      </trkpt>
      <trkpt lat="43.64025" lon="3.32464">
        <ele>189.8</ele>
        <time>2016-05-16T07:08:19Z</time>
      </trkpt>
      <trkpt lat="43.64015" lon="3.32464">
        <ele>190.8</ele>
        <time>2016-05-16T07:08:22Z</time>
      </trkpt>
      <trkpt lat="43.64005" lon="3.32464">
        <ele>191.7</ele>
        <time>2016-05-16T07:08:25Z</time>
      </trkpt>
      <trkpt lat="43.63997" lon="3.32464">
        <ele>192.2</ele>
        <time>2016-05-16T07:08:27Z</time>
      </trkpt>
      <trkpt lat="43.63989" lon="3.32463">
        <ele>192</ele>
        <time>2016-05-16T07:08:29Z</time>
      </trkpt>
      <trkpt lat="43.63982" lon="3.32464">
        <ele>192</ele>
        <time>2016-05-16T07:08:32Z</time>
      </trkpt>
      <trkpt lat="43.63979" lon="3.32453">
        <ele>192</ele>
        <time>2016-05-16T07:08:35Z</time>
      </trkpt>
      <trkpt lat="43.63984" lon="3.32442">
        <ele>192.2</ele>
        <time>2016-05-16T07:08:39Z</time>
      </trkpt>
      <trkpt lat="43.63993" lon="3.3244">
        <ele>193.1</ele>
        <time>2016-05-16T07:08:42Z</time>
      </trkpt>
      <trkpt lat="43.64001" lon="3.32439">
        <ele>193.3</ele>
        <time>2016-05-16T07:08:44Z</time>
      </trkpt>
      <trkpt lat="43.6401" lon="3.32434">
        <ele>193.8</ele>
        <time>2016-05-16T07:08:47Z</time>
      </trkpt>
      <trkpt lat="43.64018" lon="3.32429">
        <ele>194.1</ele>
        <time>2016-05-16T07:08:49Z</time>
      </trkpt>
      <trkpt lat="43.64027" lon="3.32423">
        <ele>194.3</ele>
        <time>2016-05-16T07:08:51Z</time>
      </trkpt>
      <trkpt lat="43.64035" lon="3.3242">
        <ele>194.8</ele>
        <time>2016-05-16T07:08:53Z</time>
      </trkpt>
      <trkpt lat="43.64043" lon="3.32417">
        <ele>195.6</ele>
        <time>2016-05-16T07:08:55Z</time>
      </trkpt>
      <trkpt lat="43.64053" lon="3.32415">
        <ele>195.4</ele>
        <time>2016-05-16T07:08:58Z</time>
      </trkpt>
      <trkpt lat="43.64063" lon="3.32415">
        <ele>194.5</ele>
        <time>2016-05-16T07:09:01Z</time>
      </trkpt>
      <trkpt lat="43.64071" lon="3.32419">
        <ele>193.7</ele>
        <time>2016-05-16T07:09:03Z</time>
      </trkpt>
      <trkpt lat="43.64078" lon="3.32421">
        <ele>192.4</ele>
        <time>2016-05-16T07:09:05Z</time>
      </trkpt>
      <trkpt lat="43.64086" lon="3.3242">
        <ele>192.2</ele>
        <time>2016-05-16T07:09:07Z</time>
      </trkpt>
      <trkpt lat="43.64094" lon="3.3242">
        <ele>192.3</ele>
        <time>2016-05-16T07:09:12Z</time>
      </trkpt>
      <trkpt lat="43.64103" lon="3.3242">
        <ele>192.3</ele>
        <time>2016-05-16T07:09:16Z</time>
      </trkpt>
      <trkpt lat="43.6411" lon="3.32422">
        <ele>192.2</ele>
        <time>2016-05-16T07:09:18Z</time>
      </trkpt>
      <trkpt lat="43.64118" lon="3.32424">
        <ele>192.1</ele>
        <time>2016-05-16T07:09:20Z</time>
      </trkpt>
      <trkpt lat="43.64126" lon="3.32426">
        <ele>192.1</ele>
        <time>2016-05-16T07:09:22Z</time>
      </trkpt>
      <trkpt lat="43.64135" lon="3.32432">
        <ele>191.7</ele>
        <time>2016-05-16T07:09:24Z</time>
      </trkpt>
      <trkpt lat="43.64144" lon="3.32438">
        <ele>191.1</ele>
        <time>2016-05-16T07:09:26Z</time>
      </trkpt>
      <trkpt lat="43.64154" lon="3.32445">
        <ele>190.1</ele>
        <time>2016-05-16T07:09:28Z</time>
      </trkpt>
      <trkpt lat="43.64162" lon="3.32452">
        <ele>189.4</ele>
        <time>2016-05-16T07:09:30Z</time>
      </trkpt>
      <trkpt lat="43.64172" lon="3.3246">
        <ele>188.2</ele>
        <time>2016-05-16T07:09:32Z</time>
      </trkpt>
      <trkpt lat="43.64181" lon="3.32468">
        <ele>187.9</ele>
        <time>2016-05-16T07:09:34Z</time>
      </trkpt>
      <trkpt lat="43.64189" lon="3.32475">
        <ele>188.5</ele>
        <time>2016-05-16T07:09:36Z</time>
      </trkpt>
      <trkpt lat="43.64199" lon="3.32482">
        <ele>188.3</ele>
        <time>2016-05-16T07:09:38Z</time>
      </trkpt>
      <trkpt lat="43.64207" lon="3.32488">
        <ele>188.4</ele>
        <time>2016-05-16T07:09:40Z</time>
      </trkpt>
      <trkpt lat="43.64216" lon="3.32494">
        <ele>187.9</ele>
        <time>2016-05-16T07:09:42Z</time>
      </trkpt>
      <trkpt lat="43.64226" lon="3.325">
        <ele>186.9</ele>
        <time>2016-05-16T07:09:44Z</time>
      </trkpt>
      <trkpt lat="43.64237" lon="3.32505">
        <ele>185.7</ele>
        <time>2016-05-16T07:09:46Z</time>
      </trkpt>
      <trkpt lat="43.64248" lon="3.3251">
        <ele>184.6</ele>
        <time>2016-05-16T07:09:48Z</time>
      </trkpt>
      <trkpt lat="43.64258" lon="3.32514">
        <ele>184</ele>
        <time>2016-05-16T07:09:50Z</time>
      </trkpt>
      <trkpt lat="43.64267" lon="3.32517">
        <ele>184.7</ele>
        <time>2016-05-16T07:09:52Z</time>
      </trkpt>
      <trkpt lat="43.64277" lon="3.32522">
        <ele>186.1</ele>
        <time>2016-05-16T07:09:54Z</time>
      </trkpt>
      <trkpt lat="43.64287" lon="3.32527">
        <ele>187.1</ele>
        <time>2016-05-16T07:09:56Z</time>
      </trkpt>
      <trkpt lat="43.64297" lon="3.32531">
        <ele>188.5</ele>
        <time>2016-05-16T07:09:58Z</time>
      </trkpt>
      <trkpt lat="43.64308" lon="3.32536">
        <ele>189.5</ele>
        <time>2016-05-16T07:10:00Z</time>
      </trkpt>
      <trkpt lat="43.6432" lon="3.32537">
        <ele>190.1</ele>
        <time>2016-05-16T07:10:02Z</time>
      </trkpt>
      <trkpt lat="43.64332" lon="3.3254">
        <ele>190.5</ele>
        <time>2016-05-16T07:10:04Z</time>
      </trkpt>
      <trkpt lat="43.64343" lon="3.3254">
        <ele>192</ele>
        <time>2016-05-16T07:10:06Z</time>
      </trkpt>
      <trkpt lat="43.64354" lon="3.32539">
        <ele>192.4</ele>
        <time>2016-05-16T07:10:08Z</time>
      </trkpt>
      <trkpt lat="43.64364" lon="3.32537">
        <ele>193.2</ele>
        <time>2016-05-16T07:10:10Z</time>
      </trkpt>
      <trkpt lat="43.64374" lon="3.32536">
        <ele>193.2</ele>
        <time>2016-05-16T07:10:12Z</time>
      </trkpt>
      <trkpt lat="43.64382" lon="3.32534">
        <ele>193.7</ele>
        <time>2016-05-16T07:10:14Z</time>
      </trkpt>
      <trkpt lat="43.6439" lon="3.32532">
        <ele>194.6</ele>
        <time>2016-05-16T07:10:16Z</time>
      </trkpt>
      <trkpt lat="43.64398" lon="3.32528">
        <ele>194.8</ele>
        <time>2016-05-16T07:10:19Z</time>
      </trkpt>
      <trkpt lat="43.64403" lon="3.32519">
        <ele>195.1</ele>
        <time>2016-05-16T07:10:24Z</time>
      </trkpt>
      <trkpt lat="43.6441" lon="3.32514">
        <ele>195.1</ele>
        <time>2016-05-16T07:10:29Z</time>
      </trkpt>
      <trkpt lat="43.64418" lon="3.32512">
        <ele>195.2</ele>
        <time>2016-05-16T07:10:32Z</time>
      </trkpt>
      <trkpt lat="43.64426" lon="3.32509">
        <ele>195.3</ele>
        <time>2016-05-16T07:10:35Z</time>
      </trkpt>
      <trkpt lat="43.64433" lon="3.32506">
        <ele>195.1</ele>
        <time>2016-05-16T07:10:37Z</time>
      </trkpt>
      <trkpt lat="43.64441" lon="3.32503">
        <ele>195.4</ele>
        <time>2016-05-16T07:10:39Z</time>
      </trkpt>
      <trkpt lat="43.64448" lon="3.32501">
        <ele>194.7</ele>
        <time>2016-05-16T07:10:41Z</time>
      </trkpt>
      <trkpt lat="43.64456" lon="3.32499">
        <ele>193.6</ele>
        <time>2016-05-16T07:10:43Z</time>
      </trkpt>
      <trkpt lat="43.64465" lon="3.32497">
        <ele>192.6</ele>
        <time>2016-05-16T07:10:45Z</time>
      </trkpt>
      <trkpt lat="43.64473" lon="3.32495">
        <ele>192.1</ele>
        <time>2016-05-16T07:10:47Z</time>
      </trkpt>
      <trkpt lat="43.64482" lon="3.32492">
        <ele>192.4</ele>
        <time>2016-05-16T07:10:49Z</time>
      </trkpt>
      <trkpt lat="43.64493" lon="3.32489">
        <ele>192.7</ele>
        <time>2016-05-16T07:10:51Z</time>
      </trkpt>
      <trkpt lat="43.64504" lon="3.32484">
        <ele>192.9</ele>
        <time>2016-05-16T07:10:53Z</time>
      </trkpt>
      <trkpt lat="43.64512" lon="3.3248">
        <ele>192.5</ele>
        <time>2016-05-16T07:10:55Z</time>
      </trkpt>
      <trkpt lat="43.64521" lon="3.32475">
        <ele>191.9</ele>
        <time>2016-05-16T07:10:57Z</time>
      </trkpt>
      <trkpt lat="43.64532" lon="3.32472">
        <ele>192.3</ele>
        <time>2016-05-16T07:10:59Z</time>
      </trkpt>
      <trkpt lat="43.64544" lon="3.32476">
        <ele>192.6</ele>
        <time>2016-05-16T07:11:01Z</time>
      </trkpt>
      <trkpt lat="43.64555" lon="3.32483">
        <ele>192.4</ele>
        <time>2016-05-16T07:11:03Z</time>
      </trkpt>
      <trkpt lat="43.64566" lon="3.32489">
        <ele>191.9</ele>
        <time>2016-05-16T07:11:05Z</time>
      </trkpt>
      <trkpt lat="43.64576" lon="3.3249">
        <ele>190.8</ele>
        <time>2016-05-16T07:11:07Z</time>
      </trkpt>
      <trkpt lat="43.64587" lon="3.32492">
        <ele>190.4</ele>
        <time>2016-05-16T07:11:09Z</time>
      </trkpt>
      <trkpt lat="43.64598" lon="3.32495">
        <ele>188.2</ele>
        <time>2016-05-16T07:11:11Z</time>
      </trkpt>
      <trkpt lat="43.64608" lon="3.32498">
        <ele>187.5</ele>
        <time>2016-05-16T07:11:13Z</time>
      </trkpt>
      <trkpt lat="43.64618" lon="3.32502">
        <ele>187.5</ele>
        <time>2016-05-16T07:11:15Z</time>
      </trkpt>
      <trkpt lat="43.64628" lon="3.32506">
        <ele>187.2</ele>
        <time>2016-05-16T07:11:17Z</time>
      </trkpt>
      <trkpt lat="43.64639" lon="3.32508">
        <ele>186.3</ele>
        <time>2016-05-16T07:11:19Z</time>
      </trkpt>
      <trkpt lat="43.64649" lon="3.3251">
        <ele>186.7</ele>
        <time>2016-05-16T07:11:21Z</time>
      </trkpt>
      <trkpt lat="43.64658" lon="3.3251">
        <ele>186.2</ele>
        <time>2016-05-16T07:11:23Z</time>
      </trkpt>
      <trkpt lat="43.64667" lon="3.3251">
        <ele>186.4</ele>
        <time>2016-05-16T07:11:25Z</time>
      </trkpt>
      <trkpt lat="43.64678" lon="3.32509">
        <ele>187.2</ele>
        <time>2016-05-16T07:11:27Z</time>
      </trkpt>
      <trkpt lat="43.64686" lon="3.32509">
        <ele>187</ele>
        <time>2016-05-16T07:11:29Z</time>
      </trkpt>
      <trkpt lat="43.64697" lon="3.32509">
        <ele>186.3</ele>
        <time>2016-05-16T07:11:32Z</time>
      </trkpt>
      <trkpt lat="43.64705" lon="3.32507">
        <ele>186.2</ele>
        <time>2016-05-16T07:11:34Z</time>
      </trkpt>
      <trkpt lat="43.64713" lon="3.32505">
        <ele>185.9</ele>
        <time>2016-05-16T07:11:36Z</time>
      </trkpt>
      <trkpt lat="43.64722" lon="3.32502">
        <ele>186</ele>
        <time>2016-05-16T07:11:38Z</time>
      </trkpt>
      <trkpt lat="43.6473" lon="3.32495">
        <ele>185.9</ele>
        <time>2016-05-16T07:11:40Z</time>
      </trkpt>
      <trkpt lat="43.64737" lon="3.32485">
        <ele>186.8</ele>
        <time>2016-05-16T07:11:42Z</time>
      </trkpt>
      <trkpt lat="43.64743" lon="3.32476">
        <ele>188.6</ele>
        <time>2016-05-16T07:11:44Z</time>
      </trkpt>
      <trkpt lat="43.64749" lon="3.32467">
        <ele>190.6</ele>
        <time>2016-05-16T07:11:46Z</time>
      </trkpt>
      <trkpt lat="43.64752" lon="3.32457">
        <ele>191.4</ele>
        <time>2016-05-16T07:11:48Z</time>
      </trkpt>
      <trkpt lat="43.64757" lon="3.32445">
        <ele>193.2</ele>
        <time>2016-05-16T07:11:51Z</time>
      </trkpt>
      <trkpt lat="43.6476" lon="3.32435">
        <ele>194.6</ele>
        <time>2016-05-16T07:11:53Z</time>
      </trkpt>
      <trkpt lat="43.64763" lon="3.32423">
        <ele>193.8</ele>
        <time>2016-05-16T07:11:55Z</time>
      </trkpt>
      <trkpt lat="43.64767" lon="3.32411">
        <ele>194.1</ele>
        <time>2016-05-16T07:11:57Z</time>
      </trkpt>
      <trkpt lat="43.64772" lon="3.32401">
        <ele>194.5</ele>
        <time>2016-05-16T07:11:59Z</time>
      </trkpt>
      <trkpt lat="43.64777" lon="3.32393">
        <ele>194.7</ele>
        <time>2016-05-16T07:12:01Z</time>
      </trkpt>
      <trkpt lat="43.64785" lon="3.32388">
        <ele>194.8</ele>
        <time>2016-05-16T07:12:03Z</time>
      </trkpt>
      <trkpt lat="43.64792" lon="3.32386">
        <ele>194</ele>
        <time>2016-05-16T07:12:05Z</time>
      </trkpt>
      <trkpt lat="43.648" lon="3.32388">
        <ele>193.4</ele>
        <time>2016-05-16T07:12:07Z</time>
      </trkpt>
      <trkpt lat="43.64809" lon="3.32393">
        <ele>192.7</ele>
        <time>2016-05-16T07:12:09Z</time>
      </trkpt>
      <trkpt lat="43.64818" lon="3.32398">
        <ele>192.1</ele>
        <time>2016-05-16T07:12:11Z</time>
      </trkpt>
      <trkpt lat="43.64826" lon="3.32403">
        <ele>191.8</ele>
        <time>2016-05-16T07:12:13Z</time>
      </trkpt>
      <trkpt lat="43.64834" lon="3.32409">
        <ele>192.1</ele>
        <time>2016-05-16T07:12:15Z</time>
      </trkpt>
      <trkpt lat="43.64842" lon="3.32414">
        <ele>192</ele>
        <time>2016-05-16T07:12:17Z</time>
      </trkpt>
      <trkpt lat="43.64852" lon="3.3242">
        <ele>191.5</ele>
        <time>2016-05-16T07:12:19Z</time>
      </trkpt>
      <trkpt lat="43.64861" lon="3.32427">
        <ele>191.3</ele>
        <time>2016-05-16T07:12:21Z</time>
      </trkpt>
      <trkpt lat="43.6487" lon="3.32435">
        <ele>189.7</ele>
        <time>2016-05-16T07:12:23Z</time>
      </trkpt>
      <trkpt lat="43.6488" lon="3.32443">
        <ele>188.9</ele>
        <time>2016-05-16T07:12:25Z</time>
      </trkpt>
      <trkpt lat="43.6489" lon="3.32452">
        <ele>188.1</ele>
        <time>2016-05-16T07:12:27Z</time>
      </trkpt>
      <trkpt lat="43.64899" lon="3.32461">
        <ele>187.8</ele>
        <time>2016-05-16T07:12:29Z</time>
      </trkpt>
      <trkpt lat="43.64908" lon="3.32469">
        <ele>188.3</ele>
        <time>2016-05-16T07:12:31Z</time>
      </trkpt>
      <trkpt lat="43.64917" lon="3.32477">
        <ele>188.3</ele>
        <time>2016-05-16T07:12:33Z</time>
      </trkpt>
      <trkpt lat="43.64927" lon="3.32483">
        <ele>188.2</ele>
        <time>2016-05-16T07:12:35Z</time>
      </trkpt>
      <trkpt lat="43.64938" lon="3.32488">
        <ele>188.7</ele>
        <time>2016-05-16T07:12:37Z</time>
      </trkpt>
      <trkpt lat="43.64948" lon="3.32492">
        <ele>188.5</ele>
        <time>2016-05-16T07:12:39Z</time>
      </trkpt>
      <trkpt lat="43.64959" lon="3.32494">
        <ele>187.8</ele>
        <time>2016-05-16T07:12:41Z</time>
      </trkpt>
      <trkpt lat="43.64969" lon="3.32497">
        <ele>187.5</ele>
        <time>2016-05-16T07:12:43Z</time>
      </trkpt>
      <trkpt lat="43.64978" lon="3.32501">
        <ele>188</ele>
        <time>2016-05-16T07:12:45Z</time>
      </trkpt>
      <trkpt lat="43.64986" lon="3.32506">
        <ele>187.3</ele>
        <time>2016-05-16T07:12:47Z</time>
      </trkpt>
      <trkpt lat="43.64994" lon="3.32511">
        <ele>187.4</ele>
        <time>2016-05-16T07:12:49Z</time>
      </trkpt>
      <trkpt lat="43.65002" lon="3.32518">
        <ele>187.8</ele>
        <time>2016-05-16T07:12:51Z</time>
      </trkpt>
      <trkpt lat="43.65011" lon="3.32524">
        <ele>187.6</ele>
        <time>2016-05-16T07:12:53Z</time>
      </trkpt>
      <trkpt lat="43.6502" lon="3.32529">
        <ele>188</ele>
        <time>2016-05-16T07:12:55Z</time>
      </trkpt>
      <trkpt lat="43.65027" lon="3.32534">
        <ele>188.8</ele>
        <time>2016-05-16T07:12:57Z</time>
      </trkpt>
      <trkpt lat="43.65035" lon="3.32538">
        <ele>188.8</ele>
        <time>2016-05-16T07:12:59Z</time>
      </trkpt>
      <trkpt lat="43.65044" lon="3.32543">
        <ele>188.2</ele>
        <time>2016-05-16T07:13:01Z</time>
      </trkpt>
      <trkpt lat="43.65054" lon="3.32546">
        <ele>187.9</ele>
        <time>2016-05-16T07:13:03Z</time>
      </trkpt>
      <trkpt lat="43.65063" lon="3.32548">
        <ele>188.2</ele>
        <time>2016-05-16T07:13:05Z</time>
      </trkpt>
      <trkpt lat="43.65073" lon="3.32548">
        <ele>189.1</ele>
        <time>2016-05-16T07:13:07Z</time>
      </trkpt>
      <trkpt lat="43.65083" lon="3.32544">
        <ele>189.3</ele>
        <time>2016-05-16T07:13:09Z</time>
      </trkpt>
      <trkpt lat="43.65093" lon="3.32534">
        <ele>188.9</ele>
        <time>2016-05-16T07:13:11Z</time>
      </trkpt>
      <trkpt lat="43.651" lon="3.32522">
        <ele>190.1</ele>
        <time>2016-05-16T07:13:13Z</time>
      </trkpt>
      <trkpt lat="43.65105" lon="3.32509">
        <ele>192</ele>
        <time>2016-05-16T07:13:15Z</time>
      </trkpt>
      <trkpt lat="43.6511" lon="3.32495">
        <ele>192.7</ele>
        <time>2016-05-16T07:13:17Z</time>
      </trkpt>
      <trkpt lat="43.65114" lon="3.32479">
        <ele>194.1</ele>
        <time>2016-05-16T07:13:19Z</time>
      </trkpt>
      <trkpt lat="43.65118" lon="3.32463">
        <ele>195.3</ele>
        <time>2016-05-16T07:13:21Z</time>
      </trkpt>
      <trkpt lat="43.65127" lon="3.3245">
        <ele>195.4</ele>
        <time>2016-05-16T07:13:23Z</time>
      </trkpt>
      <trkpt lat="43.65138" lon="3.32441">
        <ele>195.2</ele>
        <time>2016-05-16T07:13:25Z</time>
      </trkpt>
      <trkpt lat="43.65148" lon="3.32433">
        <ele>194.3</ele>
        <time>2016-05-16T07:13:27Z</time>
      </trkpt>
      <trkpt lat="43.6516" lon="3.32426">
        <ele>193.1</ele>
        <time>2016-05-16T07:13:29Z</time>
      </trkpt>
      <trkpt lat="43.65168" lon="3.32418">
        <ele>191.3</ele>
        <time>2016-05-16T07:13:31Z</time>
      </trkpt>
      <trkpt lat="43.65175" lon="3.32405">
        <ele>190.1</ele>
        <time>2016-05-16T07:13:33Z</time>
      </trkpt>
      <trkpt lat="43.6518" lon="3.3239">
        <ele>190.1</ele>
        <time>2016-05-16T07:13:35Z</time>
      </trkpt>
      <trkpt lat="43.65181" lon="3.32376">
        <ele>190.2</ele>
        <time>2016-05-16T07:13:37Z</time>
      </trkpt>
      <trkpt lat="43.65183" lon="3.32363">
        <ele>189.6</ele>
        <time>2016-05-16T07:13:39Z</time>
      </trkpt>
      <trkpt lat="43.65187" lon="3.32346">
        <ele>189.3</ele>
        <time>2016-05-16T07:13:41Z</time>
      </trkpt>
      <trkpt lat="43.65189" lon="3.3233">
        <ele>189.9</ele>
        <time>2016-05-16T07:13:43Z</time>
      </trkpt>
      <trkpt lat="43.65191" lon="3.32315">
        <ele>190.6</ele>
        <time>2016-05-16T07:13:45Z</time>
      </trkpt>
      <trkpt lat="43.65192" lon="3.323">
        <ele>191.1</ele>
        <time>2016-05-16T07:13:47Z</time>
      </trkpt>
      <trkpt lat="43.6519" lon="3.32286">
        <ele>191</ele>
        <time>2016-05-16T07:13:49Z</time>
      </trkpt>
      <trkpt lat="43.65191" lon="3.32271">
        <ele>190.7</ele>
        <time>2016-05-16T07:13:51Z</time>
      </trkpt>
      <trkpt lat="43.65196" lon="3.32257">
        <ele>190.5</ele>
        <time>2016-05-16T07:13:53Z</time>
      </trkpt>
      <trkpt lat="43.65199" lon="3.32242">
        <ele>189.2</ele>
        <time>2016-05-16T07:13:55Z</time>
      </trkpt>
      <trkpt lat="43.65202" lon="3.32228">
        <ele>189.3</ele>
        <time>2016-05-16T07:13:57Z</time>
      </trkpt>
      <trkpt lat="43.65206" lon="3.32215">
        <ele>189.5</ele>
        <time>2016-05-16T07:13:59Z</time>
      </trkpt>
      <trkpt lat="43.6521" lon="3.32201">
        <ele>189.7</ele>
        <time>2016-05-16T07:14:01Z</time>
      </trkpt>
      <trkpt lat="43.65214" lon="3.32187">
        <ele>191.4</ele>
        <time>2016-05-16T07:14:03Z</time>
      </trkpt>
      <trkpt lat="43.65217" lon="3.32176">
        <ele>192.3</ele>
        <time>2016-05-16T07:14:05Z</time>
      </trkpt>
      <trkpt lat="43.6522" lon="3.32163">
        <ele>192.6</ele>
        <time>2016-05-16T07:14:07Z</time>
      </trkpt>
      <trkpt lat="43.65224" lon="3.32154">
        <ele>192.5</ele>
        <time>2016-05-16T07:14:09Z</time>
      </trkpt>
      <trkpt lat="43.65228" lon="3.32146">
        <ele>192.3</ele>
        <time>2016-05-16T07:14:11Z</time>
      </trkpt>
      <trkpt lat="43.65232" lon="3.32137">
        <ele>193.5</ele>
        <time>2016-05-16T07:14:13Z</time>
      </trkpt>
      <trkpt lat="43.65243" lon="3.3213">
        <ele>195.3</ele>
        <time>2016-05-16T07:14:15Z</time>
      </trkpt>
      <trkpt lat="43.65248" lon="3.32136">
        <ele>196.2</ele>
        <time>2016-05-16T07:14:17Z</time>
      </trkpt>
      <trkpt lat="43.65251" lon="3.32149">
        <ele>197.8</ele>
        <time>2016-05-16T07:14:19Z</time>
      </trkpt>
      <trkpt lat="43.65258" lon="3.32166">
        <ele>197.9</ele>
        <time>2016-05-16T07:14:21Z</time>
      </trkpt>
      <trkpt lat="43.65263" lon="3.32182">
        <ele>196.9</ele>
        <time>2016-05-16T07:14:23Z</time>
      </trkpt>
      <trkpt lat="43.65269" lon="3.32197">
        <ele>196.1</ele>
        <time>2016-05-16T07:14:25Z</time>
      </trkpt>
      <trkpt lat="43.65272" lon="3.32206">
        <ele>195.8</ele>
        <time>2016-05-16T07:14:26Z</time>
      </trkpt>
      <trkpt lat="43.65277" lon="3.32223">
        <ele>194.8</ele>
        <time>2016-05-16T07:14:28Z</time>
      </trkpt>
      <trkpt lat="43.65282" lon="3.32239">
        <ele>193.4</ele>
        <time>2016-05-16T07:14:30Z</time>
      </trkpt>
      <trkpt lat="43.65287" lon="3.32255">
        <ele>192</ele>
        <time>2016-05-16T07:14:32Z</time>
      </trkpt>
      <trkpt lat="43.65292" lon="3.32271">
        <ele>191.5</ele>
        <time>2016-05-16T07:14:34Z</time>
      </trkpt>
      <trkpt lat="43.65297" lon="3.32287">
        <ele>190.9</ele>
        <time>2016-05-16T07:14:36Z</time>
      </trkpt>
      <trkpt lat="43.653" lon="3.32299">
        <ele>190.9</ele>
        <time>2016-05-16T07:14:38Z</time>
      </trkpt>
      <trkpt lat="43.65304" lon="3.32314">
        <ele>191.7</ele>
        <time>2016-05-16T07:14:40Z</time>
      </trkpt>
      <trkpt lat="43.65307" lon="3.32328">
        <ele>192</ele>
        <time>2016-05-16T07:14:42Z</time>
      </trkpt>
      <trkpt lat="43.6531" lon="3.3234">
        <ele>191.2</ele>
        <time>2016-05-16T07:14:44Z</time>
      </trkpt>
      <trkpt lat="43.65315" lon="3.32356">
        <ele>192</ele>
        <time>2016-05-16T07:14:46Z</time>
      </trkpt>
      <trkpt lat="43.65319" lon="3.32369">
        <ele>191.7</ele>
        <time>2016-05-16T07:14:48Z</time>
      </trkpt>
      <trkpt lat="43.65322" lon="3.32382">
        <ele>192.3</ele>
        <time>2016-05-16T07:14:50Z</time>
      </trkpt>
      <trkpt lat="43.65325" lon="3.32395">
        <ele>193.2</ele>
        <time>2016-05-16T07:14:52Z</time>
      </trkpt>
      <trkpt lat="43.65329" lon="3.32411">
        <ele>194.4</ele>
        <time>2016-05-16T07:14:54Z</time>
      </trkpt>
      <trkpt lat="43.65332" lon="3.32426">
        <ele>194</ele>
        <time>2016-05-16T07:14:56Z</time>
      </trkpt>
      <trkpt lat="43.65333" lon="3.32443">
        <ele>193</ele>
        <time>2016-05-16T07:14:58Z</time>
      </trkpt>
      <trkpt lat="43.65332" lon="3.32459">
        <ele>192.5</ele>
        <time>2016-05-16T07:15:00Z</time>
      </trkpt>
      <trkpt lat="43.6533" lon="3.32474">
        <ele>191.4</ele>
        <time>2016-05-16T07:15:02Z</time>
      </trkpt>
      <trkpt lat="43.65325" lon="3.32489">
        <ele>192.4</ele>
        <time>2016-05-16T07:15:04Z</time>
      </trkpt>
      <trkpt lat="43.6532" lon="3.32505">
        <ele>192.2</ele>
        <time>2016-05-16T07:15:06Z</time>
      </trkpt>
      <trkpt lat="43.65316" lon="3.32519">
        <ele>192.2</ele>
        <time>2016-05-16T07:15:08Z</time>
      </trkpt>
      <trkpt lat="43.65312" lon="3.32533">
        <ele>191.7</ele>
        <time>2016-05-16T07:15:10Z</time>
      </trkpt>
      <trkpt lat="43.65309" lon="3.32548">
        <ele>190.6</ele>
        <time>2016-05-16T07:15:12Z</time>
      </trkpt>
      <trkpt lat="43.65306" lon="3.32564">
        <ele>189.9</ele>
        <time>2016-05-16T07:15:14Z</time>
      </trkpt>
      <trkpt lat="43.65304" lon="3.32582">
        <ele>189.5</ele>
        <time>2016-05-16T07:15:16Z</time>
      </trkpt>
      <trkpt lat="43.65304" lon="3.32595">
        <ele>189.9</ele>
        <time>2016-05-16T07:15:18Z</time>
      </trkpt>
      <trkpt lat="43.65307" lon="3.3261">
        <ele>189.6</ele>
        <time>2016-05-16T07:15:20Z</time>
      </trkpt>
      <trkpt lat="43.6531" lon="3.32627">
        <ele>189.5</ele>
        <time>2016-05-16T07:15:22Z</time>
      </trkpt>
      <trkpt lat="43.65313" lon="3.32642">
        <ele>188.7</ele>
        <time>2016-05-16T07:15:24Z</time>
      </trkpt>
      <trkpt lat="43.65315" lon="3.32657">
        <ele>189.3</ele>
        <time>2016-05-16T07:15:26Z</time>
      </trkpt>
      <trkpt lat="43.65318" lon="3.32673">
        <ele>189.4</ele>
        <time>2016-05-16T07:15:28Z</time>
      </trkpt>
      <trkpt lat="43.65321" lon="3.3269">
        <ele>189.2</ele>
        <time>2016-05-16T07:15:30Z</time>
      </trkpt>
      <trkpt lat="43.65324" lon="3.32707">
        <ele>189.1</ele>
        <time>2016-05-16T07:15:32Z</time>
      </trkpt>
      <trkpt lat="43.65328" lon="3.32723">
        <ele>189.2</ele>
        <time>2016-05-16T07:15:34Z</time>
      </trkpt>
      <trkpt lat="43.6533" lon="3.32739">
        <ele>189.2</ele>
        <time>2016-05-16T07:15:36Z</time>
      </trkpt>
      <trkpt lat="43.65333" lon="3.32756">
        <ele>189.8</ele>
        <time>2016-05-16T07:15:38Z</time>
      </trkpt>
      <trkpt lat="43.65336" lon="3.32766">
        <ele>189.8</ele>
        <time>2016-05-16T07:15:39Z</time>
      </trkpt>
      <trkpt lat="43.65343" lon="3.3278">
        <ele>189.5</ele>
        <time>2016-05-16T07:15:41Z</time>
      </trkpt>
      <trkpt lat="43.65348" lon="3.32797">
        <ele>188.3</ele>
        <time>2016-05-16T07:15:43Z</time>
      </trkpt>
      <trkpt lat="43.65353" lon="3.32806">
        <ele>188</ele>
        <time>2016-05-16T07:15:45Z</time>
      </trkpt>
      <trkpt lat="43.65359" lon="3.32818">
        <ele>188</ele>
        <time>2016-05-16T07:15:48Z</time>
      </trkpt>
      <trkpt lat="43.65363" lon="3.3283">
        <ele>188.1</ele>
        <time>2016-05-16T07:15:51Z</time>
      </trkpt>
      <trkpt lat="43.65367" lon="3.3284">
        <ele>188</ele>
        <time>2016-05-16T07:15:54Z</time>
      </trkpt>
      <trkpt lat="43.65372" lon="3.32848">
        <ele>188.4</ele>
        <time>2016-05-16T07:15:56Z</time>
      </trkpt>
      <trkpt lat="43.65379" lon="3.32856">
        <ele>188.9</ele>
        <time>2016-05-16T07:15:58Z</time>
      </trkpt>
      <trkpt lat="43.65386" lon="3.32864">
        <ele>189.4</ele>
        <time>2016-05-16T07:16:00Z</time>
      </trkpt>
      <trkpt lat="43.65394" lon="3.32871">
        <ele>190.2</ele>
        <time>2016-05-16T07:16:02Z</time>
      </trkpt>
      <trkpt lat="43.65402" lon="3.32878">
        <ele>190.8</ele>
        <time>2016-05-16T07:16:04Z</time>
      </trkpt>
      <trkpt lat="43.65408" lon="3.32885">
        <ele>190.7</ele>
        <time>2016-05-16T07:16:06Z</time>
      </trkpt>
      <trkpt lat="43.65414" lon="3.32894">
        <ele>189.5</ele>
        <time>2016-05-16T07:16:08Z</time>
      </trkpt>
      <trkpt lat="43.65414" lon="3.32908">
        <ele>187.9</ele>
        <time>2016-05-16T07:16:10Z</time>
      </trkpt>
      <trkpt lat="43.65419" lon="3.32921">
        <ele>186.6</ele>
        <time>2016-05-16T07:16:12Z</time>
      </trkpt>
      <trkpt lat="43.65421" lon="3.32933">
        <ele>186.2</ele>
        <time>2016-05-16T07:16:14Z</time>
      </trkpt>
      <trkpt lat="43.65423" lon="3.32943">
        <ele>186.7</ele>
        <time>2016-05-16T07:16:16Z</time>
      </trkpt>
      <trkpt lat="43.65425" lon="3.32953">
        <ele>187</ele>
        <time>2016-05-16T07:16:18Z</time>
      </trkpt>
      <trkpt lat="43.65428" lon="3.32964">
        <ele>187</ele>
        <time>2016-05-16T07:16:20Z</time>
      </trkpt>
      <trkpt lat="43.65433" lon="3.32976">
        <ele>186.1</ele>
        <time>2016-05-16T07:16:22Z</time>
      </trkpt>
      <trkpt lat="43.65439" lon="3.32984">
        <ele>184.5</ele>
        <time>2016-05-16T07:16:24Z</time>
      </trkpt>
      <trkpt lat="43.65449" lon="3.32989">
        <ele>184.5</ele>
        <time>2016-05-16T07:16:27Z</time>
      </trkpt>
      <trkpt lat="43.65456" lon="3.32992">
        <ele>184.6</ele>
        <time>2016-05-16T07:16:29Z</time>
      </trkpt>
      <trkpt lat="43.65465" lon="3.32995">
        <ele>184.7</ele>
        <time>2016-05-16T07:16:32Z</time>
      </trkpt>
      <trkpt lat="43.65472" lon="3.32991">
        <ele>184.9</ele>
        <time>2016-05-16T07:16:35Z</time>
      </trkpt>
      <trkpt lat="43.65482" lon="3.32996">
        <ele>185.2</ele>
        <time>2016-05-16T07:16:39Z</time>
      </trkpt>
      <trkpt lat="43.65489" lon="3.33006">
        <ele>185.4</ele>
        <time>2016-05-16T07:16:42Z</time>
      </trkpt>
      <trkpt lat="43.65495" lon="3.33015">
        <ele>185.6</ele>
        <time>2016-05-16T07:16:45Z</time>
      </trkpt>
      <trkpt lat="43.65501" lon="3.33024">
        <ele>186</ele>
        <time>2016-05-16T07:16:48Z</time>
      </trkpt>
      <trkpt lat="43.65507" lon="3.3303">
        <ele>186.2</ele>
        <time>2016-05-16T07:16:50Z</time>
      </trkpt>
      <trkpt lat="43.65512" lon="3.33039">
        <ele>186.4</ele>
        <time>2016-05-16T07:16:53Z</time>
      </trkpt>
      <trkpt lat="43.65514" lon="3.33051">
        <ele>186.6</ele>
        <time>2016-05-16T07:16:56Z</time>
      </trkpt>
      <trkpt lat="43.6552" lon="3.33059">
        <ele>186.8</ele>
        <time>2016-05-16T07:16:59Z</time>
      </trkpt>
      <trkpt lat="43.65524" lon="3.33073">
        <ele>187.1</ele>
        <time>2016-05-16T07:17:02Z</time>
      </trkpt>
      <trkpt lat="43.65532" lon="3.33082">
        <ele>187.7</ele>
        <time>2016-05-16T07:17:05Z</time>
      </trkpt>
      <trkpt lat="43.65541" lon="3.3309">
        <ele>188</ele>
        <time>2016-05-16T07:17:08Z</time>
      </trkpt>
      <trkpt lat="43.65545" lon="3.33089">
        <ele>188.6</ele>
        <time>2016-05-16T07:17:15Z</time>
      </trkpt>
      <trkpt lat="43.65553" lon="3.33102">
        <ele>188.8</ele>
        <time>2016-05-16T07:17:18Z</time>
      </trkpt>
      <trkpt lat="43.65558" lon="3.33113">
        <ele>189</ele>
        <time>2016-05-16T07:17:21Z</time>
      </trkpt>
      <trkpt lat="43.65565" lon="3.33118">
        <ele>189.3</ele>
        <time>2016-05-16T07:17:24Z</time>
      </trkpt>
      <trkpt lat="43.65573" lon="3.33126">
        <ele>189.6</ele>
        <time>2016-05-16T07:17:27Z</time>
      </trkpt>
      <trkpt lat="43.65579" lon="3.33135">
        <ele>189.9</ele>
        <time>2016-05-16T07:17:33Z</time>
      </trkpt>
      <trkpt lat="43.65585" lon="3.33146">
        <ele>191</ele>
        <time>2016-05-16T07:17:35Z</time>
      </trkpt>
      <trkpt lat="43.65592" lon="3.3316">
        <ele>192.3</ele>
        <time>2016-05-16T07:17:37Z</time>
      </trkpt>
      <trkpt lat="43.65597" lon="3.33171">
        <ele>192.9</ele>
        <time>2016-05-16T07:17:39Z</time>
      </trkpt>
      <trkpt lat="43.65601" lon="3.33174">
        <ele>192.5</ele>
        <time>2016-05-16T07:17:46Z</time>
      </trkpt>
      <trkpt lat="43.65609" lon="3.3317">
        <ele>192.3</ele>
        <time>2016-05-16T07:17:57Z</time>
      </trkpt>
      <trkpt lat="43.65616" lon="3.33181">
        <ele>192.1</ele>
        <time>2016-05-16T07:17:59Z</time>
      </trkpt>
      <trkpt lat="43.65621" lon="3.33192">
        <ele>191.6</ele>
        <time>2016-05-16T07:18:01Z</time>
      </trkpt>
      <trkpt lat="43.65624" lon="3.33204">
        <ele>191.3</ele>
        <time>2016-05-16T07:18:03Z</time>
      </trkpt>
      <trkpt lat="43.65629" lon="3.33214">
        <ele>191.1</ele>
        <time>2016-05-16T07:18:05Z</time>
      </trkpt>
      <trkpt lat="43.65635" lon="3.33225">
        <ele>191.6</ele>
        <time>2016-05-16T07:18:07Z</time>
      </trkpt>
      <trkpt lat="43.65642" lon="3.33231">
        <ele>191.3</ele>
        <time>2016-05-16T07:18:09Z</time>
      </trkpt>
      <trkpt lat="43.6565" lon="3.33241">
        <ele>191.8</ele>
        <time>2016-05-16T07:18:12Z</time>
      </trkpt>
      <trkpt lat="43.65654" lon="3.33255">
        <ele>191.7</ele>
        <time>2016-05-16T07:18:15Z</time>
      </trkpt>
      <trkpt lat="43.65652" lon="3.33265">
        <ele>191.5</ele>
        <time>2016-05-16T07:18:17Z</time>
      </trkpt>
      <trkpt lat="43.6565" lon="3.33276">
        <ele>191.5</ele>
        <time>2016-05-16T07:18:20Z</time>
      </trkpt>
      <trkpt lat="43.65655" lon="3.33286">
        <ele>191.4</ele>
        <time>2016-05-16T07:18:24Z</time>
      </trkpt>
      <trkpt lat="43.65658" lon="3.33295">
        <ele>191.5</ele>
        <time>2016-05-16T07:18:27Z</time>
      </trkpt>
      <trkpt lat="43.65661" lon="3.33305">
        <ele>191.6</ele>
        <time>2016-05-16T07:18:32Z</time>
      </trkpt>
      <trkpt lat="43.65664" lon="3.33316">
        <ele>191.7</ele>
        <time>2016-05-16T07:18:35Z</time>
      </trkpt>
      <trkpt lat="43.65669" lon="3.33324">
        <ele>192.2</ele>
        <time>2016-05-16T07:18:37Z</time>
      </trkpt>
      <trkpt lat="43.65675" lon="3.33335">
        <ele>192.3</ele>
        <time>2016-05-16T07:18:39Z</time>
      </trkpt>
      <trkpt lat="43.65683" lon="3.33337">
        <ele>192.2</ele>
        <time>2016-05-16T07:18:42Z</time>
      </trkpt>
      <trkpt lat="43.65692" lon="3.33342">
        <ele>191.9</ele>
        <time>2016-05-16T07:18:45Z</time>
      </trkpt>
      <trkpt lat="43.65701" lon="3.33345">
        <ele>191.1</ele>
        <time>2016-05-16T07:18:48Z</time>
      </trkpt>
      <trkpt lat="43.65708" lon="3.33357">
        <ele>190.2</ele>
        <time>2016-05-16T07:18:51Z</time>
      </trkpt>
      <trkpt lat="43.65714" lon="3.33363">
        <ele>189.9</ele>
        <time>2016-05-16T07:18:53Z</time>
      </trkpt>
      <trkpt lat="43.6572" lon="3.33371">
        <ele>189.9</ele>
        <time>2016-05-16T07:18:55Z</time>
      </trkpt>
      <trkpt lat="43.65725" lon="3.3338">
        <ele>189.8</ele>
        <time>2016-05-16T07:18:57Z</time>
      </trkpt>
      <trkpt lat="43.65731" lon="3.33387">
        <ele>189.6</ele>
        <time>2016-05-16T07:19:00Z</time>
      </trkpt>
      <trkpt lat="43.65736" lon="3.33396">
        <ele>189.6</ele>
        <time>2016-05-16T07:19:03Z</time>
      </trkpt>
      <trkpt lat="43.65744" lon="3.33398">
        <ele>189.6</ele>
        <time>2016-05-16T07:19:07Z</time>
      </trkpt>
      <trkpt lat="43.65752" lon="3.33404">
        <ele>189.7</ele>
        <time>2016-05-16T07:19:10Z</time>
      </trkpt>
      <trkpt lat="43.65758" lon="3.33412">
        <ele>189.5</ele>
        <time>2016-05-16T07:19:14Z</time>
      </trkpt>
      <trkpt lat="43.65764" lon="3.3342">
        <ele>189.3</ele>
        <time>2016-05-16T07:19:18Z</time>
      </trkpt>
      <trkpt lat="43.65771" lon="3.33426">
        <ele>189.1</ele>
        <time>2016-05-16T07:19:23Z</time>
      </trkpt>
      <trkpt lat="43.65778" lon="3.3343">
        <ele>189.1</ele>
        <time>2016-05-16T07:19:26Z</time>
      </trkpt>
      <trkpt lat="43.65787" lon="3.33431">
        <ele>189.5</ele>
        <time>2016-05-16T07:19:29Z</time>
      </trkpt>
      <trkpt lat="43.65798" lon="3.3343">
        <ele>191.3</ele>
        <time>2016-05-16T07:19:32Z</time>
      </trkpt>
      <trkpt lat="43.65806" lon="3.33431">
        <ele>191.5</ele>
        <time>2016-05-16T07:19:34Z</time>
      </trkpt>
      <trkpt lat="43.65816" lon="3.33432">
        <ele>192.3</ele>
        <time>2016-05-16T07:19:36Z</time>
      </trkpt>
      <trkpt lat="43.65823" lon="3.33435">
        <ele>192.4</ele>
        <time>2016-05-16T07:19:38Z</time>
      </trkpt>
      <trkpt lat="43.65833" lon="3.33437">
        <ele>192.4</ele>
        <time>2016-05-16T07:19:40Z</time>
      </trkpt>
      <trkpt lat="43.65839" lon="3.33442">
        <ele>192.1</ele>
        <time>2016-05-16T07:19:47Z</time>
      </trkpt>
      <trkpt lat="43.65849" lon="3.33434">
        <ele>191.3</ele>
        <time>2016-05-16T07:20:03Z</time>
      </trkpt>
      <trkpt lat="43.65855" lon="3.33436">
        <ele>191.2</ele>
        <time>2016-05-16T07:20:10Z</time>
      </trkpt>
      <trkpt lat="43.6586" lon="3.33435">
        <ele>190.8</ele>
        <time>2016-05-16T07:20:23Z</time>
      </trkpt>
      <trkpt lat="43.65868" lon="3.33434">
        <ele>191</ele>
        <time>2016-05-16T07:20:28Z</time>
      </trkpt>
      <trkpt lat="43.65876" lon="3.33433">
        <ele>191.9</ele>
        <time>2016-05-16T07:20:32Z</time>
      </trkpt>
      <trkpt lat="43.65884" lon="3.33443">
        <ele>192.6</ele>
        <time>2016-05-16T07:20:36Z</time>
      </trkpt>
      <trkpt lat="43.65882" lon="3.33455">
        <ele>192.6</ele>
        <time>2016-05-16T07:20:40Z</time>
      </trkpt>
      <trkpt lat="43.65887" lon="3.33462">
        <ele>191.5</ele>
        <time>2016-05-16T07:20:44Z</time>
      </trkpt>
      <trkpt lat="43.65895" lon="3.33469">
        <ele>191</ele>
        <time>2016-05-16T07:20:50Z</time>
      </trkpt>
      <trkpt lat="43.65903" lon="3.33475">
        <ele>190.9</ele>
        <time>2016-05-16T07:20:55Z</time>
      </trkpt>
      <trkpt lat="43.65908" lon="3.33485">
        <ele>191</ele>
        <time>2016-05-16T07:20:58Z</time>
      </trkpt>
      <trkpt lat="43.65915" lon="3.33496">
        <ele>190.9</ele>
        <time>2016-05-16T07:21:01Z</time>
      </trkpt>
      <trkpt lat="43.65921" lon="3.33506">
        <ele>190.8</ele>
        <time>2016-05-16T07:21:03Z</time>
      </trkpt>
      <trkpt lat="43.65926" lon="3.33517">
        <ele>190.7</ele>
        <time>2016-05-16T07:21:06Z</time>
      </trkpt>
      <trkpt lat="43.65932" lon="3.33523">
        <ele>190.7</ele>
        <time>2016-05-16T07:21:10Z</time>
      </trkpt>
      <trkpt lat="43.65939" lon="3.33527">
        <ele>190.8</ele>
        <time>2016-05-16T07:21:13Z</time>
      </trkpt>
      <trkpt lat="43.65946" lon="3.33525">
        <ele>190.6</ele>
        <time>2016-05-16T07:21:18Z</time>
      </trkpt>
      <trkpt lat="43.65951" lon="3.33516">
        <ele>190.7</ele>
        <time>2016-05-16T07:21:23Z</time>
      </trkpt>
      <trkpt lat="43.65957" lon="3.33509">
        <ele>191</ele>
        <time>2016-05-16T07:21:27Z</time>
      </trkpt>
      <trkpt lat="43.65965" lon="3.33511">
        <ele>191.2</ele>
        <time>2016-05-16T07:21:30Z</time>
      </trkpt>
      <trkpt lat="43.65972" lon="3.33517">
        <ele>191.4</ele>
        <time>2016-05-16T07:21:33Z</time>
      </trkpt>
      <trkpt lat="43.65979" lon="3.33519">
        <ele>191.9</ele>
        <time>2016-05-16T07:21:37Z</time>
      </trkpt>
      <trkpt lat="43.65987" lon="3.33521">
        <ele>192.4</ele>
        <time>2016-05-16T07:21:41Z</time>
      </trkpt>
      <trkpt lat="43.65994" lon="3.33526">
        <ele>193</ele>
        <time>2016-05-16T07:21:45Z</time>
      </trkpt>
      <trkpt lat="43.66002" lon="3.33532">
        <ele>193.3</ele>
        <time>2016-05-16T07:21:49Z</time>
      </trkpt>
      <trkpt lat="43.6601" lon="3.33532">
        <ele>193.8</ele>
        <time>2016-05-16T07:21:53Z</time>
      </trkpt>
      <trkpt lat="43.66018" lon="3.33529">
        <ele>194.3</ele>
        <time>2016-05-16T07:21:57Z</time>
      </trkpt>
      <trkpt lat="43.66026" lon="3.33529">
        <ele>194.6</ele>
        <time>2016-05-16T07:22:00Z</time>
      </trkpt>
      <trkpt lat="43.66033" lon="3.33533">
        <ele>194.8</ele>
        <time>2016-05-16T07:22:02Z</time>
      </trkpt>
      <trkpt lat="43.66041" lon="3.33541">
        <ele>195.1</ele>
        <time>2016-05-16T07:22:05Z</time>
      </trkpt>
      <trkpt lat="43.66049" lon="3.33545">
        <ele>195.2</ele>
        <time>2016-05-16T07:22:07Z</time>
      </trkpt>
      <trkpt lat="43.66055" lon="3.33551">
        <ele>195.2</ele>
        <time>2016-05-16T07:22:09Z</time>
      </trkpt>
      <trkpt lat="43.66062" lon="3.33554">
        <ele>195.4</ele>
        <time>2016-05-16T07:22:11Z</time>
      </trkpt>
      <trkpt lat="43.66069" lon="3.33556">
        <ele>195.8</ele>
        <time>2016-05-16T07:22:14Z</time>
      </trkpt>
      <trkpt lat="43.66077" lon="3.33555">
        <ele>196.1</ele>
        <time>2016-05-16T07:22:17Z</time>
      </trkpt>
      <trkpt lat="43.66084" lon="3.33555">
        <ele>196.5</ele>
        <time>2016-05-16T07:22:20Z</time>
      </trkpt>
      <trkpt lat="43.66092" lon="3.33556">
        <ele>196.8</ele>
        <time>2016-05-16T07:22:22Z</time>
      </trkpt>
      <trkpt lat="43.66103" lon="3.33556">
        <ele>197.1</ele>
        <time>2016-05-16T07:22:25Z</time>
      </trkpt>
      <trkpt lat="43.66112" lon="3.33559">
        <ele>197.5</ele>
        <time>2016-05-16T07:22:28Z</time>
      </trkpt>
      <trkpt lat="43.66119" lon="3.33568">
        <ele>199.2</ele>
        <time>2016-05-16T07:22:30Z</time>
      </trkpt>
      <trkpt lat="43.66121" lon="3.33579">
        <ele>199.3</ele>
        <time>2016-05-16T07:22:32Z</time>
      </trkpt>
      <trkpt lat="43.66125" lon="3.33588">
        <ele>199.4</ele>
        <time>2016-05-16T07:22:34Z</time>
      </trkpt>
      <trkpt lat="43.66128" lon="3.33599">
        <ele>199.6</ele>
        <time>2016-05-16T07:22:37Z</time>
      </trkpt>
      <trkpt lat="43.66134" lon="3.33607">
        <ele>199.9</ele>
        <time>2016-05-16T07:22:41Z</time>
      </trkpt>
      <trkpt lat="43.66143" lon="3.33612">
        <ele>200.2</ele>
        <time>2016-05-16T07:22:45Z</time>
      </trkpt>
      <trkpt lat="43.66151" lon="3.33611">
        <ele>200.5</ele>
        <time>2016-05-16T07:22:50Z</time>
      </trkpt>
      <trkpt lat="43.66159" lon="3.3361">
        <ele>200.9</ele>
        <time>2016-05-16T07:22:55Z</time>
      </trkpt>
      <trkpt lat="43.66168" lon="3.33609">
        <ele>201.3</ele>
        <time>2016-05-16T07:22:59Z</time>
      </trkpt>
      <trkpt lat="43.66176" lon="3.33611">
        <ele>201.6</ele>
        <time>2016-05-16T07:23:02Z</time>
      </trkpt>
      <trkpt lat="43.66185" lon="3.3361">
        <ele>201.8</ele>
        <time>2016-05-16T07:23:05Z</time>
      </trkpt>
      <trkpt lat="43.66193" lon="3.33608">
        <ele>202.3</ele>
        <time>2016-05-16T07:23:07Z</time>
      </trkpt>
      <trkpt lat="43.66203" lon="3.33611">
        <ele>203.2</ele>
        <time>2016-05-16T07:23:09Z</time>
      </trkpt>
      <trkpt lat="43.66214" lon="3.33616">
        <ele>202.8</ele>
        <time>2016-05-16T07:23:11Z</time>
      </trkpt>
      <trkpt lat="43.66223" lon="3.3362">
        <ele>202.7</ele>
        <time>2016-05-16T07:23:13Z</time>
      </trkpt>
      <trkpt lat="43.66233" lon="3.33625">
        <ele>202.7</ele>
        <time>2016-05-16T07:23:16Z</time>
      </trkpt>
      <trkpt lat="43.66241" lon="3.33631">
        <ele>202.8</ele>
        <time>2016-05-16T07:23:19Z</time>
      </trkpt>
      <trkpt lat="43.66249" lon="3.33636">
        <ele>203.1</ele>
        <time>2016-05-16T07:23:23Z</time>
      </trkpt>
      <trkpt lat="43.66258" lon="3.33644">
        <ele>204.8</ele>
        <time>2016-05-16T07:23:26Z</time>
      </trkpt>
      <trkpt lat="43.66266" lon="3.33649">
        <ele>204.9</ele>
        <time>2016-05-16T07:23:28Z</time>
      </trkpt>
      <trkpt lat="43.66274" lon="3.33652">
        <ele>205</ele>
        <time>2016-05-16T07:23:30Z</time>
      </trkpt>
      <trkpt lat="43.6628" lon="3.33657">
        <ele>205</ele>
        <time>2016-05-16T07:23:32Z</time>
      </trkpt>
      <trkpt lat="43.66287" lon="3.33664">
        <ele>204.9</ele>
        <time>2016-05-16T07:23:35Z</time>
      </trkpt>
      <trkpt lat="43.66295" lon="3.33668">
        <ele>204.8</ele>
        <time>2016-05-16T07:23:39Z</time>
      </trkpt>
      <trkpt lat="43.66302" lon="3.33672">
        <ele>204.6</ele>
        <time>2016-05-16T07:23:43Z</time>
      </trkpt>
      <trkpt lat="43.6631" lon="3.33676">
        <ele>204.4</ele>
        <time>2016-05-16T07:23:47Z</time>
      </trkpt>
      <trkpt lat="43.66319" lon="3.3368">
        <ele>204.1</ele>
        <time>2016-05-16T07:23:50Z</time>
      </trkpt>
      <trkpt lat="43.66326" lon="3.33683">
        <ele>204</ele>
        <time>2016-05-16T07:23:52Z</time>
      </trkpt>
      <trkpt lat="43.66335" lon="3.33683">
        <ele>203.7</ele>
        <time>2016-05-16T07:23:55Z</time>
      </trkpt>
      <trkpt lat="43.66343" lon="3.33683">
        <ele>203.6</ele>
        <time>2016-05-16T07:23:57Z</time>
      </trkpt>
      <trkpt lat="43.66352" lon="3.33683">
        <ele>203.2</ele>
        <time>2016-05-16T07:23:59Z</time>
      </trkpt>
      <trkpt lat="43.66359" lon="3.33683">
        <ele>203.1</ele>
        <time>2016-05-16T07:24:01Z</time>
      </trkpt>
      <trkpt lat="43.66369" lon="3.33676">
        <ele>202.2</ele>
        <time>2016-05-16T07:24:04Z</time>
      </trkpt>
      <trkpt lat="43.66376" lon="3.33682">
        <ele>201.7</ele>
        <time>2016-05-16T07:24:07Z</time>
      </trkpt>
      <trkpt lat="43.6638" lon="3.33692">
        <ele>201.7</ele>
        <time>2016-05-16T07:24:09Z</time>
      </trkpt>
      <trkpt lat="43.66383" lon="3.33704">
        <ele>201.1</ele>
        <time>2016-05-16T07:24:11Z</time>
      </trkpt>
      <trkpt lat="43.66384" lon="3.33719">
        <ele>200</ele>
        <time>2016-05-16T07:24:13Z</time>
      </trkpt>
      <trkpt lat="43.66379" lon="3.33737">
        <ele>199.9</ele>
        <time>2016-05-16T07:24:15Z</time>
      </trkpt>
      <trkpt lat="43.66375" lon="3.33746">
        <ele>199.7</ele>
        <time>2016-05-16T07:24:16Z</time>
      </trkpt>
      <trkpt lat="43.66371" lon="3.33756">
        <ele>199.2</ele>
        <time>2016-05-16T07:24:17Z</time>
      </trkpt>
      <trkpt lat="43.66368" lon="3.33766">
        <ele>198.6</ele>
        <time>2016-05-16T07:24:18Z</time>
      </trkpt>
      <trkpt lat="43.66364" lon="3.33777">
        <ele>198</ele>
        <time>2016-05-16T07:24:19Z</time>
      </trkpt>
      <trkpt lat="43.6636" lon="3.33788">
        <ele>197.1</ele>
        <time>2016-05-16T07:24:20Z</time>
      </trkpt>
      <trkpt lat="43.66359" lon="3.33799">
        <ele>196.3</ele>
        <time>2016-05-16T07:24:21Z</time>
      </trkpt>
      <trkpt lat="43.66358" lon="3.33811">
        <ele>195.4</ele>
        <time>2016-05-16T07:24:22Z</time>
      </trkpt>
      <trkpt lat="43.66353" lon="3.33824">
        <ele>194.9</ele>
        <time>2016-05-16T07:24:23Z</time>
      </trkpt>
      <trkpt lat="43.66345" lon="3.3383">
        <ele>194.4</ele>
        <time>2016-05-16T07:24:24Z</time>
      </trkpt>
      <trkpt lat="43.66338" lon="3.33832">
        <ele>193.9</ele>
        <time>2016-05-16T07:24:25Z</time>
      </trkpt>
      <trkpt lat="43.66326" lon="3.3384">
        <ele>192.6</ele>
        <time>2016-05-16T07:24:27Z</time>
      </trkpt>
      <trkpt lat="43.66322" lon="3.33848">
        <ele>192.3</ele>
        <time>2016-05-16T07:24:28Z</time>
      </trkpt>
      <trkpt lat="43.66317" lon="3.33856">
        <ele>192</ele>
        <time>2016-05-16T07:24:29Z</time>
      </trkpt>
      <trkpt lat="43.66312" lon="3.33864">
        <ele>191.6</ele>
        <time>2016-05-16T07:24:30Z</time>
      </trkpt>
      <trkpt lat="43.66305" lon="3.33869">
        <ele>191.3</ele>
        <time>2016-05-16T07:24:31Z</time>
      </trkpt>
      <trkpt lat="43.66295" lon="3.33876">
        <ele>191</ele>
        <time>2016-05-16T07:24:33Z</time>
      </trkpt>
      <trkpt lat="43.66288" lon="3.33883">
        <ele>190.8</ele>
        <time>2016-05-16T07:24:35Z</time>
      </trkpt>
      <trkpt lat="43.66284" lon="3.33895">
        <ele>191.2</ele>
        <time>2016-05-16T07:24:37Z</time>
      </trkpt>
      <trkpt lat="43.66279" lon="3.33908">
        <ele>191.5</ele>
        <time>2016-05-16T07:24:39Z</time>
      </trkpt>
      <trkpt lat="43.66275" lon="3.33921">
        <ele>191.5</ele>
        <time>2016-05-16T07:24:41Z</time>
      </trkpt>
      <trkpt lat="43.6627" lon="3.33935">
        <ele>190.9</ele>
        <time>2016-05-16T07:24:43Z</time>
      </trkpt>
      <trkpt lat="43.66264" lon="3.3395">
        <ele>190</ele>
        <time>2016-05-16T07:24:45Z</time>
      </trkpt>
      <trkpt lat="43.66254" lon="3.33962">
        <ele>189.3</ele>
        <time>2016-05-16T07:24:47Z</time>
      </trkpt>
      <trkpt lat="43.66243" lon="3.33962">
        <ele>188.4</ele>
        <time>2016-05-16T07:24:49Z</time>
      </trkpt>
      <trkpt lat="43.66234" lon="3.33958">
        <ele>187.9</ele>
        <time>2016-05-16T07:24:51Z</time>
      </trkpt>
      <trkpt lat="43.66225" lon="3.33952">
        <ele>188.3</ele>
        <time>2016-05-16T07:24:53Z</time>
      </trkpt>
      <trkpt lat="43.66215" lon="3.3395">
        <ele>188</ele>
        <time>2016-05-16T07:24:55Z</time>
      </trkpt>
      <trkpt lat="43.66207" lon="3.33956">
        <ele>188.4</ele>
        <time>2016-05-16T07:24:57Z</time>
      </trkpt>
      <trkpt lat="43.66208" lon="3.3397">
        <ele>189.1</ele>
        <time>2016-05-16T07:25:00Z</time>
      </trkpt>
      <trkpt lat="43.66215" lon="3.33977">
        <ele>189.4</ele>
        <time>2016-05-16T07:25:02Z</time>
      </trkpt>
      <trkpt lat="43.66223" lon="3.33984">
        <ele>189.7</ele>
        <time>2016-05-16T07:25:05Z</time>
      </trkpt>
      <trkpt lat="43.6623" lon="3.33989">
        <ele>189.7</ele>
        <time>2016-05-16T07:25:07Z</time>
      </trkpt>
      <trkpt lat="43.66237" lon="3.33993">
        <ele>189.7</ele>
        <time>2016-05-16T07:25:10Z</time>
      </trkpt>
      <trkpt lat="43.66245" lon="3.33995">
        <ele>189.9</ele>
        <time>2016-05-16T07:25:14Z</time>
      </trkpt>
      <trkpt lat="43.66253" lon="3.33988">
        <ele>190.1</ele>
        <time>2016-05-16T07:25:18Z</time>
      </trkpt>
      <trkpt lat="43.66261" lon="3.33984">
        <ele>190.3</ele>
        <time>2016-05-16T07:25:21Z</time>
      </trkpt>
      <trkpt lat="43.6627" lon="3.33982">
        <ele>190.4</ele>
        <time>2016-05-16T07:25:24Z</time>
      </trkpt>
      <trkpt lat="43.66279" lon="3.33978">
        <ele>190.6</ele>
        <time>2016-05-16T07:25:28Z</time>
      </trkpt>
      <trkpt lat="43.66286" lon="3.33975">
        <ele>190.9</ele>
        <time>2016-05-16T07:25:31Z</time>
      </trkpt>
      <trkpt lat="43.66295" lon="3.33974">
        <ele>191.1</ele>
        <time>2016-05-16T07:25:34Z</time>
      </trkpt>
      <trkpt lat="43.66304" lon="3.33973">
        <ele>191.2</ele>
        <time>2016-05-16T07:25:38Z</time>
      </trkpt>
      <trkpt lat="43.66312" lon="3.33968">
        <ele>191.1</ele>
        <time>2016-05-16T07:25:41Z</time>
      </trkpt>
      <trkpt lat="43.66319" lon="3.33963">
        <ele>191.1</ele>
        <time>2016-05-16T07:25:44Z</time>
      </trkpt>
      <trkpt lat="43.66327" lon="3.33957">
        <ele>191.5</ele>
        <time>2016-05-16T07:25:49Z</time>
      </trkpt>
      <trkpt lat="43.66334" lon="3.33954">
        <ele>191.6</ele>
        <time>2016-05-16T07:25:52Z</time>
      </trkpt>
      <trkpt lat="43.66343" lon="3.33951">
        <ele>192.1</ele>
        <time>2016-05-16T07:25:56Z</time>
      </trkpt>
      <trkpt lat="43.6635" lon="3.33949">
        <ele>192.6</ele>
        <time>2016-05-16T07:26:01Z</time>
      </trkpt>
      <trkpt lat="43.66359" lon="3.33946">
        <ele>193</ele>
        <time>2016-05-16T07:26:05Z</time>
      </trkpt>
      <trkpt lat="43.66367" lon="3.33946">
        <ele>193.1</ele>
        <time>2016-05-16T07:26:07Z</time>
      </trkpt>
      <trkpt lat="43.66377" lon="3.33947">
        <ele>195.2</ele>
        <time>2016-05-16T07:26:09Z</time>
      </trkpt>
      <trkpt lat="43.66385" lon="3.3395">
        <ele>196</ele>
        <time>2016-05-16T07:26:11Z</time>
      </trkpt>
      <trkpt lat="43.6639" lon="3.33939">
        <ele>195.4</ele>
        <time>2016-05-16T07:26:13Z</time>
      </trkpt>
      <trkpt lat="43.66393" lon="3.3393">
        <ele>195.4</ele>
        <time>2016-05-16T07:26:15Z</time>
      </trkpt>
      <trkpt lat="43.66398" lon="3.3392">
        <ele>195.5</ele>
        <time>2016-05-16T07:26:18Z</time>
      </trkpt>
      <trkpt lat="43.66404" lon="3.3391">
        <ele>196</ele>
        <time>2016-05-16T07:26:22Z</time>
      </trkpt>
      <trkpt lat="43.6641" lon="3.33901">
        <ele>197</ele>
        <time>2016-05-16T07:26:26Z</time>
      </trkpt>
      <trkpt lat="43.66415" lon="3.33893">
        <ele>198.1</ele>
        <time>2016-05-16T07:26:30Z</time>
      </trkpt>
      <trkpt lat="43.6642" lon="3.33884">
        <ele>199.1</ele>
        <time>2016-05-16T07:26:34Z</time>
      </trkpt>
      <trkpt lat="43.66428" lon="3.3388">
        <ele>200.3</ele>
        <time>2016-05-16T07:26:39Z</time>
      </trkpt>
      <trkpt lat="43.66436" lon="3.33878">
        <ele>201.4</ele>
        <time>2016-05-16T07:26:44Z</time>
      </trkpt>
      <trkpt lat="43.66444" lon="3.33875">
        <ele>202.5</ele>
        <time>2016-05-16T07:26:48Z</time>
      </trkpt>
      <trkpt lat="43.66454" lon="3.33876">
        <ele>204.6</ele>
        <time>2016-05-16T07:26:51Z</time>
      </trkpt>
      <trkpt lat="43.66462" lon="3.33877">
        <ele>204.8</ele>
        <time>2016-05-16T07:26:53Z</time>
      </trkpt>
      <trkpt lat="43.66469" lon="3.33871">
        <ele>205.1</ele>
        <time>2016-05-16T07:26:56Z</time>
      </trkpt>
      <trkpt lat="43.66475" lon="3.33865">
        <ele>205.2</ele>
        <time>2016-05-16T07:26:59Z</time>
      </trkpt>
      <trkpt lat="43.66481" lon="3.33857">
        <ele>205.3</ele>
        <time>2016-05-16T07:27:02Z</time>
      </trkpt>
      <trkpt lat="43.66486" lon="3.33848">
        <ele>205.4</ele>
        <time>2016-05-16T07:27:05Z</time>
      </trkpt>
      <trkpt lat="43.66494" lon="3.33842">
        <ele>205.6</ele>
        <time>2016-05-16T07:27:10Z</time>
      </trkpt>
      <trkpt lat="43.66501" lon="3.33837">
        <ele>205.7</ele>
        <time>2016-05-16T07:27:14Z</time>
      </trkpt>
      <trkpt lat="43.66507" lon="3.33831">
        <ele>205.8</ele>
        <time>2016-05-16T07:27:18Z</time>
      </trkpt>
      <trkpt lat="43.66514" lon="3.33824">
        <ele>206.3</ele>
        <time>2016-05-16T07:27:22Z</time>
      </trkpt>
      <trkpt lat="43.66521" lon="3.33822">
        <ele>206.7</ele>
        <time>2016-05-16T07:27:28Z</time>
      </trkpt>
      <trkpt lat="43.66528" lon="3.33819">
        <ele>207.2</ele>
        <time>2016-05-16T07:27:33Z</time>
      </trkpt>
      <trkpt lat="43.66538" lon="3.33822">
        <ele>207.5</ele>
        <time>2016-05-16T07:27:37Z</time>
      </trkpt>
      <trkpt lat="43.66545" lon="3.33827">
        <ele>208</ele>
        <time>2016-05-16T07:27:40Z</time>
      </trkpt>
      <trkpt lat="43.66553" lon="3.33829">
        <ele>208.6</ele>
        <time>2016-05-16T07:27:45Z</time>
      </trkpt>
      <trkpt lat="43.6656" lon="3.33828">
        <ele>209.6</ele>
        <time>2016-05-16T07:27:51Z</time>
      </trkpt>
      <trkpt lat="43.66569" lon="3.33823">
        <ele>211.1</ele>
        <time>2016-05-16T07:27:58Z</time>
      </trkpt>
      <trkpt lat="43.66577" lon="3.3382">
        <ele>212.8</ele>
        <time>2016-05-16T07:28:05Z</time>
      </trkpt>
      <trkpt lat="43.66578" lon="3.3382">
        <ele>213.8</ele>
        <time>2016-05-16T07:28:12Z</time>
      </trkpt>
      <trkpt lat="43.66587" lon="3.3382">
        <ele>214.4</ele>
        <time>2016-05-16T07:28:22Z</time>
      </trkpt>
      <trkpt lat="43.66597" lon="3.3382">
        <ele>215.4</ele>
        <time>2016-05-16T07:28:34Z</time>
      </trkpt>
      <trkpt lat="43.66604" lon="3.33815">
        <ele>217.6</ele>
        <time>2016-05-16T07:28:50Z</time>
      </trkpt>
      <trkpt lat="43.66613" lon="3.33813">
        <ele>218.6</ele>
        <time>2016-05-16T07:28:54Z</time>
      </trkpt>
      <trkpt lat="43.66621" lon="3.33812">
        <ele>219.7</ele>
        <time>2016-05-16T07:28:59Z</time>
      </trkpt>
      <trkpt lat="43.66628" lon="3.3381">
        <ele>221.1</ele>
        <time>2016-05-16T07:29:05Z</time>
      </trkpt>
      <trkpt lat="43.66636" lon="3.33811">
        <ele>222.1</ele>
        <time>2016-05-16T07:29:10Z</time>
      </trkpt>
      <trkpt lat="43.66644" lon="3.33808">
        <ele>222.5</ele>
        <time>2016-05-16T07:29:15Z</time>
      </trkpt>
      <trkpt lat="43.66649" lon="3.338">
        <ele>222.9</ele>
        <time>2016-05-16T07:29:20Z</time>
      </trkpt>
      <trkpt lat="43.66654" lon="3.33792">
        <ele>223.2</ele>
        <time>2016-05-16T07:29:24Z</time>
      </trkpt>
      <trkpt lat="43.66662" lon="3.33785">
        <ele>223.7</ele>
        <time>2016-05-16T07:29:28Z</time>
      </trkpt>
      <trkpt lat="43.66669" lon="3.33779">
        <ele>224.1</ele>
        <time>2016-05-16T07:29:32Z</time>
      </trkpt>
      <trkpt lat="43.66675" lon="3.33773">
        <ele>224.4</ele>
        <time>2016-05-16T07:29:36Z</time>
      </trkpt>
      <trkpt lat="43.6668" lon="3.33763">
        <ele>224.7</ele>
        <time>2016-05-16T07:29:40Z</time>
      </trkpt>
      <trkpt lat="43.66683" lon="3.33752">
        <ele>225.1</ele>
        <time>2016-05-16T07:29:44Z</time>
      </trkpt>
      <trkpt lat="43.66685" lon="3.3374">
        <ele>226.1</ele>
        <time>2016-05-16T07:29:49Z</time>
      </trkpt>
      <trkpt lat="43.66689" lon="3.33731">
        <ele>226.6</ele>
        <time>2016-05-16T07:29:51Z</time>
      </trkpt>
      <trkpt lat="43.66696" lon="3.33723">
        <ele>227.5</ele>
        <time>2016-05-16T07:29:54Z</time>
      </trkpt>
      <trkpt lat="43.66702" lon="3.33716">
        <ele>228.2</ele>
        <time>2016-05-16T07:29:57Z</time>
      </trkpt>
      <trkpt lat="43.66709" lon="3.3371">
        <ele>229.1</ele>
        <time>2016-05-16T07:30:01Z</time>
      </trkpt>
      <trkpt lat="43.66716" lon="3.33704">
        <ele>229.6</ele>
        <time>2016-05-16T07:30:04Z</time>
      </trkpt>
      <trkpt lat="43.66721" lon="3.33697">
        <ele>230.3</ele>
        <time>2016-05-16T07:30:07Z</time>
      </trkpt>
      <trkpt lat="43.6673" lon="3.3369">
        <ele>232</ele>
        <time>2016-05-16T07:30:10Z</time>
      </trkpt>
      <trkpt lat="43.66737" lon="3.33683">
        <ele>233.4</ele>
        <time>2016-05-16T07:30:12Z</time>
      </trkpt>
      <trkpt lat="43.66745" lon="3.33676">
        <ele>234.6</ele>
        <time>2016-05-16T07:30:14Z</time>
      </trkpt>
      <trkpt lat="43.66753" lon="3.33668">
        <ele>235.2</ele>
        <time>2016-05-16T07:30:16Z</time>
      </trkpt>
      <trkpt lat="43.66761" lon="3.33654">
        <ele>234.8</ele>
        <time>2016-05-16T07:30:19Z</time>
      </trkpt>
      <trkpt lat="43.66769" lon="3.33651">
        <ele>235</ele>
        <time>2016-05-16T07:30:21Z</time>
      </trkpt>
      <trkpt lat="43.66769" lon="3.33641">
        <ele>235.2</ele>
        <time>2016-05-16T07:30:28Z</time>
      </trkpt>
      <trkpt lat="43.66769" lon="3.33629">
        <ele>235.7</ele>
        <time>2016-05-16T07:30:32Z</time>
      </trkpt>
      <trkpt lat="43.6677" lon="3.33614">
        <ele>236</ele>
        <time>2016-05-16T07:30:35Z</time>
      </trkpt>
      <trkpt lat="43.6677" lon="3.33603">
        <ele>236.2</ele>
        <time>2016-05-16T07:30:38Z</time>
      </trkpt>
      <trkpt lat="43.66773" lon="3.33591">
        <ele>236.3</ele>
        <time>2016-05-16T07:30:41Z</time>
      </trkpt>
      <trkpt lat="43.66778" lon="3.33579">
        <ele>236.3</ele>
        <time>2016-05-16T07:30:44Z</time>
      </trkpt>
      <trkpt lat="43.66783" lon="3.33572">
        <ele>236.3</ele>
        <time>2016-05-16T07:30:46Z</time>
      </trkpt>
      <trkpt lat="43.66792" lon="3.33565">
        <ele>236.1</ele>
        <time>2016-05-16T07:30:49Z</time>
      </trkpt>
      <trkpt lat="43.66799" lon="3.33564">
        <ele>235.9</ele>
        <time>2016-05-16T07:30:51Z</time>
      </trkpt>
      <trkpt lat="43.66807" lon="3.33564">
        <ele>234.8</ele>
        <time>2016-05-16T07:30:53Z</time>
      </trkpt>
      <trkpt lat="43.66815" lon="3.33564">
        <ele>234.8</ele>
        <time>2016-05-16T07:30:55Z</time>
      </trkpt>
      <trkpt lat="43.66823" lon="3.33559">
        <ele>234.8</ele>
        <time>2016-05-16T07:30:58Z</time>
      </trkpt>
      <trkpt lat="43.6683" lon="3.33554">
        <ele>235.2</ele>
        <time>2016-05-16T07:31:03Z</time>
      </trkpt>
      <trkpt lat="43.66839" lon="3.33552">
        <ele>235.4</ele>
        <time>2016-05-16T07:31:07Z</time>
      </trkpt>
      <trkpt lat="43.66848" lon="3.3355">
        <ele>235.5</ele>
        <time>2016-05-16T07:31:10Z</time>
      </trkpt>
      <trkpt lat="43.66855" lon="3.3355">
        <ele>235.9</ele>
        <time>2016-05-16T07:31:12Z</time>
      </trkpt>
      <trkpt lat="43.66863" lon="3.3355">
        <ele>236.4</ele>
        <time>2016-05-16T07:31:14Z</time>
      </trkpt>
      <trkpt lat="43.66873" lon="3.33545">
        <ele>236.5</ele>
        <time>2016-05-16T07:31:17Z</time>
      </trkpt>
      <trkpt lat="43.66882" lon="3.33542">
        <ele>236.6</ele>
        <time>2016-05-16T07:31:20Z</time>
      </trkpt>
      <trkpt lat="43.66891" lon="3.3354">
        <ele>236.5</ele>
        <time>2016-05-16T07:31:22Z</time>
      </trkpt>
      <trkpt lat="43.669" lon="3.33538">
        <ele>235.6</ele>
        <time>2016-05-16T07:31:24Z</time>
      </trkpt>
      <trkpt lat="43.66909" lon="3.3354">
        <ele>234.4</ele>
        <time>2016-05-16T07:31:26Z</time>
      </trkpt>
      <trkpt lat="43.66918" lon="3.3354">
        <ele>233.5</ele>
        <time>2016-05-16T07:31:28Z</time>
      </trkpt>
      <trkpt lat="43.66927" lon="3.33539">
        <ele>232.7</ele>
        <time>2016-05-16T07:31:30Z</time>
      </trkpt>
      <trkpt lat="43.66935" lon="3.33541">
        <ele>231.4</ele>
        <time>2016-05-16T07:31:32Z</time>
      </trkpt>
      <trkpt lat="43.66946" lon="3.33542">
        <ele>231.7</ele>
        <time>2016-05-16T07:31:35Z</time>
      </trkpt>
      <trkpt lat="43.66955" lon="3.33543">
        <ele>232</ele>
        <time>2016-05-16T07:31:37Z</time>
      </trkpt>
      <trkpt lat="43.66965" lon="3.33544">
        <ele>231.7</ele>
        <time>2016-05-16T07:31:39Z</time>
      </trkpt>
      <trkpt lat="43.66977" lon="3.33547">
        <ele>229.4</ele>
        <time>2016-05-16T07:31:41Z</time>
      </trkpt>
      <trkpt lat="43.66987" lon="3.33549">
        <ele>228.2</ele>
        <time>2016-05-16T07:31:43Z</time>
      </trkpt>
      <trkpt lat="43.66997" lon="3.33555">
        <ele>227.5</ele>
        <time>2016-05-16T07:31:45Z</time>
      </trkpt>
      <trkpt lat="43.67005" lon="3.33558">
        <ele>227.8</ele>
        <time>2016-05-16T07:31:47Z</time>
      </trkpt>
      <trkpt lat="43.67014" lon="3.33554">
        <ele>228.2</ele>
        <time>2016-05-16T07:31:50Z</time>
      </trkpt>
      <trkpt lat="43.67019" lon="3.33541">
        <ele>228.9</ele>
        <time>2016-05-16T07:31:52Z</time>
      </trkpt>
      <trkpt lat="43.67028" lon="3.33524">
        <ele>229.4</ele>
        <time>2016-05-16T07:31:54Z</time>
      </trkpt>
      <trkpt lat="43.67035" lon="3.3352">
        <ele>229.3</ele>
        <time>2016-05-16T07:31:55Z</time>
      </trkpt>
      <trkpt lat="43.67049" lon="3.33515">
        <ele>228.1</ele>
        <time>2016-05-16T07:31:57Z</time>
      </trkpt>
      <trkpt lat="43.67057" lon="3.33514">
        <ele>226.7</ele>
        <time>2016-05-16T07:31:58Z</time>
      </trkpt>
      <trkpt lat="43.67069" lon="3.33511">
        <ele>225.9</ele>
        <time>2016-05-16T07:32:00Z</time>
      </trkpt>
      <trkpt lat="43.67079" lon="3.33514">
        <ele>224.1</ele>
        <time>2016-05-16T07:32:02Z</time>
      </trkpt>
      <trkpt lat="43.67087" lon="3.33514">
        <ele>222.1</ele>
        <time>2016-05-16T07:32:04Z</time>
      </trkpt>
      <trkpt lat="43.67096" lon="3.33512">
        <ele>220.8</ele>
        <time>2016-05-16T07:32:06Z</time>
      </trkpt>
      <trkpt lat="43.67107" lon="3.33509">
        <ele>218.9</ele>
        <time>2016-05-16T07:32:08Z</time>
      </trkpt>
      <trkpt lat="43.67118" lon="3.33504">
        <ele>219.2</ele>
        <time>2016-05-16T07:32:10Z</time>
      </trkpt>
      <trkpt lat="43.6713" lon="3.33498">
        <ele>219.3</ele>
        <time>2016-05-16T07:32:12Z</time>
      </trkpt>
      <trkpt lat="43.67142" lon="3.33495">
        <ele>219.1</ele>
        <time>2016-05-16T07:32:14Z</time>
      </trkpt>
      <trkpt lat="43.67155" lon="3.3349">
        <ele>219.1</ele>
        <time>2016-05-16T07:32:16Z</time>
      </trkpt>
      <trkpt lat="43.67166" lon="3.33485">
        <ele>218.8</ele>
        <time>2016-05-16T07:32:18Z</time>
      </trkpt>
      <trkpt lat="43.67176" lon="3.33477">
        <ele>217.6</ele>
        <time>2016-05-16T07:32:20Z</time>
      </trkpt>
      <trkpt lat="43.67186" lon="3.33484">
        <ele>216.8</ele>
        <time>2016-05-16T07:32:22Z</time>
      </trkpt>
      <trkpt lat="43.67195" lon="3.33492">
        <ele>216.5</ele>
        <time>2016-05-16T07:32:24Z</time>
      </trkpt>
      <trkpt lat="43.67202" lon="3.33499">
        <ele>216.3</ele>
        <time>2016-05-16T07:32:26Z</time>
      </trkpt>
      <trkpt lat="43.67208" lon="3.33505">
        <ele>216.2</ele>
        <time>2016-05-16T07:32:28Z</time>
      </trkpt>
      <trkpt lat="43.67216" lon="3.33509">
        <ele>216.2</ele>
        <time>2016-05-16T07:32:31Z</time>
      </trkpt>
      <trkpt lat="43.67223" lon="3.33514">
        <ele>216</ele>
        <time>2016-05-16T07:32:34Z</time>
      </trkpt>
      <trkpt lat="43.67232" lon="3.33511">
        <ele>213.3</ele>
        <time>2016-05-16T07:32:37Z</time>
      </trkpt>
      <trkpt lat="43.67242" lon="3.33502">
        <ele>212.3</ele>
        <time>2016-05-16T07:32:39Z</time>
      </trkpt>
      <trkpt lat="43.6725" lon="3.335">
        <ele>211.4</ele>
        <time>2016-05-16T07:32:40Z</time>
      </trkpt>
      <trkpt lat="43.67257" lon="3.33499">
        <ele>210.8</ele>
        <time>2016-05-16T07:32:41Z</time>
      </trkpt>
      <trkpt lat="43.67264" lon="3.33502">
        <ele>210.4</ele>
        <time>2016-05-16T07:32:42Z</time>
      </trkpt>
      <trkpt lat="43.67273" lon="3.33514">
        <ele>209.6</ele>
        <time>2016-05-16T07:32:44Z</time>
      </trkpt>
      <trkpt lat="43.6728" lon="3.3352">
        <ele>208.2</ele>
        <time>2016-05-16T07:32:46Z</time>
      </trkpt>
      <trkpt lat="43.67288" lon="3.33525">
        <ele>208</ele>
        <time>2016-05-16T07:32:49Z</time>
      </trkpt>
      <trkpt lat="43.67297" lon="3.33531">
        <ele>207.7</ele>
        <time>2016-05-16T07:32:52Z</time>
      </trkpt>
      <trkpt lat="43.67302" lon="3.33539">
        <ele>207.5</ele>
        <time>2016-05-16T07:32:54Z</time>
      </trkpt>
      <trkpt lat="43.67308" lon="3.33551">
        <ele>206.7</ele>
        <time>2016-05-16T07:32:56Z</time>
      </trkpt>
      <trkpt lat="43.67316" lon="3.33556">
        <ele>205.7</ele>
        <time>2016-05-16T07:32:58Z</time>
      </trkpt>
      <trkpt lat="43.67325" lon="3.33558">
        <ele>205.6</ele>
        <time>2016-05-16T07:33:01Z</time>
      </trkpt>
      <trkpt lat="43.67331" lon="3.33566">
        <ele>205.4</ele>
        <time>2016-05-16T07:33:06Z</time>
      </trkpt>
      <trkpt lat="43.67334" lon="3.33577">
        <ele>205</ele>
        <time>2016-05-16T07:33:10Z</time>
      </trkpt>
      <trkpt lat="43.6734" lon="3.33583">
        <ele>204.8</ele>
        <time>2016-05-16T07:33:13Z</time>
      </trkpt>
      <trkpt lat="43.67345" lon="3.33593">
        <ele>204.8</ele>
        <time>2016-05-16T07:33:16Z</time>
      </trkpt>
      <trkpt lat="43.67351" lon="3.33605">
        <ele>204.8</ele>
        <time>2016-05-16T07:33:19Z</time>
      </trkpt>
      <trkpt lat="43.67359" lon="3.33612">
        <ele>204.6</ele>
        <time>2016-05-16T07:33:22Z</time>
      </trkpt>
      <trkpt lat="43.67365" lon="3.33618">
        <ele>204</ele>
        <time>2016-05-16T07:33:27Z</time>
      </trkpt>
      <trkpt lat="43.6737" lon="3.3363">
        <ele>203.9</ele>
        <time>2016-05-16T07:33:31Z</time>
      </trkpt>
      <trkpt lat="43.67373" lon="3.33641">
        <ele>204.1</ele>
        <time>2016-05-16T07:33:34Z</time>
      </trkpt>
      <trkpt lat="43.67378" lon="3.33649">
        <ele>204.3</ele>
        <time>2016-05-16T07:33:38Z</time>
      </trkpt>
      <trkpt lat="43.67388" lon="3.33641">
        <ele>206</ele>
        <time>2016-05-16T07:33:41Z</time>
      </trkpt>
      <trkpt lat="43.67396" lon="3.33641">
        <ele>207.3</ele>
        <time>2016-05-16T07:33:43Z</time>
      </trkpt>
      <trkpt lat="43.67404" lon="3.33639">
        <ele>206.4</ele>
        <time>2016-05-16T07:33:45Z</time>
      </trkpt>
      <trkpt lat="43.67414" lon="3.33629">
        <ele>205.8</ele>
        <time>2016-05-16T07:33:47Z</time>
      </trkpt>
      <trkpt lat="43.67425" lon="3.33627">
        <ele>205.4</ele>
        <time>2016-05-16T07:33:49Z</time>
      </trkpt>
      <trkpt lat="43.67435" lon="3.33629">
        <ele>205.8</ele>
        <time>2016-05-16T07:33:51Z</time>
      </trkpt>
      <trkpt lat="43.67447" lon="3.33629">
        <ele>204.9</ele>
        <time>2016-05-16T07:33:53Z</time>
      </trkpt>
      <trkpt lat="43.67454" lon="3.33627">
        <ele>204.7</ele>
        <time>2016-05-16T07:33:54Z</time>
      </trkpt>
      <trkpt lat="43.67466" lon="3.33618">
        <ele>204.2</ele>
        <time>2016-05-16T07:33:56Z</time>
      </trkpt>
      <trkpt lat="43.67478" lon="3.33618">
        <ele>203</ele>
        <time>2016-05-16T07:33:58Z</time>
      </trkpt>
      <trkpt lat="43.67485" lon="3.33622">
        <ele>201.9</ele>
        <time>2016-05-16T07:33:59Z</time>
      </trkpt>
      <trkpt lat="43.67492" lon="3.33622">
        <ele>201.4</ele>
        <time>2016-05-16T07:34:02Z</time>
      </trkpt>
      <trkpt lat="43.67497" lon="3.3363">
        <ele>201</ele>
        <time>2016-05-16T07:34:05Z</time>
      </trkpt>
      <trkpt lat="43.675" lon="3.33641">
        <ele>200</ele>
        <time>2016-05-16T07:34:10Z</time>
      </trkpt>
      <trkpt lat="43.675" lon="3.33653">
        <ele>199.4</ele>
        <time>2016-05-16T07:34:14Z</time>
      </trkpt>
      <trkpt lat="43.67499" lon="3.33663">
        <ele>199.1</ele>
        <time>2016-05-16T07:34:18Z</time>
      </trkpt>
      <trkpt lat="43.67498" lon="3.33674">
        <ele>198.3</ele>
        <time>2016-05-16T07:34:24Z</time>
      </trkpt>
      <trkpt lat="43.67501" lon="3.33683">
        <ele>197.9</ele>
        <time>2016-05-16T07:34:27Z</time>
      </trkpt>
      <trkpt lat="43.67509" lon="3.33692">
        <ele>197.1</ele>
        <time>2016-05-16T07:34:30Z</time>
      </trkpt>
      <trkpt lat="43.67516" lon="3.33705">
        <ele>195.9</ele>
        <time>2016-05-16T07:34:32Z</time>
      </trkpt>
      <trkpt lat="43.67524" lon="3.33717">
        <ele>194.3</ele>
        <time>2016-05-16T07:34:34Z</time>
      </trkpt>
      <trkpt lat="43.6753" lon="3.33724">
        <ele>194</ele>
        <time>2016-05-16T07:34:36Z</time>
      </trkpt>
      <trkpt lat="43.67532" lon="3.33737">
        <ele>194</ele>
        <time>2016-05-16T07:34:40Z</time>
      </trkpt>
      <trkpt lat="43.67532" lon="3.33748">
        <ele>194.1</ele>
        <time>2016-05-16T07:34:43Z</time>
      </trkpt>
      <trkpt lat="43.67535" lon="3.3376">
        <ele>194.2</ele>
        <time>2016-05-16T07:34:49Z</time>
      </trkpt>
      <trkpt lat="43.67537" lon="3.33772">
        <ele>194.6</ele>
        <time>2016-05-16T07:34:53Z</time>
      </trkpt>
      <trkpt lat="43.67541" lon="3.33781">
        <ele>195.4</ele>
        <time>2016-05-16T07:35:00Z</time>
      </trkpt>
      <trkpt lat="43.67542" lon="3.33793">
        <ele>195.9</ele>
        <time>2016-05-16T07:35:04Z</time>
      </trkpt>
      <trkpt lat="43.6754" lon="3.33807">
        <ele>196.3</ele>
        <time>2016-05-16T07:35:08Z</time>
      </trkpt>
      <trkpt lat="43.67535" lon="3.33814">
        <ele>196.5</ele>
        <time>2016-05-16T07:35:10Z</time>
      </trkpt>
      <trkpt lat="43.67539" lon="3.33824">
        <ele>197.2</ele>
        <time>2016-05-16T07:35:13Z</time>
      </trkpt>
      <trkpt lat="43.67549" lon="3.33826">
        <ele>197.7</ele>
        <time>2016-05-16T07:35:15Z</time>
      </trkpt>
      <trkpt lat="43.67555" lon="3.33834">
        <ele>198.1</ele>
        <time>2016-05-16T07:35:18Z</time>
      </trkpt>
      <trkpt lat="43.67554" lon="3.33844">
        <ele>198.9</ele>
        <time>2016-05-16T07:35:25Z</time>
      </trkpt>
      <trkpt lat="43.67558" lon="3.33853">
        <ele>200.5</ele>
        <time>2016-05-16T07:35:30Z</time>
      </trkpt>
      <trkpt lat="43.67564" lon="3.33861">
        <ele>200.7</ele>
        <time>2016-05-16T07:35:35Z</time>
      </trkpt>
      <trkpt lat="43.67564" lon="3.33871">
        <ele>201.1</ele>
        <time>2016-05-16T07:35:40Z</time>
      </trkpt>
      <trkpt lat="43.67561" lon="3.33882">
        <ele>201.5</ele>
        <time>2016-05-16T07:35:44Z</time>
      </trkpt>
      <trkpt lat="43.67558" lon="3.33894">
        <ele>202.3</ele>
        <time>2016-05-16T07:35:49Z</time>
      </trkpt>
      <trkpt lat="43.67558" lon="3.33905">
        <ele>202.7</ele>
        <time>2016-05-16T07:35:52Z</time>
      </trkpt>
      <trkpt lat="43.67558" lon="3.33916">
        <ele>203.4</ele>
        <time>2016-05-16T07:35:56Z</time>
      </trkpt>
      <trkpt lat="43.67558" lon="3.33927">
        <ele>203.9</ele>
        <time>2016-05-16T07:36:00Z</time>
      </trkpt>
      <trkpt lat="43.6756" lon="3.33939">
        <ele>204.4</ele>
        <time>2016-05-16T07:36:04Z</time>
      </trkpt>
      <trkpt lat="43.67562" lon="3.33951">
        <ele>204.7</ele>
        <time>2016-05-16T07:36:07Z</time>
      </trkpt>
      <trkpt lat="43.67564" lon="3.33962">
        <ele>205</ele>
        <time>2016-05-16T07:36:10Z</time>
      </trkpt>
      <trkpt lat="43.67569" lon="3.33975">
        <ele>205.9</ele>
        <time>2016-05-16T07:36:13Z</time>
      </trkpt>
      <trkpt lat="43.67578" lon="3.33984">
        <ele>205.7</ele>
        <time>2016-05-16T07:36:15Z</time>
      </trkpt>
      <trkpt lat="43.67588" lon="3.33993">
        <ele>205.5</ele>
        <time>2016-05-16T07:36:17Z</time>
      </trkpt>
      <trkpt lat="43.67599" lon="3.34006">
        <ele>206.9</ele>
        <time>2016-05-16T07:36:19Z</time>
      </trkpt>
      <trkpt lat="43.67605" lon="3.34014">
        <ele>207</ele>
        <time>2016-05-16T07:36:20Z</time>
      </trkpt>
      <trkpt lat="43.6761" lon="3.34021">
        <ele>206.8</ele>
        <time>2016-05-16T07:36:21Z</time>
      </trkpt>
      <trkpt lat="43.67615" lon="3.34029">
        <ele>206.8</ele>
        <time>2016-05-16T07:36:22Z</time>
      </trkpt>
      <trkpt lat="43.67621" lon="3.34037">
        <ele>206.6</ele>
        <time>2016-05-16T07:36:23Z</time>
      </trkpt>
      <trkpt lat="43.67627" lon="3.34046">
        <ele>206.8</ele>
        <time>2016-05-16T07:36:24Z</time>
      </trkpt>
      <trkpt lat="43.67631" lon="3.34053">
        <ele>207.1</ele>
        <time>2016-05-16T07:36:25Z</time>
      </trkpt>
      <trkpt lat="43.67643" lon="3.34062">
        <ele>206.4</ele>
        <time>2016-05-16T07:36:27Z</time>
      </trkpt>
      <trkpt lat="43.67656" lon="3.34061">
        <ele>205.8</ele>
        <time>2016-05-16T07:36:29Z</time>
      </trkpt>
      <trkpt lat="43.67668" lon="3.34064">
        <ele>205.6</ele>
        <time>2016-05-16T07:36:31Z</time>
      </trkpt>
      <trkpt lat="43.67678" lon="3.34071">
        <ele>205.3</ele>
        <time>2016-05-16T07:36:33Z</time>
      </trkpt>
      <trkpt lat="43.67687" lon="3.34075">
        <ele>204.7</ele>
        <time>2016-05-16T07:36:35Z</time>
      </trkpt>
      <trkpt lat="43.67699" lon="3.34081">
        <ele>203.5</ele>
        <time>2016-05-16T07:36:37Z</time>
      </trkpt>
      <trkpt lat="43.67704" lon="3.34089">
        <ele>202.5</ele>
        <time>2016-05-16T07:36:38Z</time>
      </trkpt>
      <trkpt lat="43.67709" lon="3.34102">
        <ele>201.9</ele>
        <time>2016-05-16T07:36:39Z</time>
      </trkpt>
      <trkpt lat="43.67713" lon="3.34112">
        <ele>200.9</ele>
        <time>2016-05-16T07:36:40Z</time>
      </trkpt>
      <trkpt lat="43.6772" lon="3.34122">
        <ele>200</ele>
        <time>2016-05-16T07:36:41Z</time>
      </trkpt>
      <trkpt lat="43.67727" lon="3.34127">
        <ele>198.5</ele>
        <time>2016-05-16T07:36:42Z</time>
      </trkpt>
      <trkpt lat="43.67734" lon="3.34138">
        <ele>195</ele>
        <time>2016-05-16T07:36:44Z</time>
      </trkpt>
      <trkpt lat="43.67742" lon="3.34149">
        <ele>192.3</ele>
        <time>2016-05-16T07:36:46Z</time>
      </trkpt>
      <trkpt lat="43.67748" lon="3.34169">
        <ele>190.8</ele>
        <time>2016-05-16T07:36:48Z</time>
      </trkpt>
      <trkpt lat="43.67751" lon="3.34178">
        <ele>189.5</ele>
        <time>2016-05-16T07:36:49Z</time>
      </trkpt>
      <trkpt lat="43.67758" lon="3.34194">
        <ele>188.6</ele>
        <time>2016-05-16T07:36:51Z</time>
      </trkpt>
      <trkpt lat="43.67769" lon="3.34206">
        <ele>186.9</ele>
        <time>2016-05-16T07:36:53Z</time>
      </trkpt>
      <trkpt lat="43.67772" lon="3.34215">
        <ele>186.5</ele>
        <time>2016-05-16T07:36:54Z</time>
      </trkpt>
      <trkpt lat="43.6778" lon="3.34231">
        <ele>185.7</ele>
        <time>2016-05-16T07:36:56Z</time>
      </trkpt>
      <trkpt lat="43.67784" lon="3.34242">
        <ele>185.6</ele>
        <time>2016-05-16T07:36:57Z</time>
      </trkpt>
      <trkpt lat="43.6779" lon="3.3426">
        <ele>185.1</ele>
        <time>2016-05-16T07:36:59Z</time>
      </trkpt>
      <trkpt lat="43.67789" lon="3.34271">
        <ele>184.4</ele>
        <time>2016-05-16T07:37:00Z</time>
      </trkpt>
      <trkpt lat="43.67788" lon="3.34282">
        <ele>182.9</ele>
        <time>2016-05-16T07:37:01Z</time>
      </trkpt>
      <trkpt lat="43.6779" lon="3.34299">
        <ele>180.4</ele>
        <time>2016-05-16T07:37:03Z</time>
      </trkpt>
      <trkpt lat="43.67791" lon="3.34316">
        <ele>177.6</ele>
        <time>2016-05-16T07:37:05Z</time>
      </trkpt>
      <trkpt lat="43.67791" lon="3.34332">
        <ele>174.8</ele>
        <time>2016-05-16T07:37:07Z</time>
      </trkpt>
      <trkpt lat="43.67791" lon="3.34343">
        <ele>174.5</ele>
        <time>2016-05-16T07:37:09Z</time>
      </trkpt>
      <trkpt lat="43.67791" lon="3.34353">
        <ele>173.5</ele>
        <time>2016-05-16T07:37:11Z</time>
      </trkpt>
      <trkpt lat="43.67788" lon="3.34365">
        <ele>173.3</ele>
        <time>2016-05-16T07:37:14Z</time>
      </trkpt>
      <trkpt lat="43.67785" lon="3.34379">
        <ele>173.2</ele>
        <time>2016-05-16T07:37:17Z</time>
      </trkpt>
      <trkpt lat="43.67782" lon="3.34389">
        <ele>172.7</ele>
        <time>2016-05-16T07:37:19Z</time>
      </trkpt>
      <trkpt lat="43.67779" lon="3.34399">
        <ele>171.7</ele>
        <time>2016-05-16T07:37:21Z</time>
      </trkpt>
      <trkpt lat="43.67776" lon="3.34408">
        <ele>171.5</ele>
        <time>2016-05-16T07:37:23Z</time>
      </trkpt>
      <trkpt lat="43.67774" lon="3.34419">
        <ele>172.3</ele>
        <time>2016-05-16T07:37:25Z</time>
      </trkpt>
      <trkpt lat="43.67773" lon="3.34429">
        <ele>172.3</ele>
        <time>2016-05-16T07:37:27Z</time>
      </trkpt>
      <trkpt lat="43.6777" lon="3.34443">
        <ele>172.4</ele>
        <time>2016-05-16T07:37:30Z</time>
      </trkpt>
      <trkpt lat="43.67767" lon="3.34452">
        <ele>172.5</ele>
        <time>2016-05-16T07:37:32Z</time>
      </trkpt>
      <trkpt lat="43.67763" lon="3.34461">
        <ele>172.8</ele>
        <time>2016-05-16T07:37:35Z</time>
      </trkpt>
      <trkpt lat="43.67758" lon="3.34469">
        <ele>172.8</ele>
        <time>2016-05-16T07:37:38Z</time>
      </trkpt>
      <trkpt lat="43.67754" lon="3.34479">
        <ele>172.9</ele>
        <time>2016-05-16T07:37:41Z</time>
      </trkpt>
      <trkpt lat="43.67746" lon="3.34487">
        <ele>173.1</ele>
        <time>2016-05-16T07:37:44Z</time>
      </trkpt>
      <trkpt lat="43.67738" lon="3.34488">
        <ele>173.8</ele>
        <time>2016-05-16T07:37:47Z</time>
      </trkpt>
      <trkpt lat="43.6773" lon="3.34495">
        <ele>174</ele>
        <time>2016-05-16T07:37:51Z</time>
      </trkpt>
      <trkpt lat="43.67723" lon="3.34497">
        <ele>174.1</ele>
        <time>2016-05-16T07:37:54Z</time>
      </trkpt>
      <trkpt lat="43.67715" lon="3.34501">
        <ele>174.4</ele>
        <time>2016-05-16T07:37:58Z</time>
      </trkpt>
      <trkpt lat="43.67709" lon="3.34507">
        <ele>174.8</ele>
        <time>2016-05-16T07:38:01Z</time>
      </trkpt>
      <trkpt lat="43.67702" lon="3.34513">
        <ele>175.2</ele>
        <time>2016-05-16T07:38:04Z</time>
      </trkpt>
      <trkpt lat="43.67694" lon="3.34518">
        <ele>175.8</ele>
        <time>2016-05-16T07:38:08Z</time>
      </trkpt>
      <trkpt lat="43.67687" lon="3.34522">
        <ele>176.1</ele>
        <time>2016-05-16T07:38:11Z</time>
      </trkpt>
      <trkpt lat="43.6768" lon="3.3453">
        <ele>176.5</ele>
        <time>2016-05-16T07:38:14Z</time>
      </trkpt>
      <trkpt lat="43.67672" lon="3.3453">
        <ele>176.9</ele>
        <time>2016-05-16T07:38:17Z</time>
      </trkpt>
      <trkpt lat="43.67671" lon="3.3454">
        <ele>177.2</ele>
        <time>2016-05-16T07:38:20Z</time>
      </trkpt>
      <trkpt lat="43.67664" lon="3.34551">
        <ele>177.5</ele>
        <time>2016-05-16T07:38:23Z</time>
      </trkpt>
      <trkpt lat="43.67657" lon="3.34556">
        <ele>178</ele>
        <time>2016-05-16T07:38:26Z</time>
      </trkpt>
      <trkpt lat="43.67649" lon="3.34562">
        <ele>179.1</ele>
        <time>2016-05-16T07:38:29Z</time>
      </trkpt>
      <trkpt lat="43.67644" lon="3.34572">
        <ele>179.6</ele>
        <time>2016-05-16T07:38:31Z</time>
      </trkpt>
      <trkpt lat="43.67639" lon="3.3458">
        <ele>179.7</ele>
        <time>2016-05-16T07:38:33Z</time>
      </trkpt>
      <trkpt lat="43.67631" lon="3.34587">
        <ele>179.8</ele>
        <time>2016-05-16T07:38:36Z</time>
      </trkpt>
      <trkpt lat="43.67622" lon="3.34591">
        <ele>179.9</ele>
        <time>2016-05-16T07:38:40Z</time>
      </trkpt>
      <trkpt lat="43.67615" lon="3.34594">
        <ele>180</ele>
        <time>2016-05-16T07:38:43Z</time>
      </trkpt>
      <trkpt lat="43.67605" lon="3.346">
        <ele>180.3</ele>
        <time>2016-05-16T07:38:47Z</time>
      </trkpt>
      <trkpt lat="43.67596" lon="3.34606">
        <ele>180.4</ele>
        <time>2016-05-16T07:38:50Z</time>
      </trkpt>
      <trkpt lat="43.67589" lon="3.34612">
        <ele>180.6</ele>
        <time>2016-05-16T07:38:53Z</time>
      </trkpt>
      <trkpt lat="43.67581" lon="3.34619">
        <ele>181</ele>
        <time>2016-05-16T07:38:56Z</time>
      </trkpt>
      <trkpt lat="43.67574" lon="3.34627">
        <ele>181.6</ele>
        <time>2016-05-16T07:38:59Z</time>
      </trkpt>
      <trkpt lat="43.67569" lon="3.3464">
        <ele>182.3</ele>
        <time>2016-05-16T07:39:03Z</time>
      </trkpt>
      <trkpt lat="43.67564" lon="3.34647">
        <ele>182.6</ele>
        <time>2016-05-16T07:39:06Z</time>
      </trkpt>
      <trkpt lat="43.67558" lon="3.34658">
        <ele>182.9</ele>
        <time>2016-05-16T07:39:09Z</time>
      </trkpt>
      <trkpt lat="43.67554" lon="3.34667">
        <ele>184.5</ele>
        <time>2016-05-16T07:39:11Z</time>
      </trkpt>
      <trkpt lat="43.6755" lon="3.34677">
        <ele>186.1</ele>
        <time>2016-05-16T07:39:13Z</time>
      </trkpt>
      <trkpt lat="43.67546" lon="3.34686">
        <ele>186.8</ele>
        <time>2016-05-16T07:39:15Z</time>
      </trkpt>
      <trkpt lat="43.67541" lon="3.34696">
        <ele>185.9</ele>
        <time>2016-05-16T07:39:17Z</time>
      </trkpt>
      <trkpt lat="43.67534" lon="3.34706">
        <ele>186.1</ele>
        <time>2016-05-16T07:39:19Z</time>
      </trkpt>
      <trkpt lat="43.6753" lon="3.34714">
        <ele>185.6</ele>
        <time>2016-05-16T07:39:21Z</time>
      </trkpt>
      <trkpt lat="43.67523" lon="3.34723">
        <ele>185.3</ele>
        <time>2016-05-16T07:39:23Z</time>
      </trkpt>
      <trkpt lat="43.67516" lon="3.34729">
        <ele>185.7</ele>
        <time>2016-05-16T07:39:25Z</time>
      </trkpt>
      <trkpt lat="43.67515" lon="3.34742">
        <ele>185.8</ele>
        <time>2016-05-16T07:39:29Z</time>
      </trkpt>
      <trkpt lat="43.67515" lon="3.34755">
        <ele>186.7</ele>
        <time>2016-05-16T07:39:31Z</time>
      </trkpt>
      <trkpt lat="43.67512" lon="3.34771">
        <ele>187.7</ele>
        <time>2016-05-16T07:39:33Z</time>
      </trkpt>
      <trkpt lat="43.67511" lon="3.34788">
        <ele>187.9</ele>
        <time>2016-05-16T07:39:35Z</time>
      </trkpt>
      <trkpt lat="43.6751" lon="3.34807">
        <ele>187.5</ele>
        <time>2016-05-16T07:39:37Z</time>
      </trkpt>
      <trkpt lat="43.67511" lon="3.34818">
        <ele>187</ele>
        <time>2016-05-16T07:39:38Z</time>
      </trkpt>
      <trkpt lat="43.6751" lon="3.34832">
        <ele>186.5</ele>
        <time>2016-05-16T07:39:40Z</time>
      </trkpt>
      <trkpt lat="43.67509" lon="3.34848">
        <ele>186.5</ele>
        <time>2016-05-16T07:39:42Z</time>
      </trkpt>
      <trkpt lat="43.67502" lon="3.3486">
        <ele>186.3</ele>
        <time>2016-05-16T07:39:44Z</time>
      </trkpt>
      <trkpt lat="43.67496" lon="3.34872">
        <ele>186.6</ele>
        <time>2016-05-16T07:39:46Z</time>
      </trkpt>
      <trkpt lat="43.67489" lon="3.34881">
        <ele>186.2</ele>
        <time>2016-05-16T07:39:48Z</time>
      </trkpt>
      <trkpt lat="43.67481" lon="3.34885">
        <ele>186.2</ele>
        <time>2016-05-16T07:39:51Z</time>
      </trkpt>
      <trkpt lat="43.67474" lon="3.34892">
        <ele>186.9</ele>
        <time>2016-05-16T07:39:54Z</time>
      </trkpt>
      <trkpt lat="43.67467" lon="3.349">
        <ele>187.1</ele>
        <time>2016-05-16T07:39:57Z</time>
      </trkpt>
      <trkpt lat="43.67459" lon="3.34907">
        <ele>187.5</ele>
        <time>2016-05-16T07:40:01Z</time>
      </trkpt>
      <trkpt lat="43.67454" lon="3.34916">
        <ele>187.6</ele>
        <time>2016-05-16T07:40:06Z</time>
      </trkpt>
      <trkpt lat="43.67452" lon="3.34925">
        <ele>187.7</ele>
        <time>2016-05-16T07:40:09Z</time>
      </trkpt>
      <trkpt lat="43.6745" lon="3.34939">
        <ele>188.2</ele>
        <time>2016-05-16T07:40:12Z</time>
      </trkpt>
      <trkpt lat="43.6745" lon="3.34949">
        <ele>188.5</ele>
        <time>2016-05-16T07:40:14Z</time>
      </trkpt>
      <trkpt lat="43.6745" lon="3.34961">
        <ele>188.6</ele>
        <time>2016-05-16T07:40:16Z</time>
      </trkpt>
      <trkpt lat="43.67446" lon="3.34975">
        <ele>188.3</ele>
        <time>2016-05-16T07:40:18Z</time>
      </trkpt>
      <trkpt lat="43.67445" lon="3.34991">
        <ele>189.1</ele>
        <time>2016-05-16T07:40:20Z</time>
      </trkpt>
      <trkpt lat="43.67444" lon="3.35003">
        <ele>189.4</ele>
        <time>2016-05-16T07:40:22Z</time>
      </trkpt>
      <trkpt lat="43.67445" lon="3.35017">
        <ele>189.4</ele>
        <time>2016-05-16T07:40:24Z</time>
      </trkpt>
      <trkpt lat="43.67445" lon="3.35029">
        <ele>188.6</ele>
        <time>2016-05-16T07:40:26Z</time>
      </trkpt>
      <trkpt lat="43.67445" lon="3.35039">
        <ele>188</ele>
        <time>2016-05-16T07:40:28Z</time>
      </trkpt>
      <trkpt lat="43.67444" lon="3.35049">
        <ele>186.4</ele>
        <time>2016-05-16T07:40:30Z</time>
      </trkpt>
      <trkpt lat="43.67442" lon="3.35063">
        <ele>185.7</ele>
        <time>2016-05-16T07:40:32Z</time>
      </trkpt>
      <trkpt lat="43.67442" lon="3.3508">
        <ele>185</ele>
        <time>2016-05-16T07:40:34Z</time>
      </trkpt>
      <trkpt lat="43.67439" lon="3.35096">
        <ele>184.3</ele>
        <time>2016-05-16T07:40:36Z</time>
      </trkpt>
      <trkpt lat="43.67436" lon="3.35105">
        <ele>183.9</ele>
        <time>2016-05-16T07:40:37Z</time>
      </trkpt>
      <trkpt lat="43.6743" lon="3.35121">
        <ele>183.7</ele>
        <time>2016-05-16T07:40:39Z</time>
      </trkpt>
      <trkpt lat="43.67423" lon="3.35134">
        <ele>183.3</ele>
        <time>2016-05-16T07:40:41Z</time>
      </trkpt>
      <trkpt lat="43.67416" lon="3.35139">
        <ele>182.5</ele>
        <time>2016-05-16T07:40:42Z</time>
      </trkpt>
      <trkpt lat="43.67405" lon="3.35153">
        <ele>182.9</ele>
        <time>2016-05-16T07:40:44Z</time>
      </trkpt>
      <trkpt lat="43.67399" lon="3.3517">
        <ele>183</ele>
        <time>2016-05-16T07:40:46Z</time>
      </trkpt>
      <trkpt lat="43.67394" lon="3.35187">
        <ele>183.2</ele>
        <time>2016-05-16T07:40:48Z</time>
      </trkpt>
      <trkpt lat="43.6739" lon="3.35201">
        <ele>183.2</ele>
        <time>2016-05-16T07:40:50Z</time>
      </trkpt>
      <trkpt lat="43.67383" lon="3.3521">
        <ele>183.1</ele>
        <time>2016-05-16T07:40:52Z</time>
      </trkpt>
      <trkpt lat="43.67377" lon="3.35217">
        <ele>182.6</ele>
        <time>2016-05-16T07:40:54Z</time>
      </trkpt>
      <trkpt lat="43.67371" lon="3.35223">
        <ele>182.3</ele>
        <time>2016-05-16T07:40:56Z</time>
      </trkpt>
      <trkpt lat="43.67365" lon="3.35229">
        <ele>183.1</ele>
        <time>2016-05-16T07:40:58Z</time>
      </trkpt>
      <trkpt lat="43.67359" lon="3.35235">
        <ele>183.3</ele>
        <time>2016-05-16T07:41:00Z</time>
      </trkpt>
      <trkpt lat="43.67351" lon="3.35241">
        <ele>183.8</ele>
        <time>2016-05-16T07:41:02Z</time>
      </trkpt>
      <trkpt lat="43.67343" lon="3.35251">
        <ele>184.5</ele>
        <time>2016-05-16T07:41:04Z</time>
      </trkpt>
      <trkpt lat="43.67336" lon="3.35257">
        <ele>184.9</ele>
        <time>2016-05-16T07:41:06Z</time>
      </trkpt>
      <trkpt lat="43.67327" lon="3.35266">
        <ele>183.9</ele>
        <time>2016-05-16T07:41:09Z</time>
      </trkpt>
      <trkpt lat="43.67319" lon="3.35273">
        <ele>184.4</ele>
        <time>2016-05-16T07:41:11Z</time>
      </trkpt>
      <trkpt lat="43.67311" lon="3.3528">
        <ele>184.6</ele>
        <time>2016-05-16T07:41:14Z</time>
      </trkpt>
      <trkpt lat="43.67303" lon="3.35288">
        <ele>184.7</ele>
        <time>2016-05-16T07:41:17Z</time>
      </trkpt>
      <trkpt lat="43.67295" lon="3.35296">
        <ele>184.8</ele>
        <time>2016-05-16T07:41:20Z</time>
      </trkpt>
      <trkpt lat="43.6729" lon="3.35303">
        <ele>185.2</ele>
        <time>2016-05-16T07:41:22Z</time>
      </trkpt>
      <trkpt lat="43.67282" lon="3.35312">
        <ele>185.3</ele>
        <time>2016-05-16T07:41:25Z</time>
      </trkpt>
      <trkpt lat="43.67273" lon="3.35319">
        <ele>185.6</ele>
        <time>2016-05-16T07:41:28Z</time>
      </trkpt>
      <trkpt lat="43.67264" lon="3.35326">
        <ele>185.7</ele>
        <time>2016-05-16T07:41:31Z</time>
      </trkpt>
      <trkpt lat="43.67257" lon="3.3533">
        <ele>186.5</ele>
        <time>2016-05-16T07:41:33Z</time>
      </trkpt>
      <trkpt lat="43.67249" lon="3.35334">
        <ele>187.5</ele>
        <time>2016-05-16T07:41:36Z</time>
      </trkpt>
      <trkpt lat="43.67242" lon="3.35337">
        <ele>187.7</ele>
        <time>2016-05-16T07:41:38Z</time>
      </trkpt>
      <trkpt lat="43.67234" lon="3.35341">
        <ele>187.7</ele>
        <time>2016-05-16T07:41:41Z</time>
      </trkpt>
      <trkpt lat="43.67225" lon="3.35344">
        <ele>187.7</ele>
        <time>2016-05-16T07:41:44Z</time>
      </trkpt>
      <trkpt lat="43.67217" lon="3.35345">
        <ele>187.2</ele>
        <time>2016-05-16T07:41:46Z</time>
      </trkpt>
      <trkpt lat="43.67209" lon="3.35347">
        <ele>187.3</ele>
        <time>2016-05-16T07:41:48Z</time>
      </trkpt>
      <trkpt lat="43.67201" lon="3.3535">
        <ele>186.7</ele>
        <time>2016-05-16T07:41:50Z</time>
      </trkpt>
      <trkpt lat="43.67193" lon="3.35354">
        <ele>185.9</ele>
        <time>2016-05-16T07:41:52Z</time>
      </trkpt>
      <trkpt lat="43.67184" lon="3.35356">
        <ele>185.9</ele>
        <time>2016-05-16T07:41:54Z</time>
      </trkpt>
      <trkpt lat="43.67176" lon="3.35359">
        <ele>185.9</ele>
        <time>2016-05-16T07:41:56Z</time>
      </trkpt>
      <trkpt lat="43.67169" lon="3.3536">
        <ele>186</ele>
        <time>2016-05-16T07:41:58Z</time>
      </trkpt>
      <trkpt lat="43.6716" lon="3.35362">
        <ele>186.2</ele>
        <time>2016-05-16T07:42:00Z</time>
      </trkpt>
      <trkpt lat="43.67152" lon="3.35365">
        <ele>185.8</ele>
        <time>2016-05-16T07:42:02Z</time>
      </trkpt>
      <trkpt lat="43.67145" lon="3.35368">
        <ele>185.7</ele>
        <time>2016-05-16T07:42:04Z</time>
      </trkpt>
      <trkpt lat="43.67137" lon="3.35375">
        <ele>186.4</ele>
        <time>2016-05-16T07:42:07Z</time>
      </trkpt>
      <trkpt lat="43.6713" lon="3.35382">
        <ele>188.2</ele>
        <time>2016-05-16T07:42:09Z</time>
      </trkpt>
      <trkpt lat="43.67124" lon="3.35387">
        <ele>188.9</ele>
        <time>2016-05-16T07:42:11Z</time>
      </trkpt>
      <trkpt lat="43.67116" lon="3.3539">
        <ele>189.1</ele>
        <time>2016-05-16T07:42:14Z</time>
      </trkpt>
      <trkpt lat="43.67108" lon="3.35397">
        <ele>190.7</ele>
        <time>2016-05-16T07:42:17Z</time>
      </trkpt>
      <trkpt lat="43.671" lon="3.354">
        <ele>190.1</ele>
        <time>2016-05-16T07:42:19Z</time>
      </trkpt>
      <trkpt lat="43.67093" lon="3.35403">
        <ele>190.2</ele>
        <time>2016-05-16T07:42:21Z</time>
      </trkpt>
      <trkpt lat="43.67086" lon="3.35407">
        <ele>190.4</ele>
        <time>2016-05-16T07:42:23Z</time>
      </trkpt>
      <trkpt lat="43.67079" lon="3.35413">
        <ele>192.3</ele>
        <time>2016-05-16T07:42:25Z</time>
      </trkpt>
      <trkpt lat="43.67073" lon="3.3542">
        <ele>193.1</ele>
        <time>2016-05-16T07:42:27Z</time>
      </trkpt>
      <trkpt lat="43.67066" lon="3.35428">
        <ele>193.8</ele>
        <time>2016-05-16T07:42:29Z</time>
      </trkpt>
      <trkpt lat="43.67062" lon="3.35437">
        <ele>194</ele>
        <time>2016-05-16T07:42:31Z</time>
      </trkpt>
      <trkpt lat="43.6706" lon="3.35447">
        <ele>194</ele>
        <time>2016-05-16T07:42:33Z</time>
      </trkpt>
      <trkpt lat="43.6706" lon="3.35459">
        <ele>193.7</ele>
        <time>2016-05-16T07:42:36Z</time>
      </trkpt>
      <trkpt lat="43.67064" lon="3.3547">
        <ele>193.2</ele>
        <time>2016-05-16T07:42:40Z</time>
      </trkpt>
      <trkpt lat="43.67072" lon="3.35478">
        <ele>192.6</ele>
        <time>2016-05-16T07:42:43Z</time>
      </trkpt>
      <trkpt lat="43.6708" lon="3.35483">
        <ele>192.5</ele>
        <time>2016-05-16T07:42:46Z</time>
      </trkpt>
      <trkpt lat="43.67086" lon="3.35489">
        <ele>192.4</ele>
        <time>2016-05-16T07:42:49Z</time>
      </trkpt>
      <trkpt lat="43.67093" lon="3.35493">
        <ele>192.2</ele>
        <time>2016-05-16T07:42:53Z</time>
      </trkpt>
      <trkpt lat="43.67099" lon="3.35502">
        <ele>192.3</ele>
        <time>2016-05-16T07:42:57Z</time>
      </trkpt>
      <trkpt lat="43.67098" lon="3.35513">
        <ele>192.5</ele>
        <time>2016-05-16T07:43:00Z</time>
      </trkpt>
      <trkpt lat="43.67095" lon="3.35523">
        <ele>192.7</ele>
        <time>2016-05-16T07:43:02Z</time>
      </trkpt>
      <trkpt lat="43.6709" lon="3.35536">
        <ele>193</ele>
        <time>2016-05-16T07:43:05Z</time>
      </trkpt>
      <trkpt lat="43.67085" lon="3.35548">
        <ele>193.2</ele>
        <time>2016-05-16T07:43:08Z</time>
      </trkpt>
      <trkpt lat="43.67083" lon="3.35558">
        <ele>192.6</ele>
        <time>2016-05-16T07:43:10Z</time>
      </trkpt>
      <trkpt lat="43.67081" lon="3.35568">
        <ele>192.1</ele>
        <time>2016-05-16T07:43:12Z</time>
      </trkpt>
      <trkpt lat="43.67084" lon="3.3558">
        <ele>192.1</ele>
        <time>2016-05-16T07:43:15Z</time>
      </trkpt>
      <trkpt lat="43.67092" lon="3.35589">
        <ele>192.3</ele>
        <time>2016-05-16T07:43:18Z</time>
      </trkpt>
      <trkpt lat="43.67099" lon="3.35595">
        <ele>192.4</ele>
        <time>2016-05-16T07:43:21Z</time>
      </trkpt>
      <trkpt lat="43.67106" lon="3.35603">
        <ele>192.6</ele>
        <time>2016-05-16T07:43:25Z</time>
      </trkpt>
      <trkpt lat="43.67112" lon="3.35611">
        <ele>192.9</ele>
        <time>2016-05-16T07:43:28Z</time>
      </trkpt>
      <trkpt lat="43.67119" lon="3.35617">
        <ele>193.3</ele>
        <time>2016-05-16T07:43:31Z</time>
      </trkpt>
      <trkpt lat="43.67126" lon="3.35623">
        <ele>193.8</ele>
        <time>2016-05-16T07:43:35Z</time>
      </trkpt>
      <trkpt lat="43.67133" lon="3.35629">
        <ele>194.3</ele>
        <time>2016-05-16T07:43:39Z</time>
      </trkpt>
      <trkpt lat="43.67138" lon="3.35637">
        <ele>194.5</ele>
        <time>2016-05-16T07:43:43Z</time>
      </trkpt>
      <trkpt lat="43.67141" lon="3.35647">
        <ele>194.7</ele>
        <time>2016-05-16T07:43:46Z</time>
      </trkpt>
      <trkpt lat="43.67145" lon="3.35658">
        <ele>194.9</ele>
        <time>2016-05-16T07:43:49Z</time>
      </trkpt>
      <trkpt lat="43.67146" lon="3.3567">
        <ele>195.5</ele>
        <time>2016-05-16T07:43:53Z</time>
      </trkpt>
      <trkpt lat="43.67143" lon="3.35681">
        <ele>195.8</ele>
        <time>2016-05-16T07:43:57Z</time>
      </trkpt>
      <trkpt lat="43.6714" lon="3.35691">
        <ele>196</ele>
        <time>2016-05-16T07:44:01Z</time>
      </trkpt>
      <trkpt lat="43.67136" lon="3.35702">
        <ele>196.2</ele>
        <time>2016-05-16T07:44:06Z</time>
      </trkpt>
      <trkpt lat="43.67132" lon="3.3571">
        <ele>197</ele>
        <time>2016-05-16T07:44:12Z</time>
      </trkpt>
      <trkpt lat="43.6713" lon="3.35722">
        <ele>198.2</ele>
        <time>2016-05-16T07:44:18Z</time>
      </trkpt>
      <trkpt lat="43.6713" lon="3.35732">
        <ele>199.8</ele>
        <time>2016-05-16T07:44:24Z</time>
      </trkpt>
      <trkpt lat="43.6713" lon="3.35743">
        <ele>200.3</ele>
        <time>2016-05-16T07:44:26Z</time>
      </trkpt>
      <trkpt lat="43.6713" lon="3.35758">
        <ele>204</ele>
        <time>2016-05-16T07:44:29Z</time>
      </trkpt>
      <trkpt lat="43.67125" lon="3.35767">
        <ele>204.3</ele>
        <time>2016-05-16T07:44:32Z</time>
      </trkpt>
      <trkpt lat="43.67123" lon="3.35779">
        <ele>204.6</ele>
        <time>2016-05-16T07:44:36Z</time>
      </trkpt>
      <trkpt lat="43.6712" lon="3.3579">
        <ele>204.9</ele>
        <time>2016-05-16T07:44:41Z</time>
      </trkpt>
      <trkpt lat="43.67116" lon="3.35797">
        <ele>204.7</ele>
        <time>2016-05-16T07:44:48Z</time>
      </trkpt>
      <trkpt lat="43.67111" lon="3.35803">
        <ele>204.4</ele>
        <time>2016-05-16T07:44:50Z</time>
      </trkpt>
      <trkpt lat="43.67103" lon="3.35794">
        <ele>202.1</ele>
        <time>2016-05-16T07:44:53Z</time>
      </trkpt>
      <trkpt lat="43.67094" lon="3.35789">
        <ele>201.7</ele>
        <time>2016-05-16T07:44:55Z</time>
      </trkpt>
      <trkpt lat="43.67083" lon="3.35785">
        <ele>202</ele>
        <time>2016-05-16T07:44:57Z</time>
      </trkpt>
      <trkpt lat="43.67072" lon="3.35784">
        <ele>201.4</ele>
        <time>2016-05-16T07:44:59Z</time>
      </trkpt>
      <trkpt lat="43.67062" lon="3.35783">
        <ele>200.7</ele>
        <time>2016-05-16T07:45:01Z</time>
      </trkpt>
      <trkpt lat="43.67052" lon="3.35784">
        <ele>200.5</ele>
        <time>2016-05-16T07:45:04Z</time>
      </trkpt>
      <trkpt lat="43.67046" lon="3.35789">
        <ele>200.3</ele>
        <time>2016-05-16T07:45:07Z</time>
      </trkpt>
      <trkpt lat="43.67043" lon="3.35796">
        <ele>201.2</ele>
        <time>2016-05-16T07:45:14Z</time>
      </trkpt>
      <trkpt lat="43.67038" lon="3.35803">
        <ele>203.7</ele>
        <time>2016-05-16T07:45:17Z</time>
      </trkpt>
      <trkpt lat="43.67031" lon="3.35809">
        <ele>205.7</ele>
        <time>2016-05-16T07:45:19Z</time>
      </trkpt>
      <trkpt lat="43.67023" lon="3.35815">
        <ele>206.8</ele>
        <time>2016-05-16T07:45:21Z</time>
      </trkpt>
      <trkpt lat="43.67016" lon="3.35822">
        <ele>206.8</ele>
        <time>2016-05-16T07:45:24Z</time>
      </trkpt>
      <trkpt lat="43.67009" lon="3.3583">
        <ele>207.2</ele>
        <time>2016-05-16T07:45:27Z</time>
      </trkpt>
      <trkpt lat="43.67002" lon="3.35835">
        <ele>207</ele>
        <time>2016-05-16T07:45:29Z</time>
      </trkpt>
      <trkpt lat="43.66993" lon="3.35841">
        <ele>207.5</ele>
        <time>2016-05-16T07:45:32Z</time>
      </trkpt>
      <trkpt lat="43.66986" lon="3.35841">
        <ele>207.7</ele>
        <time>2016-05-16T07:45:35Z</time>
      </trkpt>
      <trkpt lat="43.66977" lon="3.35842">
        <ele>207.7</ele>
        <time>2016-05-16T07:45:39Z</time>
      </trkpt>
      <trkpt lat="43.66967" lon="3.35839">
        <ele>207.6</ele>
        <time>2016-05-16T07:45:42Z</time>
      </trkpt>
      <trkpt lat="43.66959" lon="3.35839">
        <ele>207.6</ele>
        <time>2016-05-16T07:45:44Z</time>
      </trkpt>
      <trkpt lat="43.6695" lon="3.35835">
        <ele>207.5</ele>
        <time>2016-05-16T07:45:46Z</time>
      </trkpt>
      <trkpt lat="43.66938" lon="3.3583">
        <ele>208.1</ele>
        <time>2016-05-16T07:45:48Z</time>
      </trkpt>
      <trkpt lat="43.66925" lon="3.35825">
        <ele>207.6</ele>
        <time>2016-05-16T07:45:50Z</time>
      </trkpt>
      <trkpt lat="43.66912" lon="3.35825">
        <ele>206.1</ele>
        <time>2016-05-16T07:45:52Z</time>
      </trkpt>
      <trkpt lat="43.66903" lon="3.35818">
        <ele>202.4</ele>
        <time>2016-05-16T07:45:54Z</time>
      </trkpt>
      <trkpt lat="43.6689" lon="3.35817">
        <ele>200.1</ele>
        <time>2016-05-16T07:45:56Z</time>
      </trkpt>
      <trkpt lat="43.66876" lon="3.35815">
        <ele>199.1</ele>
        <time>2016-05-16T07:45:58Z</time>
      </trkpt>
      <trkpt lat="43.66869" lon="3.35809">
        <ele>199.5</ele>
        <time>2016-05-16T07:45:59Z</time>
      </trkpt>
      <trkpt lat="43.66862" lon="3.35803">
        <ele>199.3</ele>
        <time>2016-05-16T07:46:00Z</time>
      </trkpt>
      <trkpt lat="43.66854" lon="3.358">
        <ele>198.6</ele>
        <time>2016-05-16T07:46:01Z</time>
      </trkpt>
      <trkpt lat="43.66845" lon="3.35796">
        <ele>198</ele>
        <time>2016-05-16T07:46:02Z</time>
      </trkpt>
      <trkpt lat="43.66838" lon="3.35793">
        <ele>196.9</ele>
        <time>2016-05-16T07:46:03Z</time>
      </trkpt>
      <trkpt lat="43.66822" lon="3.35795">
        <ele>195.8</ele>
        <time>2016-05-16T07:46:05Z</time>
      </trkpt>
      <trkpt lat="43.66811" lon="3.35804">
        <ele>195.3</ele>
        <time>2016-05-16T07:46:07Z</time>
      </trkpt>
      <trkpt lat="43.66797" lon="3.35807">
        <ele>195.7</ele>
        <time>2016-05-16T07:46:09Z</time>
      </trkpt>
      <trkpt lat="43.66787" lon="3.35799">
        <ele>195.2</ele>
        <time>2016-05-16T07:46:11Z</time>
      </trkpt>
      <trkpt lat="43.66776" lon="3.35793">
        <ele>194.9</ele>
        <time>2016-05-16T07:46:13Z</time>
      </trkpt>
      <trkpt lat="43.66768" lon="3.35792">
        <ele>194.9</ele>
        <time>2016-05-16T07:46:16Z</time>
      </trkpt>
      <trkpt lat="43.66759" lon="3.35796">
        <ele>194.7</ele>
        <time>2016-05-16T07:46:18Z</time>
      </trkpt>
      <trkpt lat="43.66746" lon="3.358">
        <ele>193.8</ele>
        <time>2016-05-16T07:46:20Z</time>
      </trkpt>
      <trkpt lat="43.66733" lon="3.35805">
        <ele>193.1</ele>
        <time>2016-05-16T07:46:22Z</time>
      </trkpt>
      <trkpt lat="43.66725" lon="3.35817">
        <ele>191.5</ele>
        <time>2016-05-16T07:46:24Z</time>
      </trkpt>
      <trkpt lat="43.66717" lon="3.35828">
        <ele>188.9</ele>
        <time>2016-05-16T07:46:26Z</time>
      </trkpt>
      <trkpt lat="43.6671" lon="3.35837">
        <ele>187.4</ele>
        <time>2016-05-16T07:46:28Z</time>
      </trkpt>
      <trkpt lat="43.66702" lon="3.35846">
        <ele>186.8</ele>
        <time>2016-05-16T07:46:30Z</time>
      </trkpt>
      <trkpt lat="43.66693" lon="3.35857">
        <ele>185.5</ele>
        <time>2016-05-16T07:46:32Z</time>
      </trkpt>
      <trkpt lat="43.66686" lon="3.35865">
        <ele>184.8</ele>
        <time>2016-05-16T07:46:34Z</time>
      </trkpt>
      <trkpt lat="43.66679" lon="3.35871">
        <ele>184.9</ele>
        <time>2016-05-16T07:46:36Z</time>
      </trkpt>
      <trkpt lat="43.66671" lon="3.35879">
        <ele>185.1</ele>
        <time>2016-05-16T07:46:39Z</time>
      </trkpt>
      <trkpt lat="43.66664" lon="3.3589">
        <ele>183.6</ele>
        <time>2016-05-16T07:46:42Z</time>
      </trkpt>
      <trkpt lat="43.66659" lon="3.35898">
        <ele>183.6</ele>
        <time>2016-05-16T07:46:44Z</time>
      </trkpt>
      <trkpt lat="43.66652" lon="3.35906">
        <ele>183.8</ele>
        <time>2016-05-16T07:46:50Z</time>
      </trkpt>
      <trkpt lat="43.66645" lon="3.35912">
        <ele>184</ele>
        <time>2016-05-16T07:46:54Z</time>
      </trkpt>
      <trkpt lat="43.6664" lon="3.3592">
        <ele>184.5</ele>
        <time>2016-05-16T07:46:56Z</time>
      </trkpt>
      <trkpt lat="43.66634" lon="3.35926">
        <ele>185</ele>
        <time>2016-05-16T07:46:58Z</time>
      </trkpt>
      <trkpt lat="43.66626" lon="3.35938">
        <ele>185</ele>
        <time>2016-05-16T07:47:01Z</time>
      </trkpt>
      <trkpt lat="43.66621" lon="3.3595">
        <ele>185</ele>
        <time>2016-05-16T07:47:04Z</time>
      </trkpt>
      <trkpt lat="43.66618" lon="3.3596">
        <ele>184.8</ele>
        <time>2016-05-16T07:47:07Z</time>
      </trkpt>
      <trkpt lat="43.66614" lon="3.35973">
        <ele>184</ele>
        <time>2016-05-16T07:47:10Z</time>
      </trkpt>
      <trkpt lat="43.6661" lon="3.35985">
        <ele>184</ele>
        <time>2016-05-16T07:47:13Z</time>
      </trkpt>
      <trkpt lat="43.66602" lon="3.35996">
        <ele>184.8</ele>
        <time>2016-05-16T07:47:16Z</time>
      </trkpt>
      <trkpt lat="43.66596" lon="3.36003">
        <ele>185.6</ele>
        <time>2016-05-16T07:47:18Z</time>
      </trkpt>
      <trkpt lat="43.6659" lon="3.36009">
        <ele>185.7</ele>
        <time>2016-05-16T07:47:21Z</time>
      </trkpt>
      <trkpt lat="43.66584" lon="3.36018">
        <ele>186</ele>
        <time>2016-05-16T07:47:25Z</time>
      </trkpt>
      <trkpt lat="43.66581" lon="3.36027">
        <ele>186</ele>
        <time>2016-05-16T07:47:29Z</time>
      </trkpt>
      <trkpt lat="43.66581" lon="3.3604">
        <ele>186.1</ele>
        <time>2016-05-16T07:47:32Z</time>
      </trkpt>
      <trkpt lat="43.66583" lon="3.36052">
        <ele>186</ele>
        <time>2016-05-16T07:47:35Z</time>
      </trkpt>
      <trkpt lat="43.66589" lon="3.3606">
        <ele>185.9</ele>
        <time>2016-05-16T07:47:39Z</time>
      </trkpt>
      <trkpt lat="43.66596" lon="3.36066">
        <ele>185.9</ele>
        <time>2016-05-16T07:47:42Z</time>
      </trkpt>
      <trkpt lat="43.66602" lon="3.36072">
        <ele>185.7</ele>
        <time>2016-05-16T07:47:45Z</time>
      </trkpt>
      <trkpt lat="43.66609" lon="3.36083">
        <ele>186.3</ele>
        <time>2016-05-16T07:47:48Z</time>
      </trkpt>
      <trkpt lat="43.66614" lon="3.36092">
        <ele>186.6</ele>
        <time>2016-05-16T07:47:50Z</time>
      </trkpt>
      <trkpt lat="43.66622" lon="3.36108">
        <ele>186.9</ele>
        <time>2016-05-16T07:47:52Z</time>
      </trkpt>
      <trkpt lat="43.66627" lon="3.36124">
        <ele>187.5</ele>
        <time>2016-05-16T07:47:54Z</time>
      </trkpt>
      <trkpt lat="43.66626" lon="3.36136">
        <ele>187.8</ele>
        <time>2016-05-16T07:47:56Z</time>
      </trkpt>
      <trkpt lat="43.66621" lon="3.36149">
        <ele>187.8</ele>
        <time>2016-05-16T07:48:00Z</time>
      </trkpt>
      <trkpt lat="43.66618" lon="3.36159">
        <ele>187.9</ele>
        <time>2016-05-16T07:48:03Z</time>
      </trkpt>
      <trkpt lat="43.66617" lon="3.3617">
        <ele>187.6</ele>
        <time>2016-05-16T07:48:05Z</time>
      </trkpt>
      <trkpt lat="43.66619" lon="3.36183">
        <ele>188</ele>
        <time>2016-05-16T07:48:07Z</time>
      </trkpt>
      <trkpt lat="43.66623" lon="3.36196">
        <ele>187.9</ele>
        <time>2016-05-16T07:48:10Z</time>
      </trkpt>
      <trkpt lat="43.66628" lon="3.36206">
        <ele>188.3</ele>
        <time>2016-05-16T07:48:13Z</time>
      </trkpt>
      <trkpt lat="43.66633" lon="3.36217">
        <ele>188.2</ele>
        <time>2016-05-16T07:48:16Z</time>
      </trkpt>
      <trkpt lat="43.66634" lon="3.36231">
        <ele>188.1</ele>
        <time>2016-05-16T07:48:19Z</time>
      </trkpt>
      <trkpt lat="43.66637" lon="3.36243">
        <ele>188</ele>
        <time>2016-05-16T07:48:22Z</time>
      </trkpt>
      <trkpt lat="43.66633" lon="3.36255">
        <ele>188.1</ele>
        <time>2016-05-16T07:48:25Z</time>
      </trkpt>
      <trkpt lat="43.66629" lon="3.36268">
        <ele>188.9</ele>
        <time>2016-05-16T07:48:28Z</time>
      </trkpt>
      <trkpt lat="43.66621" lon="3.36271">
        <ele>188.9</ele>
        <time>2016-05-16T07:48:31Z</time>
      </trkpt>
      <trkpt lat="43.66614" lon="3.36274">
        <ele>188.7</ele>
        <time>2016-05-16T07:48:33Z</time>
      </trkpt>
      <trkpt lat="43.66605" lon="3.36276">
        <ele>188.4</ele>
        <time>2016-05-16T07:48:36Z</time>
      </trkpt>
      <trkpt lat="43.66597" lon="3.36276">
        <ele>187.9</ele>
        <time>2016-05-16T07:48:40Z</time>
      </trkpt>
      <trkpt lat="43.6659" lon="3.36275">
        <ele>187.6</ele>
        <time>2016-05-16T07:48:43Z</time>
      </trkpt>
      <trkpt lat="43.66583" lon="3.36276">
        <ele>187</ele>
        <time>2016-05-16T07:48:45Z</time>
      </trkpt>
      <trkpt lat="43.66573" lon="3.36279">
        <ele>185.7</ele>
        <time>2016-05-16T07:48:48Z</time>
      </trkpt>
      <trkpt lat="43.66565" lon="3.36281">
        <ele>185.5</ele>
        <time>2016-05-16T07:48:51Z</time>
      </trkpt>
      <trkpt lat="43.66558" lon="3.36289">
        <ele>185.5</ele>
        <time>2016-05-16T07:48:54Z</time>
      </trkpt>
      <trkpt lat="43.66552" lon="3.36298">
        <ele>185.6</ele>
        <time>2016-05-16T07:48:57Z</time>
      </trkpt>
      <trkpt lat="43.66548" lon="3.36308">
        <ele>186.9</ele>
        <time>2016-05-16T07:48:59Z</time>
      </trkpt>
      <trkpt lat="43.66545" lon="3.36318">
        <ele>187.9</ele>
        <time>2016-05-16T07:49:01Z</time>
      </trkpt>
      <trkpt lat="43.66541" lon="3.36329">
        <ele>188.2</ele>
        <time>2016-05-16T07:49:03Z</time>
      </trkpt>
      <trkpt lat="43.6654" lon="3.3634">
        <ele>188.4</ele>
        <time>2016-05-16T07:49:05Z</time>
      </trkpt>
      <trkpt lat="43.66541" lon="3.36351">
        <ele>188</ele>
        <time>2016-05-16T07:49:07Z</time>
      </trkpt>
      <trkpt lat="43.66539" lon="3.36362">
        <ele>188.1</ele>
        <time>2016-05-16T07:49:09Z</time>
      </trkpt>
      <trkpt lat="43.66541" lon="3.36372">
        <ele>188</ele>
        <time>2016-05-16T07:49:11Z</time>
      </trkpt>
      <trkpt lat="43.66543" lon="3.36384">
        <ele>187.9</ele>
        <time>2016-05-16T07:49:13Z</time>
      </trkpt>
      <trkpt lat="43.66546" lon="3.36395">
        <ele>187.5</ele>
        <time>2016-05-16T07:49:15Z</time>
      </trkpt>
      <trkpt lat="43.66546" lon="3.36408">
        <ele>187.4</ele>
        <time>2016-05-16T07:49:17Z</time>
      </trkpt>
      <trkpt lat="43.66547" lon="3.3642">
        <ele>187.4</ele>
        <time>2016-05-16T07:49:19Z</time>
      </trkpt>
      <trkpt lat="43.66545" lon="3.36435">
        <ele>186.9</ele>
        <time>2016-05-16T07:49:22Z</time>
      </trkpt>
      <trkpt lat="43.66543" lon="3.36444">
        <ele>187.1</ele>
        <time>2016-05-16T07:49:24Z</time>
      </trkpt>
      <trkpt lat="43.66537" lon="3.36455">
        <ele>187.3</ele>
        <time>2016-05-16T07:49:26Z</time>
      </trkpt>
      <trkpt lat="43.66532" lon="3.36464">
        <ele>186.9</ele>
        <time>2016-05-16T07:49:28Z</time>
      </trkpt>
      <trkpt lat="43.66528" lon="3.36473">
        <ele>185.2</ele>
        <time>2016-05-16T07:49:30Z</time>
      </trkpt>
      <trkpt lat="43.66524" lon="3.36485">
        <ele>185.1</ele>
        <time>2016-05-16T07:49:33Z</time>
      </trkpt>
      <trkpt lat="43.66518" lon="3.36492">
        <ele>185.1</ele>
        <time>2016-05-16T07:49:35Z</time>
      </trkpt>
      <trkpt lat="43.66513" lon="3.36499">
        <ele>185.2</ele>
        <time>2016-05-16T07:49:37Z</time>
      </trkpt>
      <trkpt lat="43.66506" lon="3.36508">
        <ele>185.2</ele>
        <time>2016-05-16T07:49:40Z</time>
      </trkpt>
      <trkpt lat="43.66499" lon="3.36517">
        <ele>185.6</ele>
        <time>2016-05-16T07:49:43Z</time>
      </trkpt>
      <trkpt lat="43.66493" lon="3.36528">
        <ele>186.8</ele>
        <time>2016-05-16T07:49:45Z</time>
      </trkpt>
      <trkpt lat="43.66489" lon="3.3654">
        <ele>187.2</ele>
        <time>2016-05-16T07:49:47Z</time>
      </trkpt>
      <trkpt lat="43.66487" lon="3.3655">
        <ele>188.7</ele>
        <time>2016-05-16T07:49:49Z</time>
      </trkpt>
      <trkpt lat="43.66486" lon="3.36567">
        <ele>190.5</ele>
        <time>2016-05-16T07:49:52Z</time>
      </trkpt>
      <trkpt lat="43.66487" lon="3.36581">
        <ele>190.5</ele>
        <time>2016-05-16T07:49:54Z</time>
      </trkpt>
      <trkpt lat="43.66481" lon="3.36596">
        <ele>190</ele>
        <time>2016-05-16T07:49:56Z</time>
      </trkpt>
      <trkpt lat="43.66474" lon="3.36604">
        <ele>189.7</ele>
        <time>2016-05-16T07:49:58Z</time>
      </trkpt>
      <trkpt lat="43.66468" lon="3.36611">
        <ele>189.6</ele>
        <time>2016-05-16T07:50:01Z</time>
      </trkpt>
      <trkpt lat="43.66464" lon="3.36621">
        <ele>189.9</ele>
        <time>2016-05-16T07:50:05Z</time>
      </trkpt>
      <trkpt lat="43.6646" lon="3.36632">
        <ele>189.9</ele>
        <time>2016-05-16T07:50:08Z</time>
      </trkpt>
      <trkpt lat="43.66456" lon="3.36642">
        <ele>189.6</ele>
        <time>2016-05-16T07:50:11Z</time>
      </trkpt>
      <trkpt lat="43.66451" lon="3.36653">
        <ele>189.4</ele>
        <time>2016-05-16T07:50:14Z</time>
      </trkpt>
      <trkpt lat="43.66449" lon="3.36663">
        <ele>189.1</ele>
        <time>2016-05-16T07:50:16Z</time>
      </trkpt>
      <trkpt lat="43.66448" lon="3.36678">
        <ele>188.2</ele>
        <time>2016-05-16T07:50:19Z</time>
      </trkpt>
      <trkpt lat="43.66444" lon="3.3669">
        <ele>188.3</ele>
        <time>2016-05-16T07:50:21Z</time>
      </trkpt>
      <trkpt lat="43.66438" lon="3.36702">
        <ele>188.3</ele>
        <time>2016-05-16T07:50:24Z</time>
      </trkpt>
      <trkpt lat="43.66434" lon="3.36714">
        <ele>188.1</ele>
        <time>2016-05-16T07:50:27Z</time>
      </trkpt>
      <trkpt lat="43.66431" lon="3.36729">
        <ele>187.2</ele>
        <time>2016-05-16T07:50:30Z</time>
      </trkpt>
      <trkpt lat="43.66429" lon="3.36738">
        <ele>187.3</ele>
        <time>2016-05-16T07:50:32Z</time>
      </trkpt>
      <trkpt lat="43.66426" lon="3.36748">
        <ele>187.4</ele>
        <time>2016-05-16T07:50:34Z</time>
      </trkpt>
      <trkpt lat="43.66423" lon="3.36758">
        <ele>187.8</ele>
        <time>2016-05-16T07:50:36Z</time>
      </trkpt>
      <trkpt lat="43.6642" lon="3.36768">
        <ele>187.8</ele>
        <time>2016-05-16T07:50:38Z</time>
      </trkpt>
      <trkpt lat="43.66418" lon="3.36778">
        <ele>187.8</ele>
        <time>2016-05-16T07:50:40Z</time>
      </trkpt>
      <trkpt lat="43.6642" lon="3.36789">
        <ele>188.1</ele>
        <time>2016-05-16T07:50:42Z</time>
      </trkpt>
      <trkpt lat="43.66421" lon="3.36804">
        <ele>189.4</ele>
        <time>2016-05-16T07:50:44Z</time>
      </trkpt>
      <trkpt lat="43.66422" lon="3.3682">
        <ele>190</ele>
        <time>2016-05-16T07:50:46Z</time>
      </trkpt>
      <trkpt lat="43.6642" lon="3.36837">
        <ele>190</ele>
        <time>2016-05-16T07:50:48Z</time>
      </trkpt>
      <trkpt lat="43.66413" lon="3.36851">
        <ele>189.9</ele>
        <time>2016-05-16T07:50:50Z</time>
      </trkpt>
      <trkpt lat="43.66406" lon="3.36861">
        <ele>188.9</ele>
        <time>2016-05-16T07:50:52Z</time>
      </trkpt>
      <trkpt lat="43.664" lon="3.36872">
        <ele>187.8</ele>
        <time>2016-05-16T07:50:54Z</time>
      </trkpt>
      <trkpt lat="43.66395" lon="3.36881">
        <ele>187.1</ele>
        <time>2016-05-16T07:50:57Z</time>
      </trkpt>
      <trkpt lat="43.6639" lon="3.36892">
        <ele>186.4</ele>
        <time>2016-05-16T07:51:00Z</time>
      </trkpt>
      <trkpt lat="43.66384" lon="3.36903">
        <ele>184.9</ele>
        <time>2016-05-16T07:51:02Z</time>
      </trkpt>
      <trkpt lat="43.66377" lon="3.36913">
        <ele>184.8</ele>
        <time>2016-05-16T07:51:05Z</time>
      </trkpt>
      <trkpt lat="43.66372" lon="3.36923">
        <ele>185</ele>
        <time>2016-05-16T07:51:09Z</time>
      </trkpt>
      <trkpt lat="43.66366" lon="3.36935">
        <ele>185.5</ele>
        <time>2016-05-16T07:51:13Z</time>
      </trkpt>
      <trkpt lat="43.66362" lon="3.36947">
        <ele>186.9</ele>
        <time>2016-05-16T07:51:16Z</time>
      </trkpt>
      <trkpt lat="43.6636" lon="3.36956">
        <ele>187.6</ele>
        <time>2016-05-16T07:51:18Z</time>
      </trkpt>
      <trkpt lat="43.66358" lon="3.36966">
        <ele>188.2</ele>
        <time>2016-05-16T07:51:20Z</time>
      </trkpt>
      <trkpt lat="43.66355" lon="3.36978">
        <ele>188.7</ele>
        <time>2016-05-16T07:51:22Z</time>
      </trkpt>
      <trkpt lat="43.66351" lon="3.3699">
        <ele>190.1</ele>
        <time>2016-05-16T07:51:24Z</time>
      </trkpt>
      <trkpt lat="43.66344" lon="3.37002">
        <ele>190</ele>
        <time>2016-05-16T07:51:26Z</time>
      </trkpt>
      <trkpt lat="43.66337" lon="3.3701">
        <ele>190.8</ele>
        <time>2016-05-16T07:51:28Z</time>
      </trkpt>
      <trkpt lat="43.66331" lon="3.37021">
        <ele>191.8</ele>
        <time>2016-05-16T07:51:30Z</time>
      </trkpt>
      <trkpt lat="43.66326" lon="3.37029">
        <ele>191.3</ele>
        <time>2016-05-16T07:51:32Z</time>
      </trkpt>
      <trkpt lat="43.6632" lon="3.37039">
        <ele>191.9</ele>
        <time>2016-05-16T07:51:34Z</time>
      </trkpt>
      <trkpt lat="43.66313" lon="3.37045">
        <ele>191.8</ele>
        <time>2016-05-16T07:51:37Z</time>
      </trkpt>
      <trkpt lat="43.66304" lon="3.37052">
        <ele>191</ele>
        <time>2016-05-16T07:51:40Z</time>
      </trkpt>
      <trkpt lat="43.66298" lon="3.37061">
        <ele>190.8</ele>
        <time>2016-05-16T07:51:43Z</time>
      </trkpt>
      <trkpt lat="43.66292" lon="3.37068">
        <ele>190.7</ele>
        <time>2016-05-16T07:51:47Z</time>
      </trkpt>
      <trkpt lat="43.66287" lon="3.37077">
        <ele>190.7</ele>
        <time>2016-05-16T07:51:50Z</time>
      </trkpt>
      <trkpt lat="43.66283" lon="3.37088">
        <ele>190.7</ele>
        <time>2016-05-16T07:51:53Z</time>
      </trkpt>
      <trkpt lat="43.66278" lon="3.37099">
        <ele>190.9</ele>
        <time>2016-05-16T07:51:56Z</time>
      </trkpt>
      <trkpt lat="43.66277" lon="3.37112">
        <ele>191.3</ele>
        <time>2016-05-16T07:52:00Z</time>
      </trkpt>
      <trkpt lat="43.66279" lon="3.37122">
        <ele>191.4</ele>
        <time>2016-05-16T07:52:02Z</time>
      </trkpt>
      <trkpt lat="43.66279" lon="3.37132">
        <ele>191.5</ele>
        <time>2016-05-16T07:52:04Z</time>
      </trkpt>
      <trkpt lat="43.66281" lon="3.37144">
        <ele>191.5</ele>
        <time>2016-05-16T07:52:07Z</time>
      </trkpt>
      <trkpt lat="43.66285" lon="3.37158">
        <ele>191.7</ele>
        <time>2016-05-16T07:52:10Z</time>
      </trkpt>
      <trkpt lat="43.66286" lon="3.37169">
        <ele>192.2</ele>
        <time>2016-05-16T07:52:12Z</time>
      </trkpt>
      <trkpt lat="43.66285" lon="3.37182">
        <ele>191.9</ele>
        <time>2016-05-16T07:52:15Z</time>
      </trkpt>
      <trkpt lat="43.66284" lon="3.37194">
        <ele>191.1</ele>
        <time>2016-05-16T07:52:17Z</time>
      </trkpt>
      <trkpt lat="43.66282" lon="3.37207">
        <ele>190</ele>
        <time>2016-05-16T07:52:19Z</time>
      </trkpt>
      <trkpt lat="43.66279" lon="3.37221">
        <ele>189.4</ele>
        <time>2016-05-16T07:52:21Z</time>
      </trkpt>
      <trkpt lat="43.66278" lon="3.37237">
        <ele>188.5</ele>
        <time>2016-05-16T07:52:23Z</time>
      </trkpt>
      <trkpt lat="43.66275" lon="3.37254">
        <ele>187.4</ele>
        <time>2016-05-16T07:52:25Z</time>
      </trkpt>
      <trkpt lat="43.66267" lon="3.37267">
        <ele>185.6</ele>
        <time>2016-05-16T07:52:27Z</time>
      </trkpt>
      <trkpt lat="43.66263" lon="3.3728">
        <ele>184.6</ele>
        <time>2016-05-16T07:52:29Z</time>
      </trkpt>
      <trkpt lat="43.66261" lon="3.37294">
        <ele>184.1</ele>
        <time>2016-05-16T07:52:31Z</time>
      </trkpt>
      <trkpt lat="43.66261" lon="3.37307">
        <ele>183.7</ele>
        <time>2016-05-16T07:52:33Z</time>
      </trkpt>
      <trkpt lat="43.66264" lon="3.3732">
        <ele>183.1</ele>
        <time>2016-05-16T07:52:35Z</time>
      </trkpt>
      <trkpt lat="43.66265" lon="3.37331">
        <ele>183.2</ele>
        <time>2016-05-16T07:52:37Z</time>
      </trkpt>
      <trkpt lat="43.66262" lon="3.37342">
        <ele>183.6</ele>
        <time>2016-05-16T07:52:39Z</time>
      </trkpt>
      <trkpt lat="43.6626" lon="3.37354">
        <ele>183.6</ele>
        <time>2016-05-16T07:52:42Z</time>
      </trkpt>
      <trkpt lat="43.66255" lon="3.37363">
        <ele>184.4</ele>
        <time>2016-05-16T07:52:44Z</time>
      </trkpt>
      <trkpt lat="43.66252" lon="3.37374">
        <ele>184.5</ele>
        <time>2016-05-16T07:52:46Z</time>
      </trkpt>
      <trkpt lat="43.6625" lon="3.37387">
        <ele>185</ele>
        <time>2016-05-16T07:52:48Z</time>
      </trkpt>
      <trkpt lat="43.66251" lon="3.37399">
        <ele>184.5</ele>
        <time>2016-05-16T07:52:50Z</time>
      </trkpt>
      <trkpt lat="43.66252" lon="3.3741">
        <ele>184.3</ele>
        <time>2016-05-16T07:52:52Z</time>
      </trkpt>
      <trkpt lat="43.66254" lon="3.37424">
        <ele>185.3</ele>
        <time>2016-05-16T07:52:54Z</time>
      </trkpt>
      <trkpt lat="43.66258" lon="3.37437">
        <ele>186.2</ele>
        <time>2016-05-16T07:52:56Z</time>
      </trkpt>
      <trkpt lat="43.66265" lon="3.37446">
        <ele>186.6</ele>
        <time>2016-05-16T07:52:58Z</time>
      </trkpt>
      <trkpt lat="43.66271" lon="3.37458">
        <ele>188.3</ele>
        <time>2016-05-16T07:53:00Z</time>
      </trkpt>
      <trkpt lat="43.66272" lon="3.37472">
        <ele>189.6</ele>
        <time>2016-05-16T07:53:02Z</time>
      </trkpt>
      <trkpt lat="43.66271" lon="3.37486">
        <ele>189.9</ele>
        <time>2016-05-16T07:53:05Z</time>
      </trkpt>
      <trkpt lat="43.66272" lon="3.37496">
        <ele>189.8</ele>
        <time>2016-05-16T07:53:07Z</time>
      </trkpt>
      <trkpt lat="43.66272" lon="3.3751">
        <ele>189.6</ele>
        <time>2016-05-16T07:53:10Z</time>
      </trkpt>
      <trkpt lat="43.66273" lon="3.37524">
        <ele>190.6</ele>
        <time>2016-05-16T07:53:13Z</time>
      </trkpt>
      <trkpt lat="43.66276" lon="3.37534">
        <ele>190.6</ele>
        <time>2016-05-16T07:53:15Z</time>
      </trkpt>
      <trkpt lat="43.66281" lon="3.37544">
        <ele>190.5</ele>
        <time>2016-05-16T07:53:18Z</time>
      </trkpt>
      <trkpt lat="43.66285" lon="3.37558">
        <ele>190.6</ele>
        <time>2016-05-16T07:53:21Z</time>
      </trkpt>
      <trkpt lat="43.66286" lon="3.37571">
        <ele>190</ele>
        <time>2016-05-16T07:53:23Z</time>
      </trkpt>
      <trkpt lat="43.66284" lon="3.37584">
        <ele>190.1</ele>
        <time>2016-05-16T07:53:26Z</time>
      </trkpt>
      <trkpt lat="43.66282" lon="3.37594">
        <ele>189.3</ele>
        <time>2016-05-16T07:53:28Z</time>
      </trkpt>
      <trkpt lat="43.66279" lon="3.37605">
        <ele>189.2</ele>
        <time>2016-05-16T07:53:30Z</time>
      </trkpt>
      <trkpt lat="43.66275" lon="3.37619">
        <ele>188.9</ele>
        <time>2016-05-16T07:53:33Z</time>
      </trkpt>
      <trkpt lat="43.66272" lon="3.37629">
        <ele>187.8</ele>
        <time>2016-05-16T07:53:35Z</time>
      </trkpt>
      <trkpt lat="43.6627" lon="3.3764">
        <ele>187.5</ele>
        <time>2016-05-16T07:53:38Z</time>
      </trkpt>
      <trkpt lat="43.6627" lon="3.37653">
        <ele>187.2</ele>
        <time>2016-05-16T07:53:41Z</time>
      </trkpt>
      <trkpt lat="43.66272" lon="3.37668">
        <ele>186.9</ele>
        <time>2016-05-16T07:53:44Z</time>
      </trkpt>
      <trkpt lat="43.66277" lon="3.37677">
        <ele>186.9</ele>
        <time>2016-05-16T07:53:47Z</time>
      </trkpt>
      <trkpt lat="43.66273" lon="3.37687">
        <ele>187</ele>
        <time>2016-05-16T07:53:50Z</time>
      </trkpt>
      <trkpt lat="43.66271" lon="3.377">
        <ele>187.2</ele>
        <time>2016-05-16T07:53:54Z</time>
      </trkpt>
      <trkpt lat="43.66269" lon="3.37713">
        <ele>187.2</ele>
        <time>2016-05-16T07:53:58Z</time>
      </trkpt>
      <trkpt lat="43.66262" lon="3.37723">
        <ele>187.6</ele>
        <time>2016-05-16T07:54:01Z</time>
      </trkpt>
      <trkpt lat="43.6626" lon="3.37735">
        <ele>187.6</ele>
        <time>2016-05-16T07:54:04Z</time>
      </trkpt>
      <trkpt lat="43.6626" lon="3.37747">
        <ele>187.7</ele>
        <time>2016-05-16T07:54:08Z</time>
      </trkpt>
      <trkpt lat="43.66261" lon="3.37761">
        <ele>188.5</ele>
        <time>2016-05-16T07:54:11Z</time>
      </trkpt>
      <trkpt lat="43.66259" lon="3.37774">
        <ele>189.8</ele>
        <time>2016-05-16T07:54:13Z</time>
      </trkpt>
      <trkpt lat="43.66254" lon="3.37782">
        <ele>190.2</ele>
        <time>2016-05-16T07:54:17Z</time>
      </trkpt>
      <trkpt lat="43.66248" lon="3.37791">
        <ele>190.4</ele>
        <time>2016-05-16T07:54:20Z</time>
      </trkpt>
      <trkpt lat="43.66243" lon="3.37799">
        <ele>190.8</ele>
        <time>2016-05-16T07:54:23Z</time>
      </trkpt>
      <trkpt lat="43.66237" lon="3.37807">
        <ele>190.9</ele>
        <time>2016-05-16T07:54:26Z</time>
      </trkpt>
      <trkpt lat="43.6623" lon="3.37813">
        <ele>191.1</ele>
        <time>2016-05-16T07:54:31Z</time>
      </trkpt>
      <trkpt lat="43.66227" lon="3.37822">
        <ele>190.9</ele>
        <time>2016-05-16T07:54:34Z</time>
      </trkpt>
      <trkpt lat="43.66221" lon="3.37831">
        <ele>190.7</ele>
        <time>2016-05-16T07:54:38Z</time>
      </trkpt>
      <trkpt lat="43.66214" lon="3.37842">
        <ele>189.8</ele>
        <time>2016-05-16T07:54:41Z</time>
      </trkpt>
      <trkpt lat="43.66211" lon="3.37852">
        <ele>189.6</ele>
        <time>2016-05-16T07:54:44Z</time>
      </trkpt>
      <trkpt lat="43.66208" lon="3.37862">
        <ele>189.6</ele>
        <time>2016-05-16T07:54:47Z</time>
      </trkpt>
      <trkpt lat="43.66207" lon="3.37876">
        <ele>189.6</ele>
        <time>2016-05-16T07:54:50Z</time>
      </trkpt>
      <trkpt lat="43.66207" lon="3.37885">
        <ele>189.5</ele>
        <time>2016-05-16T07:54:52Z</time>
      </trkpt>
      <trkpt lat="43.66206" lon="3.37903">
        <ele>189.5</ele>
        <time>2016-05-16T07:54:54Z</time>
      </trkpt>
      <trkpt lat="43.66204" lon="3.37919">
        <ele>189.5</ele>
        <time>2016-05-16T07:54:56Z</time>
      </trkpt>
      <trkpt lat="43.66207" lon="3.37932">
        <ele>189.4</ele>
        <time>2016-05-16T07:54:59Z</time>
      </trkpt>
      <trkpt lat="43.662" lon="3.37935">
        <ele>189.1</ele>
        <time>2016-05-16T07:55:03Z</time>
      </trkpt>
      <trkpt lat="43.6619" lon="3.37933">
        <ele>188.8</ele>
        <time>2016-05-16T07:55:06Z</time>
      </trkpt>
      <trkpt lat="43.66183" lon="3.37939">
        <ele>188.4</ele>
        <time>2016-05-16T07:55:09Z</time>
      </trkpt>
      <trkpt lat="43.66177" lon="3.37947">
        <ele>188</ele>
        <time>2016-05-16T07:55:15Z</time>
      </trkpt>
      <trkpt lat="43.66172" lon="3.37957">
        <ele>188.2</ele>
        <time>2016-05-16T07:55:20Z</time>
      </trkpt>
      <trkpt lat="43.66172" lon="3.37969">
        <ele>188.4</ele>
        <time>2016-05-16T07:55:24Z</time>
      </trkpt>
      <trkpt lat="43.66169" lon="3.37979">
        <ele>188.8</ele>
        <time>2016-05-16T07:55:30Z</time>
      </trkpt>
      <trkpt lat="43.66165" lon="3.37989">
        <ele>189</ele>
        <time>2016-05-16T07:55:35Z</time>
      </trkpt>
      <trkpt lat="43.66162" lon="3.38001">
        <ele>189.1</ele>
        <time>2016-05-16T07:55:39Z</time>
      </trkpt>
      <trkpt lat="43.66161" lon="3.38012">
        <ele>189.4</ele>
        <time>2016-05-16T07:55:43Z</time>
      </trkpt>
      <trkpt lat="43.66163" lon="3.38025">
        <ele>190.1</ele>
        <time>2016-05-16T07:55:49Z</time>
      </trkpt>
      <trkpt lat="43.66163" lon="3.38036">
        <ele>190.5</ele>
        <time>2016-05-16T07:55:52Z</time>
      </trkpt>
      <trkpt lat="43.66168" lon="3.38046">
        <ele>191.1</ele>
        <time>2016-05-16T07:55:56Z</time>
      </trkpt>
      <trkpt lat="43.66171" lon="3.38055">
        <ele>192</ele>
        <time>2016-05-16T07:56:02Z</time>
      </trkpt>
      <trkpt lat="43.66173" lon="3.38067">
        <ele>192.9</ele>
        <time>2016-05-16T07:56:07Z</time>
      </trkpt>
      <trkpt lat="43.66173" lon="3.38079">
        <ele>194.8</ele>
        <time>2016-05-16T07:56:09Z</time>
      </trkpt>
      <trkpt lat="43.66177" lon="3.38092">
        <ele>195.1</ele>
        <time>2016-05-16T07:56:13Z</time>
      </trkpt>
      <trkpt lat="43.6618" lon="3.38101">
        <ele>194.9</ele>
        <time>2016-05-16T07:56:17Z</time>
      </trkpt>
      <trkpt lat="43.66184" lon="3.38113">
        <ele>194.9</ele>
        <time>2016-05-16T07:56:20Z</time>
      </trkpt>
      <trkpt lat="43.6618" lon="3.38125">
        <ele>195.2</ele>
        <time>2016-05-16T07:56:23Z</time>
      </trkpt>
      <trkpt lat="43.66177" lon="3.38135">
        <ele>195.6</ele>
        <time>2016-05-16T07:56:27Z</time>
      </trkpt>
      <trkpt lat="43.66169" lon="3.38147">
        <ele>195.8</ele>
        <time>2016-05-16T07:56:46Z</time>
      </trkpt>
      <trkpt lat="43.66164" lon="3.38156">
        <ele>196.2</ele>
        <time>2016-05-16T07:56:51Z</time>
      </trkpt>
      <trkpt lat="43.66157" lon="3.38166">
        <ele>196.4</ele>
        <time>2016-05-16T07:56:58Z</time>
      </trkpt>
      <trkpt lat="43.66154" lon="3.38178">
        <ele>196.6</ele>
        <time>2016-05-16T07:57:03Z</time>
      </trkpt>
      <trkpt lat="43.66149" lon="3.38187">
        <ele>196.8</ele>
        <time>2016-05-16T07:57:06Z</time>
      </trkpt>
      <trkpt lat="43.66149" lon="3.38198">
        <ele>197.1</ele>
        <time>2016-05-16T07:57:09Z</time>
      </trkpt>
      <trkpt lat="43.66149" lon="3.38209">
        <ele>197.4</ele>
        <time>2016-05-16T07:57:13Z</time>
      </trkpt>
      <trkpt lat="43.6615" lon="3.38219">
        <ele>197.5</ele>
        <time>2016-05-16T07:57:16Z</time>
      </trkpt>
      <trkpt lat="43.66153" lon="3.38228">
        <ele>197.8</ele>
        <time>2016-05-16T07:57:19Z</time>
      </trkpt>
      <trkpt lat="43.66153" lon="3.38242">
        <ele>197.9</ele>
        <time>2016-05-16T07:57:22Z</time>
      </trkpt>
      <trkpt lat="43.66153" lon="3.38252">
        <ele>197.8</ele>
        <time>2016-05-16T07:57:24Z</time>
      </trkpt>
      <trkpt lat="43.66151" lon="3.38264">
        <ele>197.6</ele>
        <time>2016-05-16T07:57:26Z</time>
      </trkpt>
      <trkpt lat="43.66147" lon="3.38274">
        <ele>196.8</ele>
        <time>2016-05-16T07:57:28Z</time>
      </trkpt>
      <trkpt lat="43.66143" lon="3.38283">
        <ele>195</ele>
        <time>2016-05-16T07:57:30Z</time>
      </trkpt>
      <trkpt lat="43.66141" lon="3.38293">
        <ele>194.7</ele>
        <time>2016-05-16T07:57:32Z</time>
      </trkpt>
      <trkpt lat="43.66144" lon="3.38302">
        <ele>194.1</ele>
        <time>2016-05-16T07:57:34Z</time>
      </trkpt>
      <trkpt lat="43.66141" lon="3.38316">
        <ele>193.4</ele>
        <time>2016-05-16T07:57:36Z</time>
      </trkpt>
      <trkpt lat="43.6614" lon="3.3833">
        <ele>193.6</ele>
        <time>2016-05-16T07:57:38Z</time>
      </trkpt>
      <trkpt lat="43.66139" lon="3.38343">
        <ele>193.7</ele>
        <time>2016-05-16T07:57:40Z</time>
      </trkpt>
      <trkpt lat="43.66139" lon="3.38356">
        <ele>193.6</ele>
        <time>2016-05-16T07:57:42Z</time>
      </trkpt>
      <trkpt lat="43.66135" lon="3.38366">
        <ele>193.7</ele>
        <time>2016-05-16T07:57:44Z</time>
      </trkpt>
      <trkpt lat="43.66126" lon="3.38377">
        <ele>193</ele>
        <time>2016-05-16T07:57:48Z</time>
      </trkpt>
      <trkpt lat="43.6612" lon="3.38382">
        <ele>192.9</ele>
        <time>2016-05-16T07:57:50Z</time>
      </trkpt>
      <trkpt lat="43.66116" lon="3.38393">
        <ele>192</ele>
        <time>2016-05-16T07:57:53Z</time>
      </trkpt>
      <trkpt lat="43.66113" lon="3.38403">
        <ele>191.9</ele>
        <time>2016-05-16T07:57:57Z</time>
      </trkpt>
      <trkpt lat="43.66112" lon="3.38413">
        <ele>191.9</ele>
        <time>2016-05-16T07:58:01Z</time>
      </trkpt>
      <trkpt lat="43.66106" lon="3.38421">
        <ele>191.5</ele>
        <time>2016-05-16T07:58:05Z</time>
      </trkpt>
      <trkpt lat="43.66101" lon="3.3843">
        <ele>191.2</ele>
        <time>2016-05-16T07:58:11Z</time>
      </trkpt>
      <trkpt lat="43.66099" lon="3.38444">
        <ele>190.2</ele>
        <time>2016-05-16T07:58:16Z</time>
      </trkpt>
      <trkpt lat="43.66097" lon="3.38459">
        <ele>188.4</ele>
        <time>2016-05-16T07:58:18Z</time>
      </trkpt>
      <trkpt lat="43.66098" lon="3.38473">
        <ele>187</ele>
        <time>2016-05-16T07:58:21Z</time>
      </trkpt>
      <trkpt lat="43.66099" lon="3.38486">
        <ele>187</ele>
        <time>2016-05-16T07:58:24Z</time>
      </trkpt>
      <trkpt lat="43.661" lon="3.38498">
        <ele>187.2</ele>
        <time>2016-05-16T07:58:27Z</time>
      </trkpt>
      <trkpt lat="43.66099" lon="3.38511">
        <ele>187.2</ele>
        <time>2016-05-16T07:58:30Z</time>
      </trkpt>
      <trkpt lat="43.66095" lon="3.38524">
        <ele>187.2</ele>
        <time>2016-05-16T07:58:34Z</time>
      </trkpt>
      <trkpt lat="43.66094" lon="3.38534">
        <ele>187</ele>
        <time>2016-05-16T07:58:37Z</time>
      </trkpt>
      <trkpt lat="43.66093" lon="3.38544">
        <ele>186.8</ele>
        <time>2016-05-16T07:58:40Z</time>
      </trkpt>
      <trkpt lat="43.66092" lon="3.38558">
        <ele>186.7</ele>
        <time>2016-05-16T07:58:45Z</time>
      </trkpt>
      <trkpt lat="43.66089" lon="3.38569">
        <ele>186.7</ele>
        <time>2016-05-16T07:58:49Z</time>
      </trkpt>
      <trkpt lat="43.66087" lon="3.38581">
        <ele>186.8</ele>
        <time>2016-05-16T07:58:52Z</time>
      </trkpt>
      <trkpt lat="43.66085" lon="3.38593">
        <ele>186.9</ele>
        <time>2016-05-16T07:58:55Z</time>
      </trkpt>
      <trkpt lat="43.66083" lon="3.38603">
        <ele>187</ele>
        <time>2016-05-16T07:58:57Z</time>
      </trkpt>
      <trkpt lat="43.66081" lon="3.38614">
        <ele>187.1</ele>
        <time>2016-05-16T07:59:00Z</time>
      </trkpt>
      <trkpt lat="43.66079" lon="3.38627">
        <ele>187.2</ele>
        <time>2016-05-16T07:59:03Z</time>
      </trkpt>
      <trkpt lat="43.66077" lon="3.38639">
        <ele>187.4</ele>
        <time>2016-05-16T07:59:07Z</time>
      </trkpt>
      <trkpt lat="43.66077" lon="3.38653">
        <ele>187.4</ele>
        <time>2016-05-16T07:59:10Z</time>
      </trkpt>
      <trkpt lat="43.66079" lon="3.38665">
        <ele>187.4</ele>
        <time>2016-05-16T07:59:13Z</time>
      </trkpt>
      <trkpt lat="43.66077" lon="3.38675">
        <ele>187.2</ele>
        <time>2016-05-16T07:59:16Z</time>
      </trkpt>
      <trkpt lat="43.66074" lon="3.38687">
        <ele>187.1</ele>
        <time>2016-05-16T07:59:19Z</time>
      </trkpt>
      <trkpt lat="43.66071" lon="3.38696">
        <ele>187.2</ele>
        <time>2016-05-16T07:59:22Z</time>
      </trkpt>
      <trkpt lat="43.66068" lon="3.38707">
        <ele>187.1</ele>
        <time>2016-05-16T07:59:25Z</time>
      </trkpt>
      <trkpt lat="43.66063" lon="3.38719">
        <ele>187.6</ele>
        <time>2016-05-16T07:59:28Z</time>
      </trkpt>
      <trkpt lat="43.66061" lon="3.38733">
        <ele>187.6</ele>
        <time>2016-05-16T07:59:31Z</time>
      </trkpt>
      <trkpt lat="43.66061" lon="3.38745">
        <ele>187.6</ele>
        <time>2016-05-16T07:59:35Z</time>
      </trkpt>
      <trkpt lat="43.66063" lon="3.38756">
        <ele>188</ele>
        <time>2016-05-16T07:59:39Z</time>
      </trkpt>
      <trkpt lat="43.66066" lon="3.38768">
        <ele>188.4</ele>
        <time>2016-05-16T07:59:43Z</time>
      </trkpt>
      <trkpt lat="43.66064" lon="3.38779">
        <ele>189</ele>
        <time>2016-05-16T07:59:47Z</time>
      </trkpt>
      <trkpt lat="43.66061" lon="3.38788">
        <ele>189.5</ele>
        <time>2016-05-16T07:59:51Z</time>
      </trkpt>
      <trkpt lat="43.66057" lon="3.388">
        <ele>190.1</ele>
        <time>2016-05-16T07:59:55Z</time>
      </trkpt>
      <trkpt lat="43.66053" lon="3.38812">
        <ele>190.9</ele>
        <time>2016-05-16T07:59:59Z</time>
      </trkpt>
      <trkpt lat="43.66048" lon="3.38821">
        <ele>191.5</ele>
        <time>2016-05-16T08:00:02Z</time>
      </trkpt>
      <trkpt lat="43.66043" lon="3.38835">
        <ele>192.1</ele>
        <time>2016-05-16T08:00:06Z</time>
      </trkpt>
      <trkpt lat="43.66039" lon="3.38847">
        <ele>192.4</ele>
        <time>2016-05-16T08:00:09Z</time>
      </trkpt>
      <trkpt lat="43.66032" lon="3.38857">
        <ele>193.5</ele>
        <time>2016-05-16T08:00:11Z</time>
      </trkpt>
      <trkpt lat="43.66023" lon="3.38866">
        <ele>194.3</ele>
        <time>2016-05-16T08:00:13Z</time>
      </trkpt>
      <trkpt lat="43.66015" lon="3.3887">
        <ele>193.7</ele>
        <time>2016-05-16T08:00:15Z</time>
      </trkpt>
      <trkpt lat="43.66008" lon="3.38869">
        <ele>193.4</ele>
        <time>2016-05-16T08:00:19Z</time>
      </trkpt>
      <trkpt lat="43.66009" lon="3.38868">
        <ele>192.9</ele>
        <time>2016-05-16T08:00:26Z</time>
      </trkpt>
      <trkpt lat="43.66014" lon="3.38868">
        <ele>192.2</ele>
        <time>2016-05-16T08:00:33Z</time>
      </trkpt>
      <trkpt lat="43.6602" lon="3.38862">
        <ele>192.2</ele>
        <time>2016-05-16T08:00:36Z</time>
      </trkpt>
      <trkpt lat="43.66027" lon="3.38853">
        <ele>192.1</ele>
        <time>2016-05-16T08:00:39Z</time>
      </trkpt>
      <trkpt lat="43.66033" lon="3.38842">
        <ele>192.1</ele>
        <time>2016-05-16T08:00:42Z</time>
      </trkpt>
      <trkpt lat="43.66037" lon="3.38833">
        <ele>192.3</ele>
        <time>2016-05-16T08:00:47Z</time>
      </trkpt>
      <trkpt lat="43.66043" lon="3.38823">
        <ele>192.4</ele>
        <time>2016-05-16T08:00:51Z</time>
      </trkpt>
      <trkpt lat="43.66048" lon="3.38814">
        <ele>192.4</ele>
        <time>2016-05-16T08:00:54Z</time>
      </trkpt>
      <trkpt lat="43.66051" lon="3.38804">
        <ele>192.2</ele>
        <time>2016-05-16T08:00:57Z</time>
      </trkpt>
      <trkpt lat="43.6606" lon="3.38795">
        <ele>192.1</ele>
        <time>2016-05-16T08:01:00Z</time>
      </trkpt>
      <trkpt lat="43.66067" lon="3.38789">
        <ele>192.2</ele>
        <time>2016-05-16T08:01:03Z</time>
      </trkpt>
      <trkpt lat="43.66072" lon="3.3878">
        <ele>192.5</ele>
        <time>2016-05-16T08:01:07Z</time>
      </trkpt>
      <trkpt lat="43.66078" lon="3.38775">
        <ele>192.8</ele>
        <time>2016-05-16T08:01:10Z</time>
      </trkpt>
      <trkpt lat="43.66085" lon="3.38767">
        <ele>193.3</ele>
        <time>2016-05-16T08:01:14Z</time>
      </trkpt>
      <trkpt lat="43.66091" lon="3.38762">
        <ele>193.6</ele>
        <time>2016-05-16T08:01:18Z</time>
      </trkpt>
      <trkpt lat="43.66097" lon="3.38756">
        <ele>193.7</ele>
        <time>2016-05-16T08:01:21Z</time>
      </trkpt>
      <trkpt lat="43.66105" lon="3.38752">
        <ele>193.9</ele>
        <time>2016-05-16T08:01:25Z</time>
      </trkpt>
      <trkpt lat="43.66111" lon="3.38746">
        <ele>194</ele>
        <time>2016-05-16T08:01:29Z</time>
      </trkpt>
      <trkpt lat="43.66117" lon="3.38738">
        <ele>194.2</ele>
        <time>2016-05-16T08:01:34Z</time>
      </trkpt>
      <trkpt lat="43.66125" lon="3.38738">
        <ele>195.7</ele>
        <time>2016-05-16T08:01:48Z</time>
      </trkpt>
      <trkpt lat="43.66125" lon="3.38744">
        <ele>195.8</ele>
        <time>2016-05-16T08:01:55Z</time>
      </trkpt>
      <trkpt lat="43.66128" lon="3.38753">
        <ele>196.5</ele>
        <time>2016-05-16T08:02:01Z</time>
      </trkpt>
      <trkpt lat="43.66128" lon="3.38764">
        <ele>197.6</ele>
        <time>2016-05-16T08:02:06Z</time>
      </trkpt>
      <trkpt lat="43.66125" lon="3.38774">
        <ele>198.5</ele>
        <time>2016-05-16T08:02:10Z</time>
      </trkpt>
      <trkpt lat="43.66122" lon="3.38784">
        <ele>199.6</ele>
        <time>2016-05-16T08:02:15Z</time>
      </trkpt>
      <trkpt lat="43.66118" lon="3.38796">
        <ele>200.2</ele>
        <time>2016-05-16T08:02:19Z</time>
      </trkpt>
      <trkpt lat="43.66118" lon="3.38806">
        <ele>201</ele>
        <time>2016-05-16T08:02:25Z</time>
      </trkpt>
      <trkpt lat="43.66116" lon="3.38816">
        <ele>202.6</ele>
        <time>2016-05-16T08:02:32Z</time>
      </trkpt>
      <trkpt lat="43.66114" lon="3.38829">
        <ele>203.5</ele>
        <time>2016-05-16T08:02:36Z</time>
      </trkpt>
      <trkpt lat="43.66113" lon="3.3884">
        <ele>204.3</ele>
        <time>2016-05-16T08:02:40Z</time>
      </trkpt>
      <trkpt lat="43.66112" lon="3.38852">
        <ele>204.7</ele>
        <time>2016-05-16T08:02:44Z</time>
      </trkpt>
      <trkpt lat="43.66112" lon="3.38862">
        <ele>204.9</ele>
        <time>2016-05-16T08:02:48Z</time>
      </trkpt>
      <trkpt lat="43.66113" lon="3.38872">
        <ele>205.1</ele>
        <time>2016-05-16T08:02:52Z</time>
      </trkpt>
      <trkpt lat="43.66112" lon="3.38883">
        <ele>205.2</ele>
        <time>2016-05-16T08:02:56Z</time>
      </trkpt>
      <trkpt lat="43.66111" lon="3.38895">
        <ele>205.8</ele>
        <time>2016-05-16T08:03:01Z</time>
      </trkpt>
      <trkpt lat="43.6611" lon="3.38905">
        <ele>206.3</ele>
        <time>2016-05-16T08:03:05Z</time>
      </trkpt>
      <trkpt lat="43.66109" lon="3.38915">
        <ele>207.2</ele>
        <time>2016-05-16T08:03:09Z</time>
      </trkpt>
      <trkpt lat="43.66106" lon="3.38925">
        <ele>208</ele>
        <time>2016-05-16T08:03:14Z</time>
      </trkpt>
      <trkpt lat="43.66101" lon="3.38934">
        <ele>208.5</ele>
        <time>2016-05-16T08:03:17Z</time>
      </trkpt>
      <trkpt lat="43.66096" lon="3.38942">
        <ele>209.1</ele>
        <time>2016-05-16T08:03:21Z</time>
      </trkpt>
      <trkpt lat="43.66091" lon="3.38951">
        <ele>209.8</ele>
        <time>2016-05-16T08:03:28Z</time>
      </trkpt>
      <trkpt lat="43.66088" lon="3.38961">
        <ele>210.3</ele>
        <time>2016-05-16T08:03:33Z</time>
      </trkpt>
      <trkpt lat="43.66089" lon="3.38972">
        <ele>210.9</ele>
        <time>2016-05-16T08:03:38Z</time>
      </trkpt>
      <trkpt lat="43.6609" lon="3.38983">
        <ele>212.1</ele>
        <time>2016-05-16T08:03:45Z</time>
      </trkpt>
      <trkpt lat="43.66089" lon="3.38995">
        <ele>212.9</ele>
        <time>2016-05-16T08:03:50Z</time>
      </trkpt>
      <trkpt lat="43.66088" lon="3.39005">
        <ele>213.7</ele>
        <time>2016-05-16T08:03:54Z</time>
      </trkpt>
      <trkpt lat="43.66088" lon="3.39016">
        <ele>214.6</ele>
        <time>2016-05-16T08:03:59Z</time>
      </trkpt>
      <trkpt lat="43.66089" lon="3.39027">
        <ele>215.4</ele>
        <time>2016-05-16T08:04:04Z</time>
      </trkpt>
      <trkpt lat="43.66089" lon="3.39037">
        <ele>216.4</ele>
        <time>2016-05-16T08:04:09Z</time>
      </trkpt>
      <trkpt lat="43.66089" lon="3.39049">
        <ele>217.9</ele>
        <time>2016-05-16T08:04:15Z</time>
      </trkpt>
      <trkpt lat="43.6609" lon="3.39061">
        <ele>218.7</ele>
        <time>2016-05-16T08:04:20Z</time>
      </trkpt>
      <trkpt lat="43.66089" lon="3.39072">
        <ele>219.5</ele>
        <time>2016-05-16T08:04:24Z</time>
      </trkpt>
      <trkpt lat="43.66091" lon="3.39084">
        <ele>219.9</ele>
        <time>2016-05-16T08:04:28Z</time>
      </trkpt>
      <trkpt lat="43.66092" lon="3.39092">
        <ele>221</ele>
        <time>2016-05-16T08:04:35Z</time>
      </trkpt>
      <trkpt lat="43.6609" lon="3.39103">
        <ele>221.8</ele>
        <time>2016-05-16T08:04:40Z</time>
      </trkpt>
      <trkpt lat="43.6609" lon="3.39114">
        <ele>222.5</ele>
        <time>2016-05-16T08:04:46Z</time>
      </trkpt>
      <trkpt lat="43.66095" lon="3.39123">
        <ele>223.2</ele>
        <time>2016-05-16T08:04:51Z</time>
      </trkpt>
      <trkpt lat="43.66097" lon="3.39135">
        <ele>224.2</ele>
        <time>2016-05-16T08:04:57Z</time>
      </trkpt>
      <trkpt lat="43.66099" lon="3.39145">
        <ele>225.4</ele>
        <time>2016-05-16T08:05:03Z</time>
      </trkpt>
      <trkpt lat="43.66101" lon="3.39155">
        <ele>226.7</ele>
        <time>2016-05-16T08:05:09Z</time>
      </trkpt>
      <trkpt lat="43.66103" lon="3.39166">
        <ele>228.5</ele>
        <time>2016-05-16T08:05:16Z</time>
      </trkpt>
      <trkpt lat="43.66108" lon="3.39175">
        <ele>229.7</ele>
        <time>2016-05-16T08:05:20Z</time>
      </trkpt>
      <trkpt lat="43.6611" lon="3.39185">
        <ele>231.6</ele>
        <time>2016-05-16T08:05:27Z</time>
      </trkpt>
      <trkpt lat="43.66113" lon="3.39194">
        <ele>232.8</ele>
        <time>2016-05-16T08:05:33Z</time>
      </trkpt>
      <trkpt lat="43.66113" lon="3.39207">
        <ele>233.5</ele>
        <time>2016-05-16T08:05:38Z</time>
      </trkpt>
      <trkpt lat="43.66113" lon="3.39218">
        <ele>233.9</ele>
        <time>2016-05-16T08:05:43Z</time>
      </trkpt>
      <trkpt lat="43.66111" lon="3.3923">
        <ele>234.4</ele>
        <time>2016-05-16T08:05:48Z</time>
      </trkpt>
      <trkpt lat="43.66109" lon="3.3924">
        <ele>235</ele>
        <time>2016-05-16T08:05:54Z</time>
      </trkpt>
      <trkpt lat="43.66106" lon="3.3925">
        <ele>235.9</ele>
        <time>2016-05-16T08:05:59Z</time>
      </trkpt>
      <trkpt lat="43.66102" lon="3.39258">
        <ele>236.5</ele>
        <time>2016-05-16T08:06:03Z</time>
      </trkpt>
      <trkpt lat="43.66102" lon="3.39268">
        <ele>237.1</ele>
        <time>2016-05-16T08:06:08Z</time>
      </trkpt>
      <trkpt lat="43.66105" lon="3.39275">
        <ele>238.7</ele>
        <time>2016-05-16T08:06:15Z</time>
      </trkpt>
      <trkpt lat="43.6611" lon="3.39279">
        <ele>240.6</ele>
        <time>2016-05-16T08:06:22Z</time>
      </trkpt>
      <trkpt lat="43.66113" lon="3.39275">
        <ele>242</ele>
        <time>2016-05-16T08:06:29Z</time>
      </trkpt>
      <trkpt lat="43.66118" lon="3.39272">
        <ele>243</ele>
        <time>2016-05-16T08:06:36Z</time>
      </trkpt>
      <trkpt lat="43.66123" lon="3.39265">
        <ele>243.6</ele>
        <time>2016-05-16T08:06:42Z</time>
      </trkpt>
      <trkpt lat="43.66129" lon="3.39256">
        <ele>243.8</ele>
        <time>2016-05-16T08:06:45Z</time>
      </trkpt>
      <trkpt lat="43.66133" lon="3.39248">
        <ele>244.1</ele>
        <time>2016-05-16T08:06:48Z</time>
      </trkpt>
      <trkpt lat="43.66136" lon="3.39238">
        <ele>244.5</ele>
        <time>2016-05-16T08:06:51Z</time>
      </trkpt>
      <trkpt lat="43.66138" lon="3.39227">
        <ele>244.7</ele>
        <time>2016-05-16T08:06:54Z</time>
      </trkpt>
      <trkpt lat="43.66134" lon="3.39215">
        <ele>244.8</ele>
        <time>2016-05-16T08:06:57Z</time>
      </trkpt>
      <trkpt lat="43.66131" lon="3.39205">
        <ele>244.7</ele>
        <time>2016-05-16T08:07:02Z</time>
      </trkpt>
      <trkpt lat="43.6613" lon="3.39195">
        <ele>244.4</ele>
        <time>2016-05-16T08:07:06Z</time>
      </trkpt>
      <trkpt lat="43.66129" lon="3.39185">
        <ele>244.4</ele>
        <time>2016-05-16T08:07:09Z</time>
      </trkpt>
      <trkpt lat="43.66129" lon="3.39172">
        <ele>244.4</ele>
        <time>2016-05-16T08:07:13Z</time>
      </trkpt>
      <trkpt lat="43.66128" lon="3.39161">
        <ele>244.1</ele>
        <time>2016-05-16T08:07:18Z</time>
      </trkpt>
      <trkpt lat="43.6613" lon="3.39147">
        <ele>243.8</ele>
        <time>2016-05-16T08:07:22Z</time>
      </trkpt>
      <trkpt lat="43.66133" lon="3.39136">
        <ele>243.8</ele>
        <time>2016-05-16T08:07:26Z</time>
      </trkpt>
      <trkpt lat="43.66138" lon="3.39124">
        <ele>243.7</ele>
        <time>2016-05-16T08:07:31Z</time>
      </trkpt>
      <trkpt lat="43.6614" lon="3.39112">
        <ele>243.6</ele>
        <time>2016-05-16T08:07:37Z</time>
      </trkpt>
      <trkpt lat="43.66147" lon="3.39105">
        <ele>243.8</ele>
        <time>2016-05-16T08:07:39Z</time>
      </trkpt>
      <trkpt lat="43.66147" lon="3.39094">
        <ele>244.3</ele>
        <time>2016-05-16T08:07:44Z</time>
      </trkpt>
      <trkpt lat="43.66151" lon="3.39082">
        <ele>244.6</ele>
        <time>2016-05-16T08:07:48Z</time>
      </trkpt>
      <trkpt lat="43.66155" lon="3.39071">
        <ele>244.8</ele>
        <time>2016-05-16T08:07:51Z</time>
      </trkpt>
      <trkpt lat="43.6616" lon="3.39063">
        <ele>245</ele>
        <time>2016-05-16T08:07:55Z</time>
      </trkpt>
      <trkpt lat="43.66168" lon="3.39062">
        <ele>245.5</ele>
        <time>2016-05-16T08:08:00Z</time>
      </trkpt>
      <trkpt lat="43.66168" lon="3.39074">
        <ele>247.5</ele>
        <time>2016-05-16T08:08:06Z</time>
      </trkpt>
      <trkpt lat="43.66165" lon="3.39084">
        <ele>248.7</ele>
        <time>2016-05-16T08:08:10Z</time>
      </trkpt>
      <trkpt lat="43.66165" lon="3.39095">
        <ele>249.8</ele>
        <time>2016-05-16T08:08:14Z</time>
      </trkpt>
      <trkpt lat="43.66164" lon="3.39106">
        <ele>250.5</ele>
        <time>2016-05-16T08:08:17Z</time>
      </trkpt>
      <trkpt lat="43.66165" lon="3.39118">
        <ele>251.3</ele>
        <time>2016-05-16T08:08:20Z</time>
      </trkpt>
      <trkpt lat="43.66164" lon="3.39129">
        <ele>252.2</ele>
        <time>2016-05-16T08:08:24Z</time>
      </trkpt>
      <trkpt lat="43.66162" lon="3.39139">
        <ele>252.5</ele>
        <time>2016-05-16T08:08:27Z</time>
      </trkpt>
      <trkpt lat="43.66162" lon="3.3915">
        <ele>253.2</ele>
        <time>2016-05-16T08:08:31Z</time>
      </trkpt>
      <trkpt lat="43.6616" lon="3.39161">
        <ele>253.9</ele>
        <time>2016-05-16T08:08:35Z</time>
      </trkpt>
      <trkpt lat="43.66162" lon="3.39172">
        <ele>254.6</ele>
        <time>2016-05-16T08:08:39Z</time>
      </trkpt>
      <trkpt lat="43.66163" lon="3.39182">
        <ele>255.1</ele>
        <time>2016-05-16T08:08:42Z</time>
      </trkpt>
      <trkpt lat="43.66164" lon="3.39192">
        <ele>255.7</ele>
        <time>2016-05-16T08:08:45Z</time>
      </trkpt>
      <trkpt lat="43.66166" lon="3.39202">
        <ele>256.4</ele>
        <time>2016-05-16T08:08:49Z</time>
      </trkpt>
      <trkpt lat="43.66169" lon="3.39215">
        <ele>257.6</ele>
        <time>2016-05-16T08:08:54Z</time>
      </trkpt>
      <trkpt lat="43.66171" lon="3.39225">
        <ele>258.4</ele>
        <time>2016-05-16T08:08:58Z</time>
      </trkpt>
      <trkpt lat="43.66172" lon="3.39238">
        <ele>259.1</ele>
        <time>2016-05-16T08:09:02Z</time>
      </trkpt>
      <trkpt lat="43.66172" lon="3.3925">
        <ele>260</ele>
        <time>2016-05-16T08:09:06Z</time>
      </trkpt>
      <trkpt lat="43.66172" lon="3.39261">
        <ele>260.6</ele>
        <time>2016-05-16T08:09:09Z</time>
      </trkpt>
      <trkpt lat="43.66169" lon="3.39271">
        <ele>261.3</ele>
        <time>2016-05-16T08:09:13Z</time>
      </trkpt>
      <trkpt lat="43.66164" lon="3.3928">
        <ele>261.8</ele>
        <time>2016-05-16T08:09:16Z</time>
      </trkpt>
      <trkpt lat="43.66161" lon="3.3929">
        <ele>262.4</ele>
        <time>2016-05-16T08:09:19Z</time>
      </trkpt>
      <trkpt lat="43.66157" lon="3.393">
        <ele>263.3</ele>
        <time>2016-05-16T08:09:23Z</time>
      </trkpt>
      <trkpt lat="43.66153" lon="3.39309">
        <ele>264.1</ele>
        <time>2016-05-16T08:09:26Z</time>
      </trkpt>
      <trkpt lat="43.66148" lon="3.39318">
        <ele>265</ele>
        <time>2016-05-16T08:09:30Z</time>
      </trkpt>
      <trkpt lat="43.66143" lon="3.39328">
        <ele>265.6</ele>
        <time>2016-05-16T08:09:34Z</time>
      </trkpt>
      <trkpt lat="43.66137" lon="3.39338">
        <ele>266.6</ele>
        <time>2016-05-16T08:09:38Z</time>
      </trkpt>
      <trkpt lat="43.66133" lon="3.3935">
        <ele>267.4</ele>
        <time>2016-05-16T08:09:42Z</time>
      </trkpt>
      <trkpt lat="43.6613" lon="3.3936">
        <ele>267.8</ele>
        <time>2016-05-16T08:09:45Z</time>
      </trkpt>
      <trkpt lat="43.66125" lon="3.3937">
        <ele>268.2</ele>
        <time>2016-05-16T08:09:48Z</time>
      </trkpt>
      <trkpt lat="43.6612" lon="3.39378">
        <ele>268.5</ele>
        <time>2016-05-16T08:09:51Z</time>
      </trkpt>
      <trkpt lat="43.66114" lon="3.39387">
        <ele>268.8</ele>
        <time>2016-05-16T08:09:54Z</time>
      </trkpt>
      <trkpt lat="43.66109" lon="3.39395">
        <ele>269.1</ele>
        <time>2016-05-16T08:09:57Z</time>
      </trkpt>
      <trkpt lat="43.66103" lon="3.39402">
        <ele>269.4</ele>
        <time>2016-05-16T08:10:00Z</time>
      </trkpt>
      <trkpt lat="43.661" lon="3.39415">
        <ele>269.8</ele>
        <time>2016-05-16T08:10:04Z</time>
      </trkpt>
      <trkpt lat="43.661" lon="3.39426">
        <ele>270.2</ele>
        <time>2016-05-16T08:10:07Z</time>
      </trkpt>
      <trkpt lat="43.66101" lon="3.39435">
        <ele>270.7</ele>
        <time>2016-05-16T08:10:10Z</time>
      </trkpt>
      <trkpt lat="43.66107" lon="3.39443">
        <ele>271.1</ele>
        <time>2016-05-16T08:10:13Z</time>
      </trkpt>
      <trkpt lat="43.66113" lon="3.3945">
        <ele>273</ele>
        <time>2016-05-16T08:10:15Z</time>
      </trkpt>
      <trkpt lat="43.66123" lon="3.39458">
        <ele>274.3</ele>
        <time>2016-05-16T08:10:18Z</time>
      </trkpt>
      <trkpt lat="43.6613" lon="3.39465">
        <ele>274.6</ele>
        <time>2016-05-16T08:10:20Z</time>
      </trkpt>
      <trkpt lat="43.66138" lon="3.39472">
        <ele>274.5</ele>
        <time>2016-05-16T08:10:22Z</time>
      </trkpt>
      <trkpt lat="43.66147" lon="3.39477">
        <ele>273.8</ele>
        <time>2016-05-16T08:10:24Z</time>
      </trkpt>
      <trkpt lat="43.66156" lon="3.39478">
        <ele>272.6</ele>
        <time>2016-05-16T08:10:26Z</time>
      </trkpt>
      <trkpt lat="43.66168" lon="3.39479">
        <ele>271.5</ele>
        <time>2016-05-16T08:10:28Z</time>
      </trkpt>
      <trkpt lat="43.66179" lon="3.3948">
        <ele>271.4</ele>
        <time>2016-05-16T08:10:30Z</time>
      </trkpt>
      <trkpt lat="43.6619" lon="3.39481">
        <ele>271.3</ele>
        <time>2016-05-16T08:10:32Z</time>
      </trkpt>
      <trkpt lat="43.66202" lon="3.39486">
        <ele>271.1</ele>
        <time>2016-05-16T08:10:34Z</time>
      </trkpt>
      <trkpt lat="43.66213" lon="3.39489">
        <ele>270.5</ele>
        <time>2016-05-16T08:10:36Z</time>
      </trkpt>
      <trkpt lat="43.66226" lon="3.39493">
        <ele>270.4</ele>
        <time>2016-05-16T08:10:38Z</time>
      </trkpt>
      <trkpt lat="43.6624" lon="3.39496">
        <ele>271.7</ele>
        <time>2016-05-16T08:10:40Z</time>
      </trkpt>
      <trkpt lat="43.66248" lon="3.39498">
        <ele>272</ele>
        <time>2016-05-16T08:10:41Z</time>
      </trkpt>
      <trkpt lat="43.66256" lon="3.39501">
        <ele>272.4</ele>
        <time>2016-05-16T08:10:42Z</time>
      </trkpt>
      <trkpt lat="43.66263" lon="3.39504">
        <ele>272.1</ele>
        <time>2016-05-16T08:10:43Z</time>
      </trkpt>
      <trkpt lat="43.66276" lon="3.3951">
        <ele>270.6</ele>
        <time>2016-05-16T08:10:45Z</time>
      </trkpt>
      <trkpt lat="43.66289" lon="3.39516">
        <ele>269.7</ele>
        <time>2016-05-16T08:10:47Z</time>
      </trkpt>
      <trkpt lat="43.663" lon="3.3952">
        <ele>268.8</ele>
        <time>2016-05-16T08:10:49Z</time>
      </trkpt>
      <trkpt lat="43.66313" lon="3.39522">
        <ele>268.2</ele>
        <time>2016-05-16T08:10:51Z</time>
      </trkpt>
      <trkpt lat="43.66325" lon="3.39519">
        <ele>266.9</ele>
        <time>2016-05-16T08:10:53Z</time>
      </trkpt>
      <trkpt lat="43.66336" lon="3.39517">
        <ele>266.9</ele>
        <time>2016-05-16T08:10:55Z</time>
      </trkpt>
      <trkpt lat="43.66347" lon="3.39512">
        <ele>266.4</ele>
        <time>2016-05-16T08:10:57Z</time>
      </trkpt>
      <trkpt lat="43.66359" lon="3.39506">
        <ele>265.9</ele>
        <time>2016-05-16T08:10:59Z</time>
      </trkpt>
      <trkpt lat="43.6637" lon="3.39507">
        <ele>266.5</ele>
        <time>2016-05-16T08:11:01Z</time>
      </trkpt>
      <trkpt lat="43.66375" lon="3.39522">
        <ele>265.6</ele>
        <time>2016-05-16T08:11:03Z</time>
      </trkpt>
      <trkpt lat="43.66371" lon="3.39533">
        <ele>265.5</ele>
        <time>2016-05-16T08:11:06Z</time>
      </trkpt>
      <trkpt lat="43.66364" lon="3.3954">
        <ele>265.5</ele>
        <time>2016-05-16T08:11:09Z</time>
      </trkpt>
      <trkpt lat="43.66357" lon="3.39546">
        <ele>265.6</ele>
        <time>2016-05-16T08:11:12Z</time>
      </trkpt>
      <trkpt lat="43.6635" lon="3.39553">
        <ele>265.9</ele>
        <time>2016-05-16T08:11:15Z</time>
      </trkpt>
      <trkpt lat="43.66344" lon="3.39565">
        <ele>266.2</ele>
        <time>2016-05-16T08:11:18Z</time>
      </trkpt>
      <trkpt lat="43.66341" lon="3.39576">
        <ele>266.5</ele>
        <time>2016-05-16T08:11:21Z</time>
      </trkpt>
      <trkpt lat="43.66337" lon="3.39589">
        <ele>266.7</ele>
        <time>2016-05-16T08:11:24Z</time>
      </trkpt>
      <trkpt lat="43.66332" lon="3.39598">
        <ele>266.8</ele>
        <time>2016-05-16T08:11:26Z</time>
      </trkpt>
      <trkpt lat="43.66325" lon="3.39603">
        <ele>266.8</ele>
        <time>2016-05-16T08:11:28Z</time>
      </trkpt>
      <trkpt lat="43.66314" lon="3.39604">
        <ele>267.2</ele>
        <time>2016-05-16T08:11:31Z</time>
      </trkpt>
      <trkpt lat="43.66306" lon="3.39606">
        <ele>267.1</ele>
        <time>2016-05-16T08:11:34Z</time>
      </trkpt>
      <trkpt lat="43.66297" lon="3.39611">
        <ele>266.9</ele>
        <time>2016-05-16T08:11:37Z</time>
      </trkpt>
      <trkpt lat="43.66289" lon="3.39616">
        <ele>266.7</ele>
        <time>2016-05-16T08:11:40Z</time>
      </trkpt>
      <trkpt lat="43.66281" lon="3.39619">
        <ele>266.5</ele>
        <time>2016-05-16T08:11:43Z</time>
      </trkpt>
      <trkpt lat="43.66271" lon="3.39625">
        <ele>266.5</ele>
        <time>2016-05-16T08:11:46Z</time>
      </trkpt>
      <trkpt lat="43.66262" lon="3.39633">
        <ele>266.5</ele>
        <time>2016-05-16T08:11:49Z</time>
      </trkpt>
      <trkpt lat="43.66253" lon="3.39639">
        <ele>266.5</ele>
        <time>2016-05-16T08:11:52Z</time>
      </trkpt>
      <trkpt lat="43.66244" lon="3.3964">
        <ele>266.7</ele>
        <time>2016-05-16T08:11:55Z</time>
      </trkpt>
      <trkpt lat="43.66234" lon="3.39643">
        <ele>266.7</ele>
        <time>2016-05-16T08:11:58Z</time>
      </trkpt>
      <trkpt lat="43.66229" lon="3.39651">
        <ele>266</ele>
        <time>2016-05-16T08:12:00Z</time>
      </trkpt>
      <trkpt lat="43.66225" lon="3.39661">
        <ele>266.8</ele>
        <time>2016-05-16T08:12:02Z</time>
      </trkpt>
      <trkpt lat="43.6622" lon="3.39673">
        <ele>268.3</ele>
        <time>2016-05-16T08:12:04Z</time>
      </trkpt>
      <trkpt lat="43.66214" lon="3.39685">
        <ele>268.8</ele>
        <time>2016-05-16T08:12:06Z</time>
      </trkpt>
      <trkpt lat="43.66207" lon="3.39695">
        <ele>268.8</ele>
        <time>2016-05-16T08:12:08Z</time>
      </trkpt>
      <trkpt lat="43.66201" lon="3.39704">
        <ele>267.8</ele>
        <time>2016-05-16T08:12:10Z</time>
      </trkpt>
      <trkpt lat="43.66194" lon="3.3971">
        <ele>267.3</ele>
        <time>2016-05-16T08:12:12Z</time>
      </trkpt>
      <trkpt lat="43.66186" lon="3.39715">
        <ele>266.6</ele>
        <time>2016-05-16T08:12:14Z</time>
      </trkpt>
      <trkpt lat="43.66177" lon="3.3972">
        <ele>266.1</ele>
        <time>2016-05-16T08:12:16Z</time>
      </trkpt>
      <trkpt lat="43.66168" lon="3.39719">
        <ele>266</ele>
        <time>2016-05-16T08:12:18Z</time>
      </trkpt>
      <trkpt lat="43.66158" lon="3.39718">
        <ele>265.3</ele>
        <time>2016-05-16T08:12:20Z</time>
      </trkpt>
      <trkpt lat="43.66148" lon="3.39717">
        <ele>264.7</ele>
        <time>2016-05-16T08:12:22Z</time>
      </trkpt>
      <trkpt lat="43.6614" lon="3.39716">
        <ele>263</ele>
        <time>2016-05-16T08:12:24Z</time>
      </trkpt>
      <trkpt lat="43.66133" lon="3.39715">
        <ele>262.1</ele>
        <time>2016-05-16T08:12:26Z</time>
      </trkpt>
      <trkpt lat="43.66125" lon="3.39718">
        <ele>261.9</ele>
        <time>2016-05-16T08:12:29Z</time>
      </trkpt>
      <trkpt lat="43.66118" lon="3.39723">
        <ele>261.9</ele>
        <time>2016-05-16T08:12:31Z</time>
      </trkpt>
      <trkpt lat="43.66112" lon="3.39729">
        <ele>261.9</ele>
        <time>2016-05-16T08:12:33Z</time>
      </trkpt>
      <trkpt lat="43.66106" lon="3.39738">
        <ele>261.8</ele>
        <time>2016-05-16T08:12:36Z</time>
      </trkpt>
      <trkpt lat="43.66102" lon="3.39746">
        <ele>262</ele>
        <time>2016-05-16T08:12:38Z</time>
      </trkpt>
      <trkpt lat="43.66098" lon="3.39757">
        <ele>263.1</ele>
        <time>2016-05-16T08:12:40Z</time>
      </trkpt>
      <trkpt lat="43.66095" lon="3.39768">
        <ele>264.1</ele>
        <time>2016-05-16T08:12:42Z</time>
      </trkpt>
      <trkpt lat="43.66087" lon="3.39777">
        <ele>264.2</ele>
        <time>2016-05-16T08:12:45Z</time>
      </trkpt>
      <trkpt lat="43.66079" lon="3.39781">
        <ele>264.5</ele>
        <time>2016-05-16T08:12:47Z</time>
      </trkpt>
      <trkpt lat="43.6607" lon="3.39784">
        <ele>265.2</ele>
        <time>2016-05-16T08:12:49Z</time>
      </trkpt>
      <trkpt lat="43.66062" lon="3.39789">
        <ele>265.6</ele>
        <time>2016-05-16T08:12:51Z</time>
      </trkpt>
      <trkpt lat="43.66054" lon="3.39796">
        <ele>265.6</ele>
        <time>2016-05-16T08:12:53Z</time>
      </trkpt>
      <trkpt lat="43.66047" lon="3.39803">
        <ele>265.3</ele>
        <time>2016-05-16T08:12:55Z</time>
      </trkpt>
      <trkpt lat="43.66039" lon="3.39811">
        <ele>264.1</ele>
        <time>2016-05-16T08:12:57Z</time>
      </trkpt>
      <trkpt lat="43.6603" lon="3.39821">
        <ele>263.6</ele>
        <time>2016-05-16T08:13:00Z</time>
      </trkpt>
      <trkpt lat="43.66023" lon="3.3983">
        <ele>263.1</ele>
        <time>2016-05-16T08:13:02Z</time>
      </trkpt>
      <trkpt lat="43.66016" lon="3.39837">
        <ele>263.4</ele>
        <time>2016-05-16T08:13:04Z</time>
      </trkpt>
      <trkpt lat="43.6601" lon="3.39843">
        <ele>264.5</ele>
        <time>2016-05-16T08:13:06Z</time>
      </trkpt>
      <trkpt lat="43.66001" lon="3.3985">
        <ele>265</ele>
        <time>2016-05-16T08:13:09Z</time>
      </trkpt>
      <trkpt lat="43.65994" lon="3.39855">
        <ele>265</ele>
        <time>2016-05-16T08:13:11Z</time>
      </trkpt>
      <trkpt lat="43.65986" lon="3.39858">
        <ele>264.9</ele>
        <time>2016-05-16T08:13:13Z</time>
      </trkpt>
      <trkpt lat="43.65979" lon="3.39862">
        <ele>265</ele>
        <time>2016-05-16T08:13:15Z</time>
      </trkpt>
      <trkpt lat="43.65972" lon="3.39867">
        <ele>265</ele>
        <time>2016-05-16T08:13:17Z</time>
      </trkpt>
      <trkpt lat="43.65966" lon="3.39873">
        <ele>265.3</ele>
        <time>2016-05-16T08:13:19Z</time>
      </trkpt>
      <trkpt lat="43.6596" lon="3.39878">
        <ele>265.3</ele>
        <time>2016-05-16T08:13:21Z</time>
      </trkpt>
      <trkpt lat="43.65952" lon="3.39883">
        <ele>266.4</ele>
        <time>2016-05-16T08:13:23Z</time>
      </trkpt>
      <trkpt lat="43.65943" lon="3.39888">
        <ele>267.1</ele>
        <time>2016-05-16T08:13:26Z</time>
      </trkpt>
      <trkpt lat="43.65936" lon="3.39892">
        <ele>267.2</ele>
        <time>2016-05-16T08:13:28Z</time>
      </trkpt>
      <trkpt lat="43.65929" lon="3.39898">
        <ele>268.9</ele>
        <time>2016-05-16T08:13:30Z</time>
      </trkpt>
      <trkpt lat="43.65923" lon="3.39904">
        <ele>269</ele>
        <time>2016-05-16T08:13:32Z</time>
      </trkpt>
      <trkpt lat="43.65916" lon="3.39912">
        <ele>269.3</ele>
        <time>2016-05-16T08:13:34Z</time>
      </trkpt>
      <trkpt lat="43.65909" lon="3.39919">
        <ele>270.2</ele>
        <time>2016-05-16T08:13:36Z</time>
      </trkpt>
      <trkpt lat="43.65902" lon="3.39928">
        <ele>270.2</ele>
        <time>2016-05-16T08:13:38Z</time>
      </trkpt>
      <trkpt lat="43.65896" lon="3.39939">
        <ele>269.8</ele>
        <time>2016-05-16T08:13:40Z</time>
      </trkpt>
      <trkpt lat="43.65892" lon="3.39952">
        <ele>269.4</ele>
        <time>2016-05-16T08:13:42Z</time>
      </trkpt>
      <trkpt lat="43.65889" lon="3.39966">
        <ele>268.6</ele>
        <time>2016-05-16T08:13:44Z</time>
      </trkpt>
      <trkpt lat="43.65888" lon="3.3998">
        <ele>269.8</ele>
        <time>2016-05-16T08:13:46Z</time>
      </trkpt>
      <trkpt lat="43.6589" lon="3.39994">
        <ele>270</ele>
        <time>2016-05-16T08:13:48Z</time>
      </trkpt>
      <trkpt lat="43.65892" lon="3.40008">
        <ele>269.7</ele>
        <time>2016-05-16T08:13:50Z</time>
      </trkpt>
      <trkpt lat="43.65896" lon="3.40022">
        <ele>269.3</ele>
        <time>2016-05-16T08:13:52Z</time>
      </trkpt>
      <trkpt lat="43.65899" lon="3.40035">
        <ele>268.5</ele>
        <time>2016-05-16T08:13:54Z</time>
      </trkpt>
      <trkpt lat="43.65903" lon="3.40048">
        <ele>267.4</ele>
        <time>2016-05-16T08:13:56Z</time>
      </trkpt>
      <trkpt lat="43.65909" lon="3.40058">
        <ele>267.3</ele>
        <time>2016-05-16T08:13:58Z</time>
      </trkpt>
      <trkpt lat="43.65917" lon="3.40069">
        <ele>268</ele>
        <time>2016-05-16T08:14:00Z</time>
      </trkpt>
      <trkpt lat="43.65923" lon="3.40079">
        <ele>267.8</ele>
        <time>2016-05-16T08:14:02Z</time>
      </trkpt>
      <trkpt lat="43.65931" lon="3.4009">
        <ele>268</ele>
        <time>2016-05-16T08:14:04Z</time>
      </trkpt>
      <trkpt lat="43.65939" lon="3.40099">
        <ele>267.8</ele>
        <time>2016-05-16T08:14:06Z</time>
      </trkpt>
      <trkpt lat="43.65948" lon="3.40109">
        <ele>268.2</ele>
        <time>2016-05-16T08:14:08Z</time>
      </trkpt>
      <trkpt lat="43.65957" lon="3.40118">
        <ele>267.9</ele>
        <time>2016-05-16T08:14:10Z</time>
      </trkpt>
      <trkpt lat="43.65966" lon="3.40128">
        <ele>267.8</ele>
        <time>2016-05-16T08:14:12Z</time>
      </trkpt>
      <trkpt lat="43.65974" lon="3.40139">
        <ele>268.4</ele>
        <time>2016-05-16T08:14:14Z</time>
      </trkpt>
      <trkpt lat="43.65981" lon="3.40153">
        <ele>269</ele>
        <time>2016-05-16T08:14:16Z</time>
      </trkpt>
      <trkpt lat="43.65985" lon="3.40162">
        <ele>269.3</ele>
        <time>2016-05-16T08:14:17Z</time>
      </trkpt>
      <trkpt lat="43.6599" lon="3.40177">
        <ele>269.1</ele>
        <time>2016-05-16T08:14:19Z</time>
      </trkpt>
      <trkpt lat="43.65993" lon="3.4019">
        <ele>267.8</ele>
        <time>2016-05-16T08:14:21Z</time>
      </trkpt>
      <trkpt lat="43.65996" lon="3.40204">
        <ele>267.6</ele>
        <time>2016-05-16T08:14:23Z</time>
      </trkpt>
      <trkpt lat="43.65997" lon="3.40217">
        <ele>267.7</ele>
        <time>2016-05-16T08:14:25Z</time>
      </trkpt>
      <trkpt lat="43.66001" lon="3.40228">
        <ele>267.5</ele>
        <time>2016-05-16T08:14:27Z</time>
      </trkpt>
      <trkpt lat="43.66004" lon="3.40241">
        <ele>267.7</ele>
        <time>2016-05-16T08:14:29Z</time>
      </trkpt>
      <trkpt lat="43.66008" lon="3.40253">
        <ele>267.4</ele>
        <time>2016-05-16T08:14:31Z</time>
      </trkpt>
      <trkpt lat="43.66012" lon="3.40265">
        <ele>267.6</ele>
        <time>2016-05-16T08:14:33Z</time>
      </trkpt>
      <trkpt lat="43.66016" lon="3.40278">
        <ele>266.8</ele>
        <time>2016-05-16T08:14:35Z</time>
      </trkpt>
      <trkpt lat="43.6602" lon="3.40291">
        <ele>265.8</ele>
        <time>2016-05-16T08:14:37Z</time>
      </trkpt>
      <trkpt lat="43.6602" lon="3.40305">
        <ele>264.6</ele>
        <time>2016-05-16T08:14:39Z</time>
      </trkpt>
      <trkpt lat="43.6602" lon="3.4032">
        <ele>263.9</ele>
        <time>2016-05-16T08:14:41Z</time>
      </trkpt>
      <trkpt lat="43.66021" lon="3.40332">
        <ele>265.1</ele>
        <time>2016-05-16T08:14:43Z</time>
      </trkpt>
      <trkpt lat="43.66022" lon="3.40347">
        <ele>266.7</ele>
        <time>2016-05-16T08:14:45Z</time>
      </trkpt>
      <trkpt lat="43.6602" lon="3.40361">
        <ele>267.3</ele>
        <time>2016-05-16T08:14:47Z</time>
      </trkpt>
      <trkpt lat="43.66022" lon="3.40375">
        <ele>265.2</ele>
        <time>2016-05-16T08:14:49Z</time>
      </trkpt>
      <trkpt lat="43.66024" lon="3.4039">
        <ele>266.1</ele>
        <time>2016-05-16T08:14:51Z</time>
      </trkpt>
      <trkpt lat="43.66027" lon="3.40404">
        <ele>266.9</ele>
        <time>2016-05-16T08:14:53Z</time>
      </trkpt>
      <trkpt lat="43.6603" lon="3.40416">
        <ele>266.3</ele>
        <time>2016-05-16T08:14:55Z</time>
      </trkpt>
      <trkpt lat="43.66034" lon="3.40428">
        <ele>265.5</ele>
        <time>2016-05-16T08:14:57Z</time>
      </trkpt>
      <trkpt lat="43.66037" lon="3.40439">
        <ele>264.8</ele>
        <time>2016-05-16T08:14:59Z</time>
      </trkpt>
      <trkpt lat="43.66042" lon="3.40449">
        <ele>264.5</ele>
        <time>2016-05-16T08:15:01Z</time>
      </trkpt>
      <trkpt lat="43.66048" lon="3.40457">
        <ele>265.1</ele>
        <time>2016-05-16T08:15:03Z</time>
      </trkpt>
      <trkpt lat="43.66054" lon="3.40465">
        <ele>265.3</ele>
        <time>2016-05-16T08:15:05Z</time>
      </trkpt>
      <trkpt lat="43.6606" lon="3.4047">
        <ele>265.3</ele>
        <time>2016-05-16T08:15:07Z</time>
      </trkpt>
      <trkpt lat="43.66068" lon="3.40472">
        <ele>265.3</ele>
        <time>2016-05-16T08:15:09Z</time>
      </trkpt>
      <trkpt lat="43.66075" lon="3.40473">
        <ele>265.3</ele>
        <time>2016-05-16T08:15:12Z</time>
      </trkpt>
      <trkpt lat="43.66085" lon="3.40471">
        <ele>265.4</ele>
        <time>2016-05-16T08:15:16Z</time>
      </trkpt>
      <trkpt lat="43.66089" lon="3.40485">
        <ele>265.7</ele>
        <time>2016-05-16T08:15:21Z</time>
      </trkpt>
      <trkpt lat="43.66088" lon="3.40496">
        <ele>265.8</ele>
        <time>2016-05-16T08:15:23Z</time>
      </trkpt>
      <trkpt lat="43.66091" lon="3.40507">
        <ele>265.7</ele>
        <time>2016-05-16T08:15:26Z</time>
      </trkpt>
      <trkpt lat="43.66089" lon="3.40519">
        <ele>265.3</ele>
        <time>2016-05-16T08:15:28Z</time>
      </trkpt>
      <trkpt lat="43.66084" lon="3.40529">
        <ele>265.3</ele>
        <time>2016-05-16T08:15:30Z</time>
      </trkpt>
      <trkpt lat="43.66076" lon="3.40538">
        <ele>265</ele>
        <time>2016-05-16T08:15:33Z</time>
      </trkpt>
      <trkpt lat="43.66069" lon="3.40545">
        <ele>264.9</ele>
        <time>2016-05-16T08:15:35Z</time>
      </trkpt>
      <trkpt lat="43.66059" lon="3.40541">
        <ele>263.6</ele>
        <time>2016-05-16T08:15:38Z</time>
      </trkpt>
      <trkpt lat="43.66053" lon="3.40536">
        <ele>263.6</ele>
        <time>2016-05-16T08:15:41Z</time>
      </trkpt>
      <trkpt lat="43.66045" lon="3.40535">
        <ele>263.6</ele>
        <time>2016-05-16T08:15:46Z</time>
      </trkpt>
      <trkpt lat="43.66038" lon="3.40529">
        <ele>263.5</ele>
        <time>2016-05-16T08:15:49Z</time>
      </trkpt>
      <trkpt lat="43.66031" lon="3.40525">
        <ele>263.5</ele>
        <time>2016-05-16T08:15:51Z</time>
      </trkpt>
      <trkpt lat="43.66026" lon="3.40518">
        <ele>263.3</ele>
        <time>2016-05-16T08:15:53Z</time>
      </trkpt>
      <trkpt lat="43.66022" lon="3.40506">
        <ele>262.9</ele>
        <time>2016-05-16T08:15:55Z</time>
      </trkpt>
      <trkpt lat="43.66013" lon="3.40497">
        <ele>262.5</ele>
        <time>2016-05-16T08:15:58Z</time>
      </trkpt>
      <trkpt lat="43.66007" lon="3.4049">
        <ele>261.8</ele>
        <time>2016-05-16T08:16:01Z</time>
      </trkpt>
      <trkpt lat="43.66007" lon="3.40495">
        <ele>260.2</ele>
        <time>2016-05-16T08:16:08Z</time>
      </trkpt>
      <trkpt lat="43.66011" lon="3.40505">
        <ele>259.4</ele>
        <time>2016-05-16T08:16:11Z</time>
      </trkpt>
      <trkpt lat="43.66011" lon="3.40516">
        <ele>258.7</ele>
        <time>2016-05-16T08:16:14Z</time>
      </trkpt>
      <trkpt lat="43.66008" lon="3.40526">
        <ele>258.2</ele>
        <time>2016-05-16T08:16:16Z</time>
      </trkpt>
      <trkpt lat="43.66007" lon="3.40536">
        <ele>257.6</ele>
        <time>2016-05-16T08:16:18Z</time>
      </trkpt>
      <trkpt lat="43.66009" lon="3.40549">
        <ele>256.6</ele>
        <time>2016-05-16T08:16:21Z</time>
      </trkpt>
      <trkpt lat="43.66005" lon="3.40559">
        <ele>255.4</ele>
        <time>2016-05-16T08:16:24Z</time>
      </trkpt>
      <trkpt lat="43.65995" lon="3.40561">
        <ele>254</ele>
        <time>2016-05-16T08:16:27Z</time>
      </trkpt>
      <trkpt lat="43.65986" lon="3.40566">
        <ele>252.5</ele>
        <time>2016-05-16T08:16:30Z</time>
      </trkpt>
      <trkpt lat="43.65984" lon="3.4058">
        <ele>249.9</ele>
        <time>2016-05-16T08:16:35Z</time>
      </trkpt>
      <trkpt lat="43.65979" lon="3.40589">
        <ele>248.3</ele>
        <time>2016-05-16T08:16:38Z</time>
      </trkpt>
      <trkpt lat="43.65977" lon="3.40598">
        <ele>247.2</ele>
        <time>2016-05-16T08:16:40Z</time>
      </trkpt>
      <trkpt lat="43.65975" lon="3.4061">
        <ele>240.7</ele>
        <time>2016-05-16T08:16:43Z</time>
      </trkpt>
      <trkpt lat="43.65973" lon="3.4062">
        <ele>239.3</ele>
        <time>2016-05-16T08:16:46Z</time>
      </trkpt>
      <trkpt lat="43.65971" lon="3.40633">
        <ele>237.2</ele>
        <time>2016-05-16T08:16:50Z</time>
      </trkpt>
      <trkpt lat="43.65976" lon="3.40644">
        <ele>235.6</ele>
        <time>2016-05-16T08:16:54Z</time>
      </trkpt>
      <trkpt lat="43.6598" lon="3.40653">
        <ele>234.8</ele>
        <time>2016-05-16T08:16:56Z</time>
      </trkpt>
      <trkpt lat="43.65987" lon="3.40657">
        <ele>232.7</ele>
        <time>2016-05-16T08:17:01Z</time>
      </trkpt>
      <trkpt lat="43.65994" lon="3.40662">
        <ele>231.9</ele>
        <time>2016-05-16T08:17:03Z</time>
      </trkpt>
      <trkpt lat="43.66001" lon="3.40667">
        <ele>226.6</ele>
        <time>2016-05-16T08:17:05Z</time>
      </trkpt>
      <trkpt lat="43.6601" lon="3.40674">
        <ele>222.5</ele>
        <time>2016-05-16T08:17:08Z</time>
      </trkpt>
      <trkpt lat="43.66014" lon="3.40684">
        <ele>219.2</ele>
        <time>2016-05-16T08:17:10Z</time>
      </trkpt>
      <trkpt lat="43.6602" lon="3.40691">
        <ele>216.3</ele>
        <time>2016-05-16T08:17:12Z</time>
      </trkpt>
      <trkpt lat="43.66028" lon="3.40701">
        <ele>215.7</ele>
        <time>2016-05-16T08:17:15Z</time>
      </trkpt>
      <trkpt lat="43.66033" lon="3.4071">
        <ele>215.1</ele>
        <time>2016-05-16T08:17:17Z</time>
      </trkpt>
      <trkpt lat="43.66031" lon="3.40723">
        <ele>214.1</ele>
        <time>2016-05-16T08:17:20Z</time>
      </trkpt>
      <trkpt lat="43.66034" lon="3.40734">
        <ele>211</ele>
        <time>2016-05-16T08:17:22Z</time>
      </trkpt>
      <trkpt lat="43.66041" lon="3.40743">
        <ele>205.4</ele>
        <time>2016-05-16T08:17:24Z</time>
      </trkpt>
      <trkpt lat="43.66046" lon="3.40757">
        <ele>201.8</ele>
        <time>2016-05-16T08:17:26Z</time>
      </trkpt>
      <trkpt lat="43.6605" lon="3.40772">
        <ele>198</ele>
        <time>2016-05-16T08:17:28Z</time>
      </trkpt>
      <trkpt lat="43.66048" lon="3.40789">
        <ele>195</ele>
        <time>2016-05-16T08:17:30Z</time>
      </trkpt>
      <trkpt lat="43.66047" lon="3.40806">
        <ele>192.3</ele>
        <time>2016-05-16T08:17:32Z</time>
      </trkpt>
      <trkpt lat="43.66043" lon="3.40819">
        <ele>189.9</ele>
        <time>2016-05-16T08:17:34Z</time>
      </trkpt>
      <trkpt lat="43.66038" lon="3.40827">
        <ele>189.6</ele>
        <time>2016-05-16T08:17:36Z</time>
      </trkpt>
      <trkpt lat="43.66039" lon="3.40842">
        <ele>184.7</ele>
        <time>2016-05-16T08:17:39Z</time>
      </trkpt>
      <trkpt lat="43.66032" lon="3.40849">
        <ele>184.3</ele>
        <time>2016-05-16T08:17:41Z</time>
      </trkpt>
      <trkpt lat="43.66026" lon="3.40859">
        <ele>181.9</ele>
        <time>2016-05-16T08:17:43Z</time>
      </trkpt>
      <trkpt lat="43.66021" lon="3.40866">
        <ele>181.6</ele>
        <time>2016-05-16T08:17:45Z</time>
      </trkpt>
      <trkpt lat="43.66014" lon="3.40865">
        <ele>180</ele>
        <time>2016-05-16T08:17:47Z</time>
      </trkpt>
      <trkpt lat="43.66006" lon="3.40862">
        <ele>178.8</ele>
        <time>2016-05-16T08:17:52Z</time>
      </trkpt>
      <trkpt lat="43.66003" lon="3.40852">
        <ele>178</ele>
        <time>2016-05-16T08:17:55Z</time>
      </trkpt>
      <trkpt lat="43.66004" lon="3.4084">
        <ele>177</ele>
        <time>2016-05-16T08:17:58Z</time>
      </trkpt>
      <trkpt lat="43.65999" lon="3.4083">
        <ele>176.2</ele>
        <time>2016-05-16T08:18:01Z</time>
      </trkpt>
      <trkpt lat="43.65996" lon="3.40819">
        <ele>175.5</ele>
        <time>2016-05-16T08:18:04Z</time>
      </trkpt>
      <trkpt lat="43.65987" lon="3.40819">
        <ele>174.8</ele>
        <time>2016-05-16T08:18:08Z</time>
      </trkpt>
      <trkpt lat="43.65978" lon="3.40819">
        <ele>174.3</ele>
        <time>2016-05-16T08:18:12Z</time>
      </trkpt>
      <trkpt lat="43.6597" lon="3.40817">
        <ele>172.8</ele>
        <time>2016-05-16T08:18:14Z</time>
      </trkpt>
      <trkpt lat="43.65961" lon="3.4081">
        <ele>172.5</ele>
        <time>2016-05-16T08:18:17Z</time>
      </trkpt>
      <trkpt lat="43.65958" lon="3.40799">
        <ele>172.2</ele>
        <time>2016-05-16T08:18:20Z</time>
      </trkpt>
      <trkpt lat="43.65955" lon="3.40787">
        <ele>171.7</ele>
        <time>2016-05-16T08:18:23Z</time>
      </trkpt>
      <trkpt lat="43.6595" lon="3.40778">
        <ele>171.2</ele>
        <time>2016-05-16T08:18:26Z</time>
      </trkpt>
      <trkpt lat="43.65944" lon="3.4077">
        <ele>169.8</ele>
        <time>2016-05-16T08:18:29Z</time>
      </trkpt>
      <trkpt lat="43.65937" lon="3.40765">
        <ele>169.3</ele>
        <time>2016-05-16T08:18:34Z</time>
      </trkpt>
      <trkpt lat="43.6593" lon="3.40756">
        <ele>169.1</ele>
        <time>2016-05-16T08:18:38Z</time>
      </trkpt>
      <trkpt lat="43.65926" lon="3.40745">
        <ele>169</ele>
        <time>2016-05-16T08:18:43Z</time>
      </trkpt>
      <trkpt lat="43.65921" lon="3.40736">
        <ele>168.9</ele>
        <time>2016-05-16T08:18:48Z</time>
      </trkpt>
      <trkpt lat="43.65918" lon="3.40727">
        <ele>169.1</ele>
        <time>2016-05-16T08:18:51Z</time>
      </trkpt>
      <trkpt lat="43.65916" lon="3.40714">
        <ele>169.5</ele>
        <time>2016-05-16T08:18:55Z</time>
      </trkpt>
      <trkpt lat="43.65915" lon="3.40702">
        <ele>169.8</ele>
        <time>2016-05-16T08:18:58Z</time>
      </trkpt>
      <trkpt lat="43.65914" lon="3.4069">
        <ele>170.2</ele>
        <time>2016-05-16T08:19:02Z</time>
      </trkpt>
      <trkpt lat="43.65912" lon="3.4068">
        <ele>170.7</ele>
        <time>2016-05-16T08:19:06Z</time>
      </trkpt>
      <trkpt lat="43.65906" lon="3.40671">
        <ele>171.4</ele>
        <time>2016-05-16T08:19:11Z</time>
      </trkpt>
      <trkpt lat="43.65902" lon="3.40664">
        <ele>171.8</ele>
        <time>2016-05-16T08:19:14Z</time>
      </trkpt>
      <trkpt lat="43.65895" lon="3.40656">
        <ele>172.3</ele>
        <time>2016-05-16T08:19:18Z</time>
      </trkpt>
      <trkpt lat="43.65887" lon="3.40651">
        <ele>172.6</ele>
        <time>2016-05-16T08:19:22Z</time>
      </trkpt>
      <trkpt lat="43.65878" lon="3.40645">
        <ele>173.2</ele>
        <time>2016-05-16T08:19:26Z</time>
      </trkpt>
      <trkpt lat="43.65872" lon="3.40641">
        <ele>173.8</ele>
        <time>2016-05-16T08:19:30Z</time>
      </trkpt>
      <trkpt lat="43.65865" lon="3.40635">
        <ele>174.7</ele>
        <time>2016-05-16T08:19:34Z</time>
      </trkpt>
      <trkpt lat="43.65861" lon="3.40623">
        <ele>175.5</ele>
        <time>2016-05-16T08:19:38Z</time>
      </trkpt>
      <trkpt lat="43.6586" lon="3.40611">
        <ele>176.7</ele>
        <time>2016-05-16T08:19:42Z</time>
      </trkpt>
      <trkpt lat="43.6586" lon="3.40601">
        <ele>177.5</ele>
        <time>2016-05-16T08:19:45Z</time>
      </trkpt>
      <trkpt lat="43.6586" lon="3.40588">
        <ele>178.4</ele>
        <time>2016-05-16T08:19:49Z</time>
      </trkpt>
      <trkpt lat="43.65861" lon="3.40578">
        <ele>178.6</ele>
        <time>2016-05-16T08:19:52Z</time>
      </trkpt>
      <trkpt lat="43.65861" lon="3.40566">
        <ele>178.9</ele>
        <time>2016-05-16T08:19:55Z</time>
      </trkpt>
      <trkpt lat="43.6586" lon="3.40556">
        <ele>179.4</ele>
        <time>2016-05-16T08:19:59Z</time>
      </trkpt>
      <trkpt lat="43.65859" lon="3.40544">
        <ele>179.8</ele>
        <time>2016-05-16T08:20:03Z</time>
      </trkpt>
      <trkpt lat="43.65859" lon="3.40533">
        <ele>180.2</ele>
        <time>2016-05-16T08:20:06Z</time>
      </trkpt>
      <trkpt lat="43.65859" lon="3.4052">
        <ele>180.8</ele>
        <time>2016-05-16T08:20:10Z</time>
      </trkpt>
      <trkpt lat="43.65859" lon="3.40508">
        <ele>181.5</ele>
        <time>2016-05-16T08:20:14Z</time>
      </trkpt>
      <trkpt lat="43.65859" lon="3.40494">
        <ele>182.5</ele>
        <time>2016-05-16T08:20:18Z</time>
      </trkpt>
      <trkpt lat="43.65859" lon="3.40484">
        <ele>182.9</ele>
        <time>2016-05-16T08:20:21Z</time>
      </trkpt>
      <trkpt lat="43.65859" lon="3.40472">
        <ele>183.7</ele>
        <time>2016-05-16T08:20:25Z</time>
      </trkpt>
      <trkpt lat="43.65857" lon="3.4046">
        <ele>184.4</ele>
        <time>2016-05-16T08:20:29Z</time>
      </trkpt>
      <trkpt lat="43.65856" lon="3.40448">
        <ele>185.1</ele>
        <time>2016-05-16T08:20:32Z</time>
      </trkpt>
      <trkpt lat="43.65857" lon="3.40437">
        <ele>185.8</ele>
        <time>2016-05-16T08:20:35Z</time>
      </trkpt>
      <trkpt lat="43.65856" lon="3.40423">
        <ele>186.6</ele>
        <time>2016-05-16T08:20:39Z</time>
      </trkpt>
      <trkpt lat="43.65855" lon="3.40411">
        <ele>187.2</ele>
        <time>2016-05-16T08:20:43Z</time>
      </trkpt>
      <trkpt lat="43.65853" lon="3.40399">
        <ele>187.5</ele>
        <time>2016-05-16T08:20:47Z</time>
      </trkpt>
      <trkpt lat="43.65852" lon="3.40389">
        <ele>187.8</ele>
        <time>2016-05-16T08:20:50Z</time>
      </trkpt>
      <trkpt lat="43.6585" lon="3.40379">
        <ele>188.1</ele>
        <time>2016-05-16T08:20:53Z</time>
      </trkpt>
      <trkpt lat="43.65847" lon="3.40365">
        <ele>188.5</ele>
        <time>2016-05-16T08:20:57Z</time>
      </trkpt>
      <trkpt lat="43.65846" lon="3.40356">
        <ele>189</ele>
        <time>2016-05-16T08:21:00Z</time>
      </trkpt>
      <trkpt lat="43.65844" lon="3.40346">
        <ele>189.1</ele>
        <time>2016-05-16T08:21:03Z</time>
      </trkpt>
      <trkpt lat="43.6584" lon="3.40335">
        <ele>189.3</ele>
        <time>2016-05-16T08:21:07Z</time>
      </trkpt>
      <trkpt lat="43.65838" lon="3.40323">
        <ele>190.1</ele>
        <time>2016-05-16T08:21:11Z</time>
      </trkpt>
      <trkpt lat="43.65834" lon="3.40313">
        <ele>190.9</ele>
        <time>2016-05-16T08:21:15Z</time>
      </trkpt>
      <trkpt lat="43.6583" lon="3.40303">
        <ele>191.6</ele>
        <time>2016-05-16T08:21:19Z</time>
      </trkpt>
      <trkpt lat="43.65827" lon="3.40291">
        <ele>192.3</ele>
        <time>2016-05-16T08:21:23Z</time>
      </trkpt>
      <trkpt lat="43.65824" lon="3.40281">
        <ele>192.8</ele>
        <time>2016-05-16T08:21:27Z</time>
      </trkpt>
      <trkpt lat="43.65821" lon="3.4027">
        <ele>193.5</ele>
        <time>2016-05-16T08:21:31Z</time>
      </trkpt>
      <trkpt lat="43.65818" lon="3.4026">
        <ele>193.9</ele>
        <time>2016-05-16T08:21:34Z</time>
      </trkpt>
      <trkpt lat="43.65815" lon="3.40248">
        <ele>194.7</ele>
        <time>2016-05-16T08:21:38Z</time>
      </trkpt>
      <trkpt lat="43.65813" lon="3.40236">
        <ele>195.2</ele>
        <time>2016-05-16T08:21:42Z</time>
      </trkpt>
      <trkpt lat="43.65811" lon="3.40225">
        <ele>195.6</ele>
        <time>2016-05-16T08:21:46Z</time>
      </trkpt>
      <trkpt lat="43.65808" lon="3.40214">
        <ele>196</ele>
        <time>2016-05-16T08:21:50Z</time>
      </trkpt>
      <trkpt lat="43.65807" lon="3.40203">
        <ele>196.1</ele>
        <time>2016-05-16T08:21:53Z</time>
      </trkpt>
      <trkpt lat="43.65805" lon="3.40193">
        <ele>196.3</ele>
        <time>2016-05-16T08:21:56Z</time>
      </trkpt>
      <trkpt lat="43.65802" lon="3.40183">
        <ele>196.8</ele>
        <time>2016-05-16T08:21:59Z</time>
      </trkpt>
      <trkpt lat="43.65797" lon="3.40173">
        <ele>197.3</ele>
        <time>2016-05-16T08:22:03Z</time>
      </trkpt>
      <trkpt lat="43.65792" lon="3.40162">
        <ele>198</ele>
        <time>2016-05-16T08:22:07Z</time>
      </trkpt>
      <trkpt lat="43.65785" lon="3.40152">
        <ele>198.4</ele>
        <time>2016-05-16T08:22:10Z</time>
      </trkpt>
      <trkpt lat="43.6578" lon="3.40142">
        <ele>198.7</ele>
        <time>2016-05-16T08:22:13Z</time>
      </trkpt>
      <trkpt lat="43.65776" lon="3.40131">
        <ele>198.7</ele>
        <time>2016-05-16T08:22:16Z</time>
      </trkpt>
      <trkpt lat="43.65772" lon="3.40122">
        <ele>198.8</ele>
        <time>2016-05-16T08:22:18Z</time>
      </trkpt>
      <trkpt lat="43.65769" lon="3.40112">
        <ele>199</ele>
        <time>2016-05-16T08:22:20Z</time>
      </trkpt>
      <trkpt lat="43.65767" lon="3.40102">
        <ele>199.1</ele>
        <time>2016-05-16T08:22:22Z</time>
      </trkpt>
      <trkpt lat="43.65765" lon="3.4009">
        <ele>199.1</ele>
        <time>2016-05-16T08:22:24Z</time>
      </trkpt>
      <trkpt lat="43.65763" lon="3.40077">
        <ele>199.1</ele>
        <time>2016-05-16T08:22:27Z</time>
      </trkpt>
      <trkpt lat="43.6576" lon="3.40063">
        <ele>199.3</ele>
        <time>2016-05-16T08:22:30Z</time>
      </trkpt>
      <trkpt lat="43.65757" lon="3.40054">
        <ele>199.4</ele>
        <time>2016-05-16T08:22:32Z</time>
      </trkpt>
      <trkpt lat="43.65752" lon="3.40042">
        <ele>199.6</ele>
        <time>2016-05-16T08:22:35Z</time>
      </trkpt>
      <trkpt lat="43.65746" lon="3.4003">
        <ele>199.6</ele>
        <time>2016-05-16T08:22:38Z</time>
      </trkpt>
      <trkpt lat="43.6574" lon="3.4002">
        <ele>199.9</ele>
        <time>2016-05-16T08:22:41Z</time>
      </trkpt>
      <trkpt lat="43.65735" lon="3.40011">
        <ele>200.3</ele>
        <time>2016-05-16T08:22:44Z</time>
      </trkpt>
      <trkpt lat="43.6573" lon="3.39999">
        <ele>200.6</ele>
        <time>2016-05-16T08:22:47Z</time>
      </trkpt>
      <trkpt lat="43.65726" lon="3.39985">
        <ele>200.6</ele>
        <time>2016-05-16T08:22:50Z</time>
      </trkpt>
      <trkpt lat="43.65724" lon="3.39974">
        <ele>200.7</ele>
        <time>2016-05-16T08:22:52Z</time>
      </trkpt>
      <trkpt lat="43.65723" lon="3.3996">
        <ele>200.8</ele>
        <time>2016-05-16T08:22:55Z</time>
      </trkpt>
      <trkpt lat="43.65714" lon="3.3996">
        <ele>201.4</ele>
        <time>2016-05-16T08:23:00Z</time>
      </trkpt>
      <trkpt lat="43.65712" lon="3.39971">
        <ele>201.2</ele>
        <time>2016-05-16T08:23:06Z</time>
      </trkpt>
      <trkpt lat="43.65714" lon="3.39985">
        <ele>201.5</ele>
        <time>2016-05-16T08:23:09Z</time>
      </trkpt>
      <trkpt lat="43.65714" lon="3.39997">
        <ele>202</ele>
        <time>2016-05-16T08:23:11Z</time>
      </trkpt>
      <trkpt lat="43.65715" lon="3.4001">
        <ele>201</ele>
        <time>2016-05-16T08:23:13Z</time>
      </trkpt>
      <trkpt lat="43.65714" lon="3.4002">
        <ele>200.6</ele>
        <time>2016-05-16T08:23:14Z</time>
      </trkpt>
      <trkpt lat="43.65712" lon="3.4003">
        <ele>199.9</ele>
        <time>2016-05-16T08:23:15Z</time>
      </trkpt>
      <trkpt lat="43.65707" lon="3.40039">
        <ele>199.1</ele>
        <time>2016-05-16T08:23:16Z</time>
      </trkpt>
      <trkpt lat="43.65702" lon="3.40048">
        <ele>198.5</ele>
        <time>2016-05-16T08:23:17Z</time>
      </trkpt>
      <trkpt lat="43.65694" lon="3.40062">
        <ele>197.8</ele>
        <time>2016-05-16T08:23:19Z</time>
      </trkpt>
      <trkpt lat="43.65687" lon="3.40073">
        <ele>197.1</ele>
        <time>2016-05-16T08:23:21Z</time>
      </trkpt>
      <trkpt lat="43.65681" lon="3.40084">
        <ele>197.1</ele>
        <time>2016-05-16T08:23:23Z</time>
      </trkpt>
      <trkpt lat="43.65674" lon="3.40094">
        <ele>197.5</ele>
        <time>2016-05-16T08:23:25Z</time>
      </trkpt>
      <trkpt lat="43.65667" lon="3.40104">
        <ele>198.1</ele>
        <time>2016-05-16T08:23:27Z</time>
      </trkpt>
      <trkpt lat="43.65659" lon="3.40114">
        <ele>197.6</ele>
        <time>2016-05-16T08:23:29Z</time>
      </trkpt>
      <trkpt lat="43.65651" lon="3.40125">
        <ele>197</ele>
        <time>2016-05-16T08:23:31Z</time>
      </trkpt>
      <trkpt lat="43.65645" lon="3.40134">
        <ele>196.4</ele>
        <time>2016-05-16T08:23:33Z</time>
      </trkpt>
      <trkpt lat="43.65637" lon="3.40144">
        <ele>196.5</ele>
        <time>2016-05-16T08:23:36Z</time>
      </trkpt>
      <trkpt lat="43.65632" lon="3.40152">
        <ele>196.7</ele>
        <time>2016-05-16T08:23:38Z</time>
      </trkpt>
      <trkpt lat="43.65625" lon="3.40161">
        <ele>196.2</ele>
        <time>2016-05-16T08:23:40Z</time>
      </trkpt>
      <trkpt lat="43.65618" lon="3.4017">
        <ele>196</ele>
        <time>2016-05-16T08:23:42Z</time>
      </trkpt>
      <trkpt lat="43.65611" lon="3.40179">
        <ele>195</ele>
        <time>2016-05-16T08:23:44Z</time>
      </trkpt>
      <trkpt lat="43.65605" lon="3.40187">
        <ele>194</ele>
        <time>2016-05-16T08:23:46Z</time>
      </trkpt>
      <trkpt lat="43.65599" lon="3.40196">
        <ele>193.9</ele>
        <time>2016-05-16T08:23:48Z</time>
      </trkpt>
      <trkpt lat="43.65592" lon="3.40205">
        <ele>194.4</ele>
        <time>2016-05-16T08:23:50Z</time>
      </trkpt>
      <trkpt lat="43.65585" lon="3.40215">
        <ele>194.6</ele>
        <time>2016-05-16T08:23:52Z</time>
      </trkpt>
      <trkpt lat="43.65578" lon="3.40225">
        <ele>193.8</ele>
        <time>2016-05-16T08:23:54Z</time>
      </trkpt>
      <trkpt lat="43.65571" lon="3.40236">
        <ele>192.6</ele>
        <time>2016-05-16T08:23:56Z</time>
      </trkpt>
      <trkpt lat="43.65562" lon="3.40248">
        <ele>193.2</ele>
        <time>2016-05-16T08:23:58Z</time>
      </trkpt>
      <trkpt lat="43.65555" lon="3.40259">
        <ele>192.7</ele>
        <time>2016-05-16T08:24:00Z</time>
      </trkpt>
      <trkpt lat="43.65548" lon="3.40269">
        <ele>191.3</ele>
        <time>2016-05-16T08:24:02Z</time>
      </trkpt>
      <trkpt lat="43.6554" lon="3.4028">
        <ele>190.7</ele>
        <time>2016-05-16T08:24:04Z</time>
      </trkpt>
      <trkpt lat="43.65533" lon="3.4029">
        <ele>191.2</ele>
        <time>2016-05-16T08:24:06Z</time>
      </trkpt>
      <trkpt lat="43.65527" lon="3.40298">
        <ele>192.1</ele>
        <time>2016-05-16T08:24:08Z</time>
      </trkpt>
      <trkpt lat="43.6552" lon="3.40308">
        <ele>192.2</ele>
        <time>2016-05-16T08:24:10Z</time>
      </trkpt>
      <trkpt lat="43.65514" lon="3.40319">
        <ele>192.5</ele>
        <time>2016-05-16T08:24:12Z</time>
      </trkpt>
      <trkpt lat="43.65508" lon="3.40328">
        <ele>192.9</ele>
        <time>2016-05-16T08:24:14Z</time>
      </trkpt>
      <trkpt lat="43.65501" lon="3.40336">
        <ele>193</ele>
        <time>2016-05-16T08:24:17Z</time>
      </trkpt>
      <trkpt lat="43.65495" lon="3.40342">
        <ele>193</ele>
        <time>2016-05-16T08:24:22Z</time>
      </trkpt>
      <trkpt lat="43.65488" lon="3.40341">
        <ele>193.1</ele>
        <time>2016-05-16T08:24:26Z</time>
      </trkpt>
      <trkpt lat="43.65479" lon="3.40337">
        <ele>193.3</ele>
        <time>2016-05-16T08:24:30Z</time>
      </trkpt>
      <trkpt lat="43.65473" lon="3.40331">
        <ele>193.5</ele>
        <time>2016-05-16T08:24:33Z</time>
      </trkpt>
      <trkpt lat="43.65467" lon="3.40322">
        <ele>193.5</ele>
        <time>2016-05-16T08:24:36Z</time>
      </trkpt>
      <trkpt lat="43.65461" lon="3.40314">
        <ele>193.5</ele>
        <time>2016-05-16T08:24:39Z</time>
      </trkpt>
      <trkpt lat="43.65454" lon="3.40307">
        <ele>193.5</ele>
        <time>2016-05-16T08:24:42Z</time>
      </trkpt>
      <trkpt lat="43.65446" lon="3.403">
        <ele>193.6</ele>
        <time>2016-05-16T08:24:45Z</time>
      </trkpt>
      <trkpt lat="43.65441" lon="3.40293">
        <ele>193.6</ele>
        <time>2016-05-16T08:24:48Z</time>
      </trkpt>
      <trkpt lat="43.65435" lon="3.40286">
        <ele>193.7</ele>
        <time>2016-05-16T08:24:51Z</time>
      </trkpt>
      <trkpt lat="43.65429" lon="3.4028">
        <ele>194</ele>
        <time>2016-05-16T08:24:54Z</time>
      </trkpt>
      <trkpt lat="43.65421" lon="3.40272">
        <ele>194.2</ele>
        <time>2016-05-16T08:24:57Z</time>
      </trkpt>
      <trkpt lat="43.65413" lon="3.40266">
        <ele>194.4</ele>
        <time>2016-05-16T08:25:00Z</time>
      </trkpt>
      <trkpt lat="43.65406" lon="3.4026">
        <ele>194.8</ele>
        <time>2016-05-16T08:25:03Z</time>
      </trkpt>
      <trkpt lat="43.65399" lon="3.40255">
        <ele>195.1</ele>
        <time>2016-05-16T08:25:06Z</time>
      </trkpt>
      <trkpt lat="43.65392" lon="3.4025">
        <ele>195.5</ele>
        <time>2016-05-16T08:25:09Z</time>
      </trkpt>
      <trkpt lat="43.65384" lon="3.40243">
        <ele>196</ele>
        <time>2016-05-16T08:25:12Z</time>
      </trkpt>
      <trkpt lat="43.65376" lon="3.40236">
        <ele>196.5</ele>
        <time>2016-05-16T08:25:15Z</time>
      </trkpt>
      <trkpt lat="43.65369" lon="3.40231">
        <ele>197.1</ele>
        <time>2016-05-16T08:25:18Z</time>
      </trkpt>
      <trkpt lat="43.65361" lon="3.40227">
        <ele>197.4</ele>
        <time>2016-05-16T08:25:21Z</time>
      </trkpt>
      <trkpt lat="43.65353" lon="3.40223">
        <ele>197.8</ele>
        <time>2016-05-16T08:25:24Z</time>
      </trkpt>
      <trkpt lat="43.65344" lon="3.40219">
        <ele>198.4</ele>
        <time>2016-05-16T08:25:28Z</time>
      </trkpt>
      <trkpt lat="43.65337" lon="3.40219">
        <ele>198.9</ele>
        <time>2016-05-16T08:25:31Z</time>
      </trkpt>
      <trkpt lat="43.65327" lon="3.40216">
        <ele>199.3</ele>
        <time>2016-05-16T08:25:34Z</time>
      </trkpt>
      <trkpt lat="43.65318" lon="3.40213">
        <ele>199.7</ele>
        <time>2016-05-16T08:25:37Z</time>
      </trkpt>
      <trkpt lat="43.6531" lon="3.40211">
        <ele>200.1</ele>
        <time>2016-05-16T08:25:40Z</time>
      </trkpt>
      <trkpt lat="43.65301" lon="3.40209">
        <ele>200.7</ele>
        <time>2016-05-16T08:25:43Z</time>
      </trkpt>
      <trkpt lat="43.65293" lon="3.40206">
        <ele>201.4</ele>
        <time>2016-05-16T08:25:46Z</time>
      </trkpt>
      <trkpt lat="43.65285" lon="3.40202">
        <ele>201.9</ele>
        <time>2016-05-16T08:25:49Z</time>
      </trkpt>
      <trkpt lat="43.65279" lon="3.40191">
        <ele>202.3</ele>
        <time>2016-05-16T08:25:52Z</time>
      </trkpt>
      <trkpt lat="43.65275" lon="3.40178">
        <ele>202.5</ele>
        <time>2016-05-16T08:25:55Z</time>
      </trkpt>
      <trkpt lat="43.65272" lon="3.40167">
        <ele>202.4</ele>
        <time>2016-05-16T08:25:58Z</time>
      </trkpt>
      <trkpt lat="43.6527" lon="3.40155">
        <ele>202.4</ele>
        <time>2016-05-16T08:26:01Z</time>
      </trkpt>
      <trkpt lat="43.65268" lon="3.40142">
        <ele>202.3</ele>
        <time>2016-05-16T08:26:04Z</time>
      </trkpt>
      <trkpt lat="43.65267" lon="3.40131">
        <ele>202.1</ele>
        <time>2016-05-16T08:26:07Z</time>
      </trkpt>
      <trkpt lat="43.65268" lon="3.40117">
        <ele>201.9</ele>
        <time>2016-05-16T08:26:10Z</time>
      </trkpt>
      <trkpt lat="43.65267" lon="3.40104">
        <ele>202</ele>
        <time>2016-05-16T08:26:14Z</time>
      </trkpt>
      <trkpt lat="43.65265" lon="3.40091">
        <ele>202</ele>
        <time>2016-05-16T08:26:18Z</time>
      </trkpt>
      <trkpt lat="43.65262" lon="3.40082">
        <ele>202</ele>
        <time>2016-05-16T08:26:21Z</time>
      </trkpt>
      <trkpt lat="43.65256" lon="3.4007">
        <ele>202.1</ele>
        <time>2016-05-16T08:26:25Z</time>
      </trkpt>
      <trkpt lat="43.65252" lon="3.40062">
        <ele>202.2</ele>
        <time>2016-05-16T08:26:28Z</time>
      </trkpt>
      <trkpt lat="43.65246" lon="3.40054">
        <ele>202.4</ele>
        <time>2016-05-16T08:26:31Z</time>
      </trkpt>
      <trkpt lat="43.65239" lon="3.40044">
        <ele>202.8</ele>
        <time>2016-05-16T08:26:34Z</time>
      </trkpt>
      <trkpt lat="43.65234" lon="3.40036">
        <ele>203.3</ele>
        <time>2016-05-16T08:26:37Z</time>
      </trkpt>
      <trkpt lat="43.65228" lon="3.40029">
        <ele>203.9</ele>
        <time>2016-05-16T08:26:40Z</time>
      </trkpt>
      <trkpt lat="43.65222" lon="3.40022">
        <ele>204.5</ele>
        <time>2016-05-16T08:26:43Z</time>
      </trkpt>
      <trkpt lat="43.65215" lon="3.40018">
        <ele>205.2</ele>
        <time>2016-05-16T08:26:46Z</time>
      </trkpt>
      <trkpt lat="43.65208" lon="3.40014">
        <ele>206.2</ele>
        <time>2016-05-16T08:26:49Z</time>
      </trkpt>
      <trkpt lat="43.65199" lon="3.4001">
        <ele>207.2</ele>
        <time>2016-05-16T08:26:52Z</time>
      </trkpt>
      <trkpt lat="43.6519" lon="3.40006">
        <ele>207.8</ele>
        <time>2016-05-16T08:26:55Z</time>
      </trkpt>
      <trkpt lat="43.65181" lon="3.40003">
        <ele>208.4</ele>
        <time>2016-05-16T08:26:58Z</time>
      </trkpt>
      <trkpt lat="43.65171" lon="3.39999">
        <ele>209</ele>
        <time>2016-05-16T08:27:01Z</time>
      </trkpt>
      <trkpt lat="43.65163" lon="3.39996">
        <ele>211.5</ele>
        <time>2016-05-16T08:27:03Z</time>
      </trkpt>
      <trkpt lat="43.65155" lon="3.39993">
        <ele>214.8</ele>
        <time>2016-05-16T08:27:05Z</time>
      </trkpt>
      <trkpt lat="43.65148" lon="3.39991">
        <ele>215.9</ele>
        <time>2016-05-16T08:27:07Z</time>
      </trkpt>
      <trkpt lat="43.65141" lon="3.39988">
        <ele>216</ele>
        <time>2016-05-16T08:27:09Z</time>
      </trkpt>
      <trkpt lat="43.65131" lon="3.39984">
        <ele>216.1</ele>
        <time>2016-05-16T08:27:12Z</time>
      </trkpt>
      <trkpt lat="43.65124" lon="3.39977">
        <ele>216.2</ele>
        <time>2016-05-16T08:27:14Z</time>
      </trkpt>
      <trkpt lat="43.65122" lon="3.39965">
        <ele>217</ele>
        <time>2016-05-16T08:27:16Z</time>
      </trkpt>
      <trkpt lat="43.6512" lon="3.39955">
        <ele>217</ele>
        <time>2016-05-16T08:27:18Z</time>
      </trkpt>
      <trkpt lat="43.65118" lon="3.39942">
        <ele>216.9</ele>
        <time>2016-05-16T08:27:21Z</time>
      </trkpt>
      <trkpt lat="43.65119" lon="3.39927">
        <ele>216.6</ele>
        <time>2016-05-16T08:27:24Z</time>
      </trkpt>
      <trkpt lat="43.65121" lon="3.39917">
        <ele>216.5</ele>
        <time>2016-05-16T08:27:26Z</time>
      </trkpt>
      <trkpt lat="43.65125" lon="3.39906">
        <ele>216.4</ele>
        <time>2016-05-16T08:27:28Z</time>
      </trkpt>
      <trkpt lat="43.6513" lon="3.39893">
        <ele>216.5</ele>
        <time>2016-05-16T08:27:30Z</time>
      </trkpt>
      <trkpt lat="43.65133" lon="3.39882">
        <ele>216.5</ele>
        <time>2016-05-16T08:27:32Z</time>
      </trkpt>
      <trkpt lat="43.65137" lon="3.39873">
        <ele>216.5</ele>
        <time>2016-05-16T08:27:34Z</time>
      </trkpt>
      <trkpt lat="43.65141" lon="3.39862">
        <ele>216.4</ele>
        <time>2016-05-16T08:27:36Z</time>
      </trkpt>
      <trkpt lat="43.65143" lon="3.39852">
        <ele>216.4</ele>
        <time>2016-05-16T08:27:38Z</time>
      </trkpt>
      <trkpt lat="43.65146" lon="3.39839">
        <ele>216.5</ele>
        <time>2016-05-16T08:27:41Z</time>
      </trkpt>
      <trkpt lat="43.65148" lon="3.39828">
        <ele>217.5</ele>
        <time>2016-05-16T08:27:43Z</time>
      </trkpt>
      <trkpt lat="43.65149" lon="3.39818">
        <ele>217.8</ele>
        <time>2016-05-16T08:27:45Z</time>
      </trkpt>
      <trkpt lat="43.65152" lon="3.39808">
        <ele>218.6</ele>
        <time>2016-05-16T08:27:47Z</time>
      </trkpt>
      <trkpt lat="43.65154" lon="3.39796">
        <ele>219.4</ele>
        <time>2016-05-16T08:27:49Z</time>
      </trkpt>
      <trkpt lat="43.65154" lon="3.39785">
        <ele>220.2</ele>
        <time>2016-05-16T08:27:51Z</time>
      </trkpt>
      <trkpt lat="43.65154" lon="3.39774">
        <ele>220.9</ele>
        <time>2016-05-16T08:27:53Z</time>
      </trkpt>
      <trkpt lat="43.65153" lon="3.39761">
        <ele>220.2</ele>
        <time>2016-05-16T08:27:55Z</time>
      </trkpt>
      <trkpt lat="43.65152" lon="3.39748">
        <ele>220.1</ele>
        <time>2016-05-16T08:27:57Z</time>
      </trkpt>
      <trkpt lat="43.65151" lon="3.39736">
        <ele>220.7</ele>
        <time>2016-05-16T08:27:59Z</time>
      </trkpt>
      <trkpt lat="43.65148" lon="3.39724">
        <ele>219.6</ele>
        <time>2016-05-16T08:28:01Z</time>
      </trkpt>
      <trkpt lat="43.65146" lon="3.39712">
        <ele>218.9</ele>
        <time>2016-05-16T08:28:03Z</time>
      </trkpt>
      <trkpt lat="43.65146" lon="3.39701">
        <ele>217.9</ele>
        <time>2016-05-16T08:28:05Z</time>
      </trkpt>
      <trkpt lat="43.65145" lon="3.39689">
        <ele>217</ele>
        <time>2016-05-16T08:28:07Z</time>
      </trkpt>
      <trkpt lat="43.65143" lon="3.39677">
        <ele>217</ele>
        <time>2016-05-16T08:28:09Z</time>
      </trkpt>
      <trkpt lat="43.65142" lon="3.39664">
        <ele>216.4</ele>
        <time>2016-05-16T08:28:11Z</time>
      </trkpt>
      <trkpt lat="43.65141" lon="3.39653">
        <ele>215.8</ele>
        <time>2016-05-16T08:28:13Z</time>
      </trkpt>
      <trkpt lat="43.6514" lon="3.39642">
        <ele>214.7</ele>
        <time>2016-05-16T08:28:15Z</time>
      </trkpt>
      <trkpt lat="43.65139" lon="3.39632">
        <ele>215.2</ele>
        <time>2016-05-16T08:28:17Z</time>
      </trkpt>
      <trkpt lat="43.65139" lon="3.3962">
        <ele>214.8</ele>
        <time>2016-05-16T08:28:19Z</time>
      </trkpt>
      <trkpt lat="43.65138" lon="3.39609">
        <ele>214.8</ele>
        <time>2016-05-16T08:28:21Z</time>
      </trkpt>
      <trkpt lat="43.65137" lon="3.39597">
        <ele>215.3</ele>
        <time>2016-05-16T08:28:23Z</time>
      </trkpt>
      <trkpt lat="43.65137" lon="3.39586">
        <ele>216</ele>
        <time>2016-05-16T08:28:25Z</time>
      </trkpt>
      <trkpt lat="43.65139" lon="3.39571">
        <ele>217.3</ele>
        <time>2016-05-16T08:28:27Z</time>
      </trkpt>
      <trkpt lat="43.65141" lon="3.39557">
        <ele>218</ele>
        <time>2016-05-16T08:28:29Z</time>
      </trkpt>
      <trkpt lat="43.65142" lon="3.39546">
        <ele>216.8</ele>
        <time>2016-05-16T08:28:31Z</time>
      </trkpt>
      <trkpt lat="43.65145" lon="3.39535">
        <ele>214.6</ele>
        <time>2016-05-16T08:28:33Z</time>
      </trkpt>
      <trkpt lat="43.65148" lon="3.39522">
        <ele>213.8</ele>
        <time>2016-05-16T08:28:35Z</time>
      </trkpt>
      <trkpt lat="43.65149" lon="3.39511">
        <ele>214.4</ele>
        <time>2016-05-16T08:28:37Z</time>
      </trkpt>
      <trkpt lat="43.65152" lon="3.39501">
        <ele>214.9</ele>
        <time>2016-05-16T08:28:39Z</time>
      </trkpt>
      <trkpt lat="43.65153" lon="3.39489">
        <ele>215.5</ele>
        <time>2016-05-16T08:28:41Z</time>
      </trkpt>
      <trkpt lat="43.65154" lon="3.39479">
        <ele>214.6</ele>
        <time>2016-05-16T08:28:43Z</time>
      </trkpt>
      <trkpt lat="43.65155" lon="3.39468">
        <ele>214.3</ele>
        <time>2016-05-16T08:28:45Z</time>
      </trkpt>
      <trkpt lat="43.65156" lon="3.39457">
        <ele>215.3</ele>
        <time>2016-05-16T08:28:47Z</time>
      </trkpt>
      <trkpt lat="43.65157" lon="3.39445">
        <ele>217.9</ele>
        <time>2016-05-16T08:28:49Z</time>
      </trkpt>
      <trkpt lat="43.65158" lon="3.39433">
        <ele>218.9</ele>
        <time>2016-05-16T08:28:51Z</time>
      </trkpt>
      <trkpt lat="43.65157" lon="3.39421">
        <ele>219.2</ele>
        <time>2016-05-16T08:28:53Z</time>
      </trkpt>
      <trkpt lat="43.65156" lon="3.39409">
        <ele>217.9</ele>
        <time>2016-05-16T08:28:55Z</time>
      </trkpt>
      <trkpt lat="43.65156" lon="3.39398">
        <ele>216.9</ele>
        <time>2016-05-16T08:28:57Z</time>
      </trkpt>
      <trkpt lat="43.65156" lon="3.39385">
        <ele>216.3</ele>
        <time>2016-05-16T08:28:59Z</time>
      </trkpt>
      <trkpt lat="43.65155" lon="3.39373">
        <ele>215.1</ele>
        <time>2016-05-16T08:29:01Z</time>
      </trkpt>
      <trkpt lat="43.65153" lon="3.39363">
        <ele>215.3</ele>
        <time>2016-05-16T08:29:03Z</time>
      </trkpt>
      <trkpt lat="43.65153" lon="3.39348">
        <ele>215.5</ele>
        <time>2016-05-16T08:29:06Z</time>
      </trkpt>
      <trkpt lat="43.65151" lon="3.39335">
        <ele>216</ele>
        <time>2016-05-16T08:29:08Z</time>
      </trkpt>
      <trkpt lat="43.6515" lon="3.39325">
        <ele>215.5</ele>
        <time>2016-05-16T08:29:10Z</time>
      </trkpt>
      <trkpt lat="43.65148" lon="3.39315">
        <ele>215.7</ele>
        <time>2016-05-16T08:29:12Z</time>
      </trkpt>
      <trkpt lat="43.65146" lon="3.39303">
        <ele>215.3</ele>
        <time>2016-05-16T08:29:14Z</time>
      </trkpt>
      <trkpt lat="43.65143" lon="3.39293">
        <ele>216.2</ele>
        <time>2016-05-16T08:29:16Z</time>
      </trkpt>
      <trkpt lat="43.6514" lon="3.39282">
        <ele>216.5</ele>
        <time>2016-05-16T08:29:18Z</time>
      </trkpt>
      <trkpt lat="43.6514" lon="3.3927">
        <ele>216.7</ele>
        <time>2016-05-16T08:29:20Z</time>
      </trkpt>
      <trkpt lat="43.6514" lon="3.39257">
        <ele>216.7</ele>
        <time>2016-05-16T08:29:22Z</time>
      </trkpt>
      <trkpt lat="43.65138" lon="3.39246">
        <ele>217.2</ele>
        <time>2016-05-16T08:29:24Z</time>
      </trkpt>
      <trkpt lat="43.65135" lon="3.39235">
        <ele>218</ele>
        <time>2016-05-16T08:29:26Z</time>
      </trkpt>
      <trkpt lat="43.65132" lon="3.39221">
        <ele>217.7</ele>
        <time>2016-05-16T08:29:28Z</time>
      </trkpt>
      <trkpt lat="43.65128" lon="3.39211">
        <ele>217.7</ele>
        <time>2016-05-16T08:29:30Z</time>
      </trkpt>
      <trkpt lat="43.65124" lon="3.39197">
        <ele>219.5</ele>
        <time>2016-05-16T08:29:32Z</time>
      </trkpt>
      <trkpt lat="43.6512" lon="3.39186">
        <ele>222.3</ele>
        <time>2016-05-16T08:29:34Z</time>
      </trkpt>
      <trkpt lat="43.65116" lon="3.39174">
        <ele>224.5</ele>
        <time>2016-05-16T08:29:36Z</time>
      </trkpt>
      <trkpt lat="43.65111" lon="3.39164">
        <ele>225.9</ele>
        <time>2016-05-16T08:29:38Z</time>
      </trkpt>
      <trkpt lat="43.65105" lon="3.39153">
        <ele>226.1</ele>
        <time>2016-05-16T08:29:40Z</time>
      </trkpt>
      <trkpt lat="43.651" lon="3.39142">
        <ele>225.2</ele>
        <time>2016-05-16T08:29:42Z</time>
      </trkpt>
      <trkpt lat="43.65095" lon="3.39131">
        <ele>225.3</ele>
        <time>2016-05-16T08:29:44Z</time>
      </trkpt>
      <trkpt lat="43.65088" lon="3.39121">
        <ele>225.2</ele>
        <time>2016-05-16T08:29:46Z</time>
      </trkpt>
      <trkpt lat="43.65082" lon="3.39112">
        <ele>225.9</ele>
        <time>2016-05-16T08:29:48Z</time>
      </trkpt>
      <trkpt lat="43.65072" lon="3.39102">
        <ele>226.9</ele>
        <time>2016-05-16T08:29:50Z</time>
      </trkpt>
      <trkpt lat="43.65063" lon="3.39092">
        <ele>227.6</ele>
        <time>2016-05-16T08:29:52Z</time>
      </trkpt>
      <trkpt lat="43.65052" lon="3.39086">
        <ele>227</ele>
        <time>2016-05-16T08:29:54Z</time>
      </trkpt>
      <trkpt lat="43.6504" lon="3.39079">
        <ele>225.7</ele>
        <time>2016-05-16T08:29:56Z</time>
      </trkpt>
      <trkpt lat="43.65033" lon="3.39077">
        <ele>225.6</ele>
        <time>2016-05-16T08:29:57Z</time>
      </trkpt>
      <trkpt lat="43.65026" lon="3.39073">
        <ele>225.6</ele>
        <time>2016-05-16T08:29:58Z</time>
      </trkpt>
      <trkpt lat="43.65019" lon="3.3907">
        <ele>225.8</ele>
        <time>2016-05-16T08:29:59Z</time>
      </trkpt>
      <trkpt lat="43.65006" lon="3.39065">
        <ele>226</ele>
        <time>2016-05-16T08:30:01Z</time>
      </trkpt>
      <trkpt lat="43.64992" lon="3.39062">
        <ele>225.7</ele>
        <time>2016-05-16T08:30:03Z</time>
      </trkpt>
      <trkpt lat="43.64983" lon="3.39063">
        <ele>225.8</ele>
        <time>2016-05-16T08:30:04Z</time>
      </trkpt>
      <trkpt lat="43.64974" lon="3.39065">
        <ele>225.6</ele>
        <time>2016-05-16T08:30:05Z</time>
      </trkpt>
      <trkpt lat="43.64965" lon="3.39066">
        <ele>225.4</ele>
        <time>2016-05-16T08:30:06Z</time>
      </trkpt>
      <trkpt lat="43.64956" lon="3.39067">
        <ele>225.1</ele>
        <time>2016-05-16T08:30:07Z</time>
      </trkpt>
      <trkpt lat="43.64947" lon="3.3907">
        <ele>224.6</ele>
        <time>2016-05-16T08:30:08Z</time>
      </trkpt>
      <trkpt lat="43.64939" lon="3.39073">
        <ele>223.7</ele>
        <time>2016-05-16T08:30:09Z</time>
      </trkpt>
      <trkpt lat="43.64929" lon="3.39071">
        <ele>222.8</ele>
        <time>2016-05-16T08:30:11Z</time>
      </trkpt>
      <trkpt lat="43.64924" lon="3.3906">
        <ele>222.4</ele>
        <time>2016-05-16T08:30:13Z</time>
      </trkpt>
      <trkpt lat="43.64916" lon="3.39053">
        <ele>221.2</ele>
        <time>2016-05-16T08:30:15Z</time>
      </trkpt>
      <trkpt lat="43.64911" lon="3.3904">
        <ele>218.7</ele>
        <time>2016-05-16T08:30:17Z</time>
      </trkpt>
      <trkpt lat="43.6491" lon="3.39029">
        <ele>218.6</ele>
        <time>2016-05-16T08:30:19Z</time>
      </trkpt>
      <trkpt lat="43.6491" lon="3.39017">
        <ele>216.6</ele>
        <time>2016-05-16T08:30:21Z</time>
      </trkpt>
      <trkpt lat="43.64906" lon="3.39006">
        <ele>215.2</ele>
        <time>2016-05-16T08:30:23Z</time>
      </trkpt>
      <trkpt lat="43.64909" lon="3.38988">
        <ele>214.1</ele>
        <time>2016-05-16T08:30:25Z</time>
      </trkpt>
      <trkpt lat="43.64911" lon="3.38977">
        <ele>213.3</ele>
        <time>2016-05-16T08:30:26Z</time>
      </trkpt>
      <trkpt lat="43.64906" lon="3.38964">
        <ele>211.3</ele>
        <time>2016-05-16T08:30:28Z</time>
      </trkpt>
      <trkpt lat="43.64897" lon="3.38954">
        <ele>210.4</ele>
        <time>2016-05-16T08:30:30Z</time>
      </trkpt>
      <trkpt lat="43.64886" lon="3.38942">
        <ele>209.7</ele>
        <time>2016-05-16T08:30:32Z</time>
      </trkpt>
      <trkpt lat="43.64881" lon="3.38931">
        <ele>209.3</ele>
        <time>2016-05-16T08:30:33Z</time>
      </trkpt>
      <trkpt lat="43.64872" lon="3.38919">
        <ele>207.8</ele>
        <time>2016-05-16T08:30:35Z</time>
      </trkpt>
      <trkpt lat="43.64861" lon="3.38912">
        <ele>207.3</ele>
        <time>2016-05-16T08:30:37Z</time>
      </trkpt>
      <trkpt lat="43.64855" lon="3.38905">
        <ele>206.9</ele>
        <time>2016-05-16T08:30:38Z</time>
      </trkpt>
      <trkpt lat="43.6485" lon="3.38898">
        <ele>206.5</ele>
        <time>2016-05-16T08:30:39Z</time>
      </trkpt>
      <trkpt lat="43.64844" lon="3.38892">
        <ele>205.6</ele>
        <time>2016-05-16T08:30:40Z</time>
      </trkpt>
      <trkpt lat="43.64837" lon="3.38885">
        <ele>204.9</ele>
        <time>2016-05-16T08:30:41Z</time>
      </trkpt>
      <trkpt lat="43.6483" lon="3.38879">
        <ele>204.2</ele>
        <time>2016-05-16T08:30:42Z</time>
      </trkpt>
      <trkpt lat="43.64821" lon="3.3887">
        <ele>204</ele>
        <time>2016-05-16T08:30:44Z</time>
      </trkpt>
      <trkpt lat="43.64812" lon="3.38864">
        <ele>205.1</ele>
        <time>2016-05-16T08:30:46Z</time>
      </trkpt>
      <trkpt lat="43.64803" lon="3.3886">
        <ele>204.2</ele>
        <time>2016-05-16T08:30:48Z</time>
      </trkpt>
      <trkpt lat="43.64795" lon="3.38865">
        <ele>203.9</ele>
        <time>2016-05-16T08:30:51Z</time>
      </trkpt>
      <trkpt lat="43.64794" lon="3.38865">
        <ele>203.4</ele>
        <time>2016-05-16T08:30:58Z</time>
      </trkpt>
      <trkpt lat="43.64785" lon="3.3887">
        <ele>201.4</ele>
        <time>2016-05-16T08:31:03Z</time>
      </trkpt>
      <trkpt lat="43.64776" lon="3.38874">
        <ele>199.8</ele>
        <time>2016-05-16T08:31:06Z</time>
      </trkpt>
      <trkpt lat="43.64769" lon="3.38883">
        <ele>199.2</ele>
        <time>2016-05-16T08:31:09Z</time>
      </trkpt>
      <trkpt lat="43.64766" lon="3.38892">
        <ele>199</ele>
        <time>2016-05-16T08:31:12Z</time>
      </trkpt>
      <trkpt lat="43.64761" lon="3.38904">
        <ele>198.6</ele>
        <time>2016-05-16T08:31:16Z</time>
      </trkpt>
      <trkpt lat="43.64755" lon="3.38916">
        <ele>198.5</ele>
        <time>2016-05-16T08:31:19Z</time>
      </trkpt>
      <trkpt lat="43.64752" lon="3.38924">
        <ele>198.5</ele>
        <time>2016-05-16T08:31:21Z</time>
      </trkpt>
      <trkpt lat="43.64744" lon="3.38927">
        <ele>197.2</ele>
        <time>2016-05-16T08:31:23Z</time>
      </trkpt>
      <trkpt lat="43.64737" lon="3.38922">
        <ele>196</ele>
        <time>2016-05-16T08:31:25Z</time>
      </trkpt>
      <trkpt lat="43.64731" lon="3.38915">
        <ele>195.8</ele>
        <time>2016-05-16T08:31:27Z</time>
      </trkpt>
      <trkpt lat="43.64723" lon="3.38905">
        <ele>195.2</ele>
        <time>2016-05-16T08:31:30Z</time>
      </trkpt>
      <trkpt lat="43.64713" lon="3.38901">
        <ele>194.9</ele>
        <time>2016-05-16T08:31:32Z</time>
      </trkpt>
      <trkpt lat="43.64703" lon="3.38899">
        <ele>195.7</ele>
        <time>2016-05-16T08:31:34Z</time>
      </trkpt>
      <trkpt lat="43.64694" lon="3.38903">
        <ele>195.8</ele>
        <time>2016-05-16T08:31:37Z</time>
      </trkpt>
      <trkpt lat="43.64687" lon="3.38901">
        <ele>195.9</ele>
        <time>2016-05-16T08:31:40Z</time>
      </trkpt>
      <trkpt lat="43.64678" lon="3.38899">
        <ele>195.9</ele>
        <time>2016-05-16T08:31:43Z</time>
      </trkpt>
      <trkpt lat="43.64671" lon="3.38904">
        <ele>195.9</ele>
        <time>2016-05-16T08:31:46Z</time>
      </trkpt>
      <trkpt lat="43.64662" lon="3.38906">
        <ele>195.9</ele>
        <time>2016-05-16T08:31:50Z</time>
      </trkpt>
      <trkpt lat="43.64653" lon="3.3891">
        <ele>195.9</ele>
        <time>2016-05-16T08:31:53Z</time>
      </trkpt>
      <trkpt lat="43.64645" lon="3.38908">
        <ele>195.9</ele>
        <time>2016-05-16T08:31:55Z</time>
      </trkpt>
      <trkpt lat="43.64635" lon="3.38906">
        <ele>196</ele>
        <time>2016-05-16T08:31:58Z</time>
      </trkpt>
      <trkpt lat="43.64624" lon="3.38909">
        <ele>196</ele>
        <time>2016-05-16T08:32:01Z</time>
      </trkpt>
      <trkpt lat="43.64617" lon="3.38914">
        <ele>195.9</ele>
        <time>2016-05-16T08:32:03Z</time>
      </trkpt>
      <trkpt lat="43.64607" lon="3.38917">
        <ele>196.1</ele>
        <time>2016-05-16T08:32:06Z</time>
      </trkpt>
      <trkpt lat="43.64597" lon="3.38921">
        <ele>196.2</ele>
        <time>2016-05-16T08:32:09Z</time>
      </trkpt>
      <trkpt lat="43.6459" lon="3.38925">
        <ele>196.3</ele>
        <time>2016-05-16T08:32:12Z</time>
      </trkpt>
      <trkpt lat="43.64583" lon="3.38931">
        <ele>196.5</ele>
        <time>2016-05-16T08:32:15Z</time>
      </trkpt>
      <trkpt lat="43.64576" lon="3.38935">
        <ele>196.7</ele>
        <time>2016-05-16T08:32:18Z</time>
      </trkpt>
      <trkpt lat="43.6457" lon="3.38942">
        <ele>197</ele>
        <time>2016-05-16T08:32:21Z</time>
      </trkpt>
      <trkpt lat="43.64563" lon="3.38948">
        <ele>197.2</ele>
        <time>2016-05-16T08:32:24Z</time>
      </trkpt>
      <trkpt lat="43.64556" lon="3.38954">
        <ele>197.3</ele>
        <time>2016-05-16T08:32:27Z</time>
      </trkpt>
      <trkpt lat="43.64549" lon="3.3896">
        <ele>197.3</ele>
        <time>2016-05-16T08:32:31Z</time>
      </trkpt>
      <trkpt lat="43.64543" lon="3.38968">
        <ele>197.3</ele>
        <time>2016-05-16T08:32:34Z</time>
      </trkpt>
      <trkpt lat="43.64538" lon="3.38977">
        <ele>197.3</ele>
        <time>2016-05-16T08:32:37Z</time>
      </trkpt>
      <trkpt lat="43.64531" lon="3.38985">
        <ele>197.4</ele>
        <time>2016-05-16T08:32:40Z</time>
      </trkpt>
      <trkpt lat="43.64523" lon="3.38993">
        <ele>197.4</ele>
        <time>2016-05-16T08:32:43Z</time>
      </trkpt>
      <trkpt lat="43.64515" lon="3.38997">
        <ele>197.5</ele>
        <time>2016-05-16T08:32:46Z</time>
      </trkpt>
      <trkpt lat="43.64507" lon="3.39">
        <ele>197.9</ele>
        <time>2016-05-16T08:32:49Z</time>
      </trkpt>
      <trkpt lat="43.64505" lon="3.39003">
        <ele>198</ele>
        <time>2016-05-16T08:32:56Z</time>
      </trkpt>
    </trkseg>
  </trk>
</gpx>